<?xml version="1.0" encoding="UTF-8" standalone="no" ?>
<gpx xmlns="http://www.topografix.com/GPX/1/1" xmlns:xsi="http://www.w3.org/2001/XMLSchema-instance" xsi:schemaLocation="http://www.topografix.com/GPX/1/1 http://www.topografix.com/GPX/1/1/gpx.xsd" version="1.1" creator="VisuGPX - https://www.visugpx.com">
  <metadata>
    <name>valempouliéres,essai JL</name>
    <desc><![CDATA[
]]></desc>
  </metadata>
  <trk>
    <name><![CDATA[valempouliéres,essai JL_1]]></name>
    <trkseg>
      <trkpt lat="46.83093" lon="5.87583">
        <ele>662.9</ele>
        <time>2020-02-22T12:47:49Z</time>
      </trkpt>
      <trkpt lat="46.83091" lon="5.87576">
        <ele>656.5</ele>
        <time>2020-02-22T12:48:05Z</time>
      </trkpt>
      <trkpt lat="46.83093" lon="5.87569">
        <ele>657.4</ele>
        <time>2020-02-22T12:48:12Z</time>
      </trkpt>
      <trkpt lat="46.83096" lon="5.87561">
        <ele>657.5</ele>
        <time>2020-02-22T12:48:17Z</time>
      </trkpt>
      <trkpt lat="46.83099" lon="5.87556">
        <ele>657.2</ele>
        <time>2020-02-22T12:48:21Z</time>
      </trkpt>
      <trkpt lat="46.83102" lon="5.8755">
        <ele>656.8</ele>
        <time>2020-02-22T12:48:25Z</time>
      </trkpt>
      <trkpt lat="46.83109" lon="5.87541">
        <ele>656</ele>
        <time>2020-02-22T12:48:41Z</time>
      </trkpt>
      <trkpt lat="46.83113" lon="5.87535">
        <ele>655.9</ele>
        <time>2020-02-22T12:48:44Z</time>
      </trkpt>
      <trkpt lat="46.83116" lon="5.87529">
        <ele>655.7</ele>
        <time>2020-02-22T12:48:50Z</time>
      </trkpt>
      <trkpt lat="46.8312" lon="5.87527">
        <ele>656.5</ele>
        <time>2020-02-22T12:49:01Z</time>
      </trkpt>
      <trkpt lat="46.83125" lon="5.87525">
        <ele>658.8</ele>
        <time>2020-02-22T12:49:20Z</time>
      </trkpt>
      <trkpt lat="46.83124" lon="5.87516">
        <ele>658.8</ele>
        <time>2020-02-22T12:49:25Z</time>
      </trkpt>
      <trkpt lat="46.83126" lon="5.8751">
        <ele>658.2</ele>
        <time>2020-02-22T12:49:36Z</time>
      </trkpt>
      <trkpt lat="46.8313" lon="5.87505">
        <ele>657.3</ele>
        <time>2020-02-22T12:49:47Z</time>
      </trkpt>
      <trkpt lat="46.83133" lon="5.875">
        <ele>656.8</ele>
        <time>2020-02-22T12:49:55Z</time>
      </trkpt>
      <trkpt lat="46.83136" lon="5.87495">
        <ele>656.6</ele>
        <time>2020-02-22T12:50:06Z</time>
      </trkpt>
      <trkpt lat="46.8314" lon="5.87491">
        <ele>657.4</ele>
        <time>2020-02-22T12:50:14Z</time>
      </trkpt>
      <trkpt lat="46.83144" lon="5.87487">
        <ele>658.3</ele>
        <time>2020-02-22T12:50:20Z</time>
      </trkpt>
      <trkpt lat="46.83148" lon="5.87483">
        <ele>658.9</ele>
        <time>2020-02-22T12:50:24Z</time>
      </trkpt>
      <trkpt lat="46.83152" lon="5.87482">
        <ele>659.2</ele>
        <time>2020-02-22T12:50:27Z</time>
      </trkpt>
      <trkpt lat="46.83157" lon="5.87479">
        <ele>659.4</ele>
        <time>2020-02-22T12:50:31Z</time>
      </trkpt>
      <trkpt lat="46.8316" lon="5.87473">
        <ele>659.4</ele>
        <time>2020-02-22T12:50:37Z</time>
      </trkpt>
      <trkpt lat="46.83164" lon="5.8747">
        <ele>659.5</ele>
        <time>2020-02-22T12:50:41Z</time>
      </trkpt>
      <trkpt lat="46.83168" lon="5.87465">
        <ele>659.6</ele>
        <time>2020-02-22T12:50:46Z</time>
      </trkpt>
      <trkpt lat="46.83171" lon="5.87459">
        <ele>659.5</ele>
        <time>2020-02-22T12:50:52Z</time>
      </trkpt>
      <trkpt lat="46.83174" lon="5.87454">
        <ele>659.8</ele>
        <time>2020-02-22T12:50:59Z</time>
      </trkpt>
      <trkpt lat="46.83176" lon="5.87447">
        <ele>659.9</ele>
        <time>2020-02-22T12:51:08Z</time>
      </trkpt>
      <trkpt lat="46.83179" lon="5.8744">
        <ele>659.9</ele>
        <time>2020-02-22T12:51:12Z</time>
      </trkpt>
      <trkpt lat="46.83182" lon="5.87435">
        <ele>659.7</ele>
        <time>2020-02-22T12:51:15Z</time>
      </trkpt>
      <trkpt lat="46.83186" lon="5.8743">
        <ele>659.6</ele>
        <time>2020-02-22T12:51:18Z</time>
      </trkpt>
      <trkpt lat="46.83189" lon="5.87424">
        <ele>659.7</ele>
        <time>2020-02-22T12:51:22Z</time>
      </trkpt>
      <trkpt lat="46.83193" lon="5.8742">
        <ele>659.5</ele>
        <time>2020-02-22T12:51:28Z</time>
      </trkpt>
      <trkpt lat="46.83196" lon="5.87416">
        <ele>659.4</ele>
        <time>2020-02-22T12:51:34Z</time>
      </trkpt>
      <trkpt lat="46.83201" lon="5.87411">
        <ele>659.5</ele>
        <time>2020-02-22T12:51:38Z</time>
      </trkpt>
      <trkpt lat="46.83211" lon="5.87397">
        <ele>659.4</ele>
        <time>2020-02-22T12:51:51Z</time>
      </trkpt>
      <trkpt lat="46.83214" lon="5.87392">
        <ele>659.3</ele>
        <time>2020-02-22T12:51:55Z</time>
      </trkpt>
      <trkpt lat="46.83217" lon="5.87386">
        <ele>659.4</ele>
        <time>2020-02-22T12:52:01Z</time>
      </trkpt>
      <trkpt lat="46.83219" lon="5.8738">
        <ele>659.5</ele>
        <time>2020-02-22T12:52:06Z</time>
      </trkpt>
      <trkpt lat="46.8322" lon="5.87373">
        <ele>659.4</ele>
        <time>2020-02-22T12:52:12Z</time>
      </trkpt>
      <trkpt lat="46.83222" lon="5.87366">
        <ele>659</ele>
        <time>2020-02-22T12:52:20Z</time>
      </trkpt>
      <trkpt lat="46.83225" lon="5.8736">
        <ele>658.6</ele>
        <time>2020-02-22T12:52:25Z</time>
      </trkpt>
      <trkpt lat="46.83228" lon="5.87354">
        <ele>658.2</ele>
        <time>2020-02-22T12:52:29Z</time>
      </trkpt>
      <trkpt lat="46.83238" lon="5.87341">
        <ele>657.1</ele>
        <time>2020-02-22T12:52:45Z</time>
      </trkpt>
      <trkpt lat="46.83239" lon="5.87334">
        <ele>658.9</ele>
        <time>2020-02-22T12:52:54Z</time>
      </trkpt>
      <trkpt lat="46.83241" lon="5.87325">
        <ele>659.8</ele>
        <time>2020-02-22T12:52:57Z</time>
      </trkpt>
      <trkpt lat="46.83242" lon="5.87319">
        <ele>661.2</ele>
        <time>2020-02-22T12:53:01Z</time>
      </trkpt>
      <trkpt lat="46.83246" lon="5.87313">
        <ele>662.8</ele>
        <time>2020-02-22T12:53:07Z</time>
      </trkpt>
      <trkpt lat="46.83249" lon="5.87308">
        <ele>663.7</ele>
        <time>2020-02-22T12:53:11Z</time>
      </trkpt>
      <trkpt lat="46.83253" lon="5.87303">
        <ele>664.3</ele>
        <time>2020-02-22T12:53:15Z</time>
      </trkpt>
      <trkpt lat="46.83256" lon="5.87298">
        <ele>665</ele>
        <time>2020-02-22T12:53:20Z</time>
      </trkpt>
      <trkpt lat="46.83259" lon="5.87292">
        <ele>666</ele>
        <time>2020-02-22T12:53:28Z</time>
      </trkpt>
      <trkpt lat="46.83263" lon="5.87288">
        <ele>666.2</ele>
        <time>2020-02-22T12:53:32Z</time>
      </trkpt>
      <trkpt lat="46.83268" lon="5.87286">
        <ele>666.3</ele>
        <time>2020-02-22T12:53:35Z</time>
      </trkpt>
      <trkpt lat="46.83273" lon="5.87282">
        <ele>666.6</ele>
        <time>2020-02-22T12:53:39Z</time>
      </trkpt>
      <trkpt lat="46.83277" lon="5.87278">
        <ele>666.9</ele>
        <time>2020-02-22T12:53:43Z</time>
      </trkpt>
      <trkpt lat="46.8328" lon="5.87271">
        <ele>668</ele>
        <time>2020-02-22T12:53:56Z</time>
      </trkpt>
      <trkpt lat="46.83282" lon="5.87266">
        <ele>668.5</ele>
        <time>2020-02-22T12:54:03Z</time>
      </trkpt>
      <trkpt lat="46.83285" lon="5.8726">
        <ele>668.9</ele>
        <time>2020-02-22T12:54:12Z</time>
      </trkpt>
      <trkpt lat="46.83289" lon="5.87257">
        <ele>669.3</ele>
        <time>2020-02-22T12:54:20Z</time>
      </trkpt>
      <trkpt lat="46.83292" lon="5.87251">
        <ele>669.4</ele>
        <time>2020-02-22T12:54:28Z</time>
      </trkpt>
      <trkpt lat="46.83293" lon="5.87244">
        <ele>669.6</ele>
        <time>2020-02-22T12:54:34Z</time>
      </trkpt>
      <trkpt lat="46.83292" lon="5.87237">
        <ele>669.8</ele>
        <time>2020-02-22T12:54:41Z</time>
      </trkpt>
      <trkpt lat="46.83292" lon="5.8723">
        <ele>669.7</ele>
        <time>2020-02-22T12:54:50Z</time>
      </trkpt>
      <trkpt lat="46.83292" lon="5.87223">
        <ele>669.6</ele>
        <time>2020-02-22T12:54:55Z</time>
      </trkpt>
      <trkpt lat="46.83292" lon="5.87217">
        <ele>669.8</ele>
        <time>2020-02-22T12:55:00Z</time>
      </trkpt>
      <trkpt lat="46.83291" lon="5.87209">
        <ele>670</ele>
        <time>2020-02-22T12:55:06Z</time>
      </trkpt>
      <trkpt lat="46.83288" lon="5.87203">
        <ele>670.3</ele>
        <time>2020-02-22T12:55:10Z</time>
      </trkpt>
      <trkpt lat="46.83287" lon="5.87197">
        <ele>670.4</ele>
        <time>2020-02-22T12:55:14Z</time>
      </trkpt>
      <trkpt lat="46.83285" lon="5.87189">
        <ele>670.6</ele>
        <time>2020-02-22T12:55:18Z</time>
      </trkpt>
      <trkpt lat="46.83283" lon="5.87183">
        <ele>670.6</ele>
        <time>2020-02-22T12:55:23Z</time>
      </trkpt>
      <trkpt lat="46.83281" lon="5.87177">
        <ele>670.5</ele>
        <time>2020-02-22T12:55:30Z</time>
      </trkpt>
      <trkpt lat="46.83279" lon="5.87171">
        <ele>670.3</ele>
        <time>2020-02-22T12:55:34Z</time>
      </trkpt>
      <trkpt lat="46.83276" lon="5.87165">
        <ele>670</ele>
        <time>2020-02-22T12:55:39Z</time>
      </trkpt>
      <trkpt lat="46.83274" lon="5.87159">
        <ele>669.6</ele>
        <time>2020-02-22T12:55:46Z</time>
      </trkpt>
      <trkpt lat="46.83273" lon="5.87152">
        <ele>669.2</ele>
        <time>2020-02-22T12:55:52Z</time>
      </trkpt>
      <trkpt lat="46.8327" lon="5.87146">
        <ele>668.8</ele>
        <time>2020-02-22T12:56:00Z</time>
      </trkpt>
      <trkpt lat="46.83262" lon="5.87138">
        <ele>667.9</ele>
        <time>2020-02-22T12:56:13Z</time>
      </trkpt>
      <trkpt lat="46.8326" lon="5.87133">
        <ele>667.8</ele>
        <time>2020-02-22T12:56:16Z</time>
      </trkpt>
      <trkpt lat="46.83257" lon="5.87126">
        <ele>667.7</ele>
        <time>2020-02-22T12:56:20Z</time>
      </trkpt>
      <trkpt lat="46.83253" lon="5.87121">
        <ele>667.9</ele>
        <time>2020-02-22T12:56:27Z</time>
      </trkpt>
      <trkpt lat="46.83249" lon="5.87117">
        <ele>667.9</ele>
        <time>2020-02-22T12:56:34Z</time>
      </trkpt>
      <trkpt lat="46.83244" lon="5.87114">
        <ele>667.9</ele>
        <time>2020-02-22T12:56:39Z</time>
      </trkpt>
      <trkpt lat="46.83239" lon="5.8711">
        <ele>667.7</ele>
        <time>2020-02-22T12:56:43Z</time>
      </trkpt>
      <trkpt lat="46.83235" lon="5.87107">
        <ele>667.3</ele>
        <time>2020-02-22T12:56:48Z</time>
      </trkpt>
      <trkpt lat="46.8323" lon="5.87103">
        <ele>667.2</ele>
        <time>2020-02-22T12:56:54Z</time>
      </trkpt>
      <trkpt lat="46.83226" lon="5.871">
        <ele>667.5</ele>
        <time>2020-02-22T12:57:06Z</time>
      </trkpt>
      <trkpt lat="46.83221" lon="5.87097">
        <ele>667.6</ele>
        <time>2020-02-22T12:57:14Z</time>
      </trkpt>
      <trkpt lat="46.83217" lon="5.87093">
        <ele>667.3</ele>
        <time>2020-02-22T12:57:19Z</time>
      </trkpt>
      <trkpt lat="46.83213" lon="5.87088">
        <ele>666.7</ele>
        <time>2020-02-22T12:57:25Z</time>
      </trkpt>
      <trkpt lat="46.83209" lon="5.87084">
        <ele>666.3</ele>
        <time>2020-02-22T12:57:30Z</time>
      </trkpt>
      <trkpt lat="46.83205" lon="5.87082">
        <ele>665.9</ele>
        <time>2020-02-22T12:57:36Z</time>
      </trkpt>
      <trkpt lat="46.83201" lon="5.87079">
        <ele>665.7</ele>
        <time>2020-02-22T12:57:42Z</time>
      </trkpt>
      <trkpt lat="46.832" lon="5.87072">
        <ele>665.7</ele>
        <time>2020-02-22T12:57:49Z</time>
      </trkpt>
      <trkpt lat="46.832" lon="5.87065">
        <ele>666</ele>
        <time>2020-02-22T12:57:58Z</time>
      </trkpt>
      <trkpt lat="46.83202" lon="5.87058">
        <ele>665.9</ele>
        <time>2020-02-22T12:58:02Z</time>
      </trkpt>
      <trkpt lat="46.83204" lon="5.87052">
        <ele>665.8</ele>
        <time>2020-02-22T12:58:07Z</time>
      </trkpt>
      <trkpt lat="46.83203" lon="5.87044">
        <ele>666</ele>
        <time>2020-02-22T12:58:14Z</time>
      </trkpt>
      <trkpt lat="46.83205" lon="5.87037">
        <ele>666.1</ele>
        <time>2020-02-22T12:58:19Z</time>
      </trkpt>
      <trkpt lat="46.83208" lon="5.87031">
        <ele>666.3</ele>
        <time>2020-02-22T12:58:25Z</time>
      </trkpt>
      <trkpt lat="46.83211" lon="5.87025">
        <ele>666.4</ele>
        <time>2020-02-22T12:58:30Z</time>
      </trkpt>
      <trkpt lat="46.83214" lon="5.8702">
        <ele>666.1</ele>
        <time>2020-02-22T12:58:35Z</time>
      </trkpt>
      <trkpt lat="46.83216" lon="5.87013">
        <ele>665.7</ele>
        <time>2020-02-22T12:58:40Z</time>
      </trkpt>
      <trkpt lat="46.83218" lon="5.87006">
        <ele>665.6</ele>
        <time>2020-02-22T12:58:44Z</time>
      </trkpt>
      <trkpt lat="46.83221" lon="5.86999">
        <ele>665.9</ele>
        <time>2020-02-22T12:58:51Z</time>
      </trkpt>
      <trkpt lat="46.83223" lon="5.86992">
        <ele>666.2</ele>
        <time>2020-02-22T12:58:55Z</time>
      </trkpt>
      <trkpt lat="46.83224" lon="5.86986">
        <ele>666.6</ele>
        <time>2020-02-22T12:59:00Z</time>
      </trkpt>
      <trkpt lat="46.83227" lon="5.86979">
        <ele>667.1</ele>
        <time>2020-02-22T12:59:06Z</time>
      </trkpt>
      <trkpt lat="46.8323" lon="5.86974">
        <ele>667.5</ele>
        <time>2020-02-22T12:59:12Z</time>
      </trkpt>
      <trkpt lat="46.83235" lon="5.86969">
        <ele>668</ele>
        <time>2020-02-22T12:59:18Z</time>
      </trkpt>
      <trkpt lat="46.83238" lon="5.86964">
        <ele>668.3</ele>
        <time>2020-02-22T12:59:22Z</time>
      </trkpt>
      <trkpt lat="46.8324" lon="5.86957">
        <ele>668.7</ele>
        <time>2020-02-22T12:59:26Z</time>
      </trkpt>
      <trkpt lat="46.83244" lon="5.86953">
        <ele>669.3</ele>
        <time>2020-02-22T12:59:33Z</time>
      </trkpt>
      <trkpt lat="46.8325" lon="5.86952">
        <ele>669.9</ele>
        <time>2020-02-22T12:59:40Z</time>
      </trkpt>
      <trkpt lat="46.83255" lon="5.86949">
        <ele>670.1</ele>
        <time>2020-02-22T12:59:44Z</time>
      </trkpt>
      <trkpt lat="46.8326" lon="5.86948">
        <ele>670</ele>
        <time>2020-02-22T12:59:47Z</time>
      </trkpt>
      <trkpt lat="46.83265" lon="5.86946">
        <ele>669.7</ele>
        <time>2020-02-22T12:59:51Z</time>
      </trkpt>
      <trkpt lat="46.8327" lon="5.86945">
        <ele>669.4</ele>
        <time>2020-02-22T12:59:57Z</time>
      </trkpt>
      <trkpt lat="46.83275" lon="5.86943">
        <ele>669</ele>
        <time>2020-02-22T13:00:05Z</time>
      </trkpt>
      <trkpt lat="46.8328" lon="5.86943">
        <ele>668.7</ele>
        <time>2020-02-22T13:00:10Z</time>
      </trkpt>
      <trkpt lat="46.83286" lon="5.86943">
        <ele>668.5</ele>
        <time>2020-02-22T13:00:15Z</time>
      </trkpt>
      <trkpt lat="46.83291" lon="5.86944">
        <ele>668.3</ele>
        <time>2020-02-22T13:00:21Z</time>
      </trkpt>
      <trkpt lat="46.83295" lon="5.86944">
        <ele>668.4</ele>
        <time>2020-02-22T13:00:26Z</time>
      </trkpt>
      <trkpt lat="46.833" lon="5.86946">
        <ele>668.5</ele>
        <time>2020-02-22T13:00:32Z</time>
      </trkpt>
      <trkpt lat="46.83306" lon="5.86947">
        <ele>668.6</ele>
        <time>2020-02-22T13:00:37Z</time>
      </trkpt>
      <trkpt lat="46.83311" lon="5.86948">
        <ele>669</ele>
        <time>2020-02-22T13:00:42Z</time>
      </trkpt>
      <trkpt lat="46.83317" lon="5.86949">
        <ele>669.1</ele>
        <time>2020-02-22T13:00:45Z</time>
      </trkpt>
      <trkpt lat="46.83322" lon="5.86949">
        <ele>669.3</ele>
        <time>2020-02-22T13:00:49Z</time>
      </trkpt>
      <trkpt lat="46.83327" lon="5.86949">
        <ele>669.6</ele>
        <time>2020-02-22T13:00:54Z</time>
      </trkpt>
      <trkpt lat="46.83328" lon="5.86943">
        <ele>669.2</ele>
        <time>2020-02-22T13:01:14Z</time>
      </trkpt>
      <trkpt lat="46.83331" lon="5.86937">
        <ele>668.7</ele>
        <time>2020-02-22T13:01:21Z</time>
      </trkpt>
      <trkpt lat="46.83334" lon="5.86932">
        <ele>667.8</ele>
        <time>2020-02-22T13:01:29Z</time>
      </trkpt>
      <trkpt lat="46.83331" lon="5.86927">
        <ele>667.2</ele>
        <time>2020-02-22T13:01:35Z</time>
      </trkpt>
      <trkpt lat="46.83327" lon="5.86922">
        <ele>666.5</ele>
        <time>2020-02-22T13:01:41Z</time>
      </trkpt>
      <trkpt lat="46.83324" lon="5.86917">
        <ele>666</ele>
        <time>2020-02-22T13:01:47Z</time>
      </trkpt>
      <trkpt lat="46.83321" lon="5.86912">
        <ele>665.5</ele>
        <time>2020-02-22T13:01:53Z</time>
      </trkpt>
      <trkpt lat="46.83315" lon="5.8691">
        <ele>664.9</ele>
        <time>2020-02-22T13:01:58Z</time>
      </trkpt>
      <trkpt lat="46.8331" lon="5.86909">
        <ele>663.9</ele>
        <time>2020-02-22T13:02:05Z</time>
      </trkpt>
      <trkpt lat="46.83305" lon="5.86908">
        <ele>661.8</ele>
        <time>2020-02-22T13:02:15Z</time>
      </trkpt>
      <trkpt lat="46.833" lon="5.86904">
        <ele>661</ele>
        <time>2020-02-22T13:02:20Z</time>
      </trkpt>
      <trkpt lat="46.83296" lon="5.86901">
        <ele>660.2</ele>
        <time>2020-02-22T13:02:25Z</time>
      </trkpt>
      <trkpt lat="46.83291" lon="5.86899">
        <ele>659.7</ele>
        <time>2020-02-22T13:02:30Z</time>
      </trkpt>
      <trkpt lat="46.83286" lon="5.86895">
        <ele>659.4</ele>
        <time>2020-02-22T13:02:35Z</time>
      </trkpt>
      <trkpt lat="46.83283" lon="5.8689">
        <ele>659.1</ele>
        <time>2020-02-22T13:02:39Z</time>
      </trkpt>
      <trkpt lat="46.83279" lon="5.86886">
        <ele>658.9</ele>
        <time>2020-02-22T13:02:44Z</time>
      </trkpt>
      <trkpt lat="46.83276" lon="5.86881">
        <ele>658.3</ele>
        <time>2020-02-22T13:02:51Z</time>
      </trkpt>
      <trkpt lat="46.83272" lon="5.86878">
        <ele>657.8</ele>
        <time>2020-02-22T13:03:00Z</time>
      </trkpt>
      <trkpt lat="46.83268" lon="5.86875">
        <ele>657.6</ele>
        <time>2020-02-22T13:03:05Z</time>
      </trkpt>
      <trkpt lat="46.83263" lon="5.86871">
        <ele>657.5</ele>
        <time>2020-02-22T13:03:10Z</time>
      </trkpt>
      <trkpt lat="46.83258" lon="5.86869">
        <ele>657.8</ele>
        <time>2020-02-22T13:03:16Z</time>
      </trkpt>
      <trkpt lat="46.83253" lon="5.86867">
        <ele>658.2</ele>
        <time>2020-02-22T13:03:23Z</time>
      </trkpt>
      <trkpt lat="46.83248" lon="5.86866">
        <ele>658.5</ele>
        <time>2020-02-22T13:03:27Z</time>
      </trkpt>
      <trkpt lat="46.83243" lon="5.86863">
        <ele>658.5</ele>
        <time>2020-02-22T13:03:32Z</time>
      </trkpt>
      <trkpt lat="46.83238" lon="5.86862">
        <ele>658.2</ele>
        <time>2020-02-22T13:03:37Z</time>
      </trkpt>
      <trkpt lat="46.83233" lon="5.86862">
        <ele>658.1</ele>
        <time>2020-02-22T13:03:45Z</time>
      </trkpt>
      <trkpt lat="46.83229" lon="5.8686">
        <ele>658.2</ele>
        <time>2020-02-22T13:03:53Z</time>
      </trkpt>
      <trkpt lat="46.83225" lon="5.86856">
        <ele>658.6</ele>
        <time>2020-02-22T13:04:01Z</time>
      </trkpt>
      <trkpt lat="46.83222" lon="5.86851">
        <ele>659.1</ele>
        <time>2020-02-22T13:04:07Z</time>
      </trkpt>
      <trkpt lat="46.83216" lon="5.86849">
        <ele>659.6</ele>
        <time>2020-02-22T13:04:15Z</time>
      </trkpt>
      <trkpt lat="46.83214" lon="5.86842">
        <ele>660.3</ele>
        <time>2020-02-22T13:04:24Z</time>
      </trkpt>
      <trkpt lat="46.83213" lon="5.86835">
        <ele>660.7</ele>
        <time>2020-02-22T13:04:29Z</time>
      </trkpt>
      <trkpt lat="46.83211" lon="5.86828">
        <ele>661.4</ele>
        <time>2020-02-22T13:04:35Z</time>
      </trkpt>
      <trkpt lat="46.83208" lon="5.86823">
        <ele>661.9</ele>
        <time>2020-02-22T13:04:44Z</time>
      </trkpt>
      <trkpt lat="46.83204" lon="5.8682">
        <ele>661.9</ele>
        <time>2020-02-22T13:04:49Z</time>
      </trkpt>
      <trkpt lat="46.83199" lon="5.86818">
        <ele>661.9</ele>
        <time>2020-02-22T13:04:59Z</time>
      </trkpt>
      <trkpt lat="46.83195" lon="5.86817">
        <ele>662.2</ele>
        <time>2020-02-22T13:05:05Z</time>
      </trkpt>
      <trkpt lat="46.83193" lon="5.86824">
        <ele>665.3</ele>
        <time>2020-02-22T13:05:34Z</time>
      </trkpt>
      <trkpt lat="46.83194" lon="5.8683">
        <ele>668</ele>
        <time>2020-02-22T13:06:06Z</time>
      </trkpt>
      <trkpt lat="46.83189" lon="5.86834">
        <ele>667.5</ele>
        <time>2020-02-22T13:06:59Z</time>
      </trkpt>
      <trkpt lat="46.83184" lon="5.86833">
        <ele>669.3</ele>
        <time>2020-02-22T13:07:14Z</time>
      </trkpt>
      <trkpt lat="46.83182" lon="5.86828">
        <ele>670.7</ele>
        <time>2020-02-22T13:07:24Z</time>
      </trkpt>
      <trkpt lat="46.83179" lon="5.86823">
        <ele>671.3</ele>
        <time>2020-02-22T13:07:30Z</time>
      </trkpt>
      <trkpt lat="46.83175" lon="5.86818">
        <ele>671.6</ele>
        <time>2020-02-22T13:07:34Z</time>
      </trkpt>
      <trkpt lat="46.83172" lon="5.86811">
        <ele>671.8</ele>
        <time>2020-02-22T13:07:37Z</time>
      </trkpt>
      <trkpt lat="46.83167" lon="5.86806">
        <ele>671.8</ele>
        <time>2020-02-22T13:07:41Z</time>
      </trkpt>
      <trkpt lat="46.83165" lon="5.86796">
        <ele>671.6</ele>
        <time>2020-02-22T13:07:53Z</time>
      </trkpt>
      <trkpt lat="46.83164" lon="5.86789">
        <ele>671.9</ele>
        <time>2020-02-22T13:08:03Z</time>
      </trkpt>
      <trkpt lat="46.83161" lon="5.86783">
        <ele>672</ele>
        <time>2020-02-22T13:08:09Z</time>
      </trkpt>
      <trkpt lat="46.83159" lon="5.86777">
        <ele>671.7</ele>
        <time>2020-02-22T13:08:15Z</time>
      </trkpt>
      <trkpt lat="46.83155" lon="5.86774">
        <ele>671.1</ele>
        <time>2020-02-22T13:08:23Z</time>
      </trkpt>
      <trkpt lat="46.83152" lon="5.86769">
        <ele>671.2</ele>
        <time>2020-02-22T13:08:42Z</time>
      </trkpt>
      <trkpt lat="46.83149" lon="5.86764">
        <ele>670.6</ele>
        <time>2020-02-22T13:08:52Z</time>
      </trkpt>
      <trkpt lat="46.83151" lon="5.86758">
        <ele>670.7</ele>
        <time>2020-02-22T13:08:59Z</time>
      </trkpt>
      <trkpt lat="46.83154" lon="5.86753">
        <ele>671</ele>
        <time>2020-02-22T13:09:07Z</time>
      </trkpt>
      <trkpt lat="46.83148" lon="5.86748">
        <ele>669.1</ele>
        <time>2020-02-22T13:09:26Z</time>
      </trkpt>
      <trkpt lat="46.83143" lon="5.86747">
        <ele>669</ele>
        <time>2020-02-22T13:09:32Z</time>
      </trkpt>
      <trkpt lat="46.83138" lon="5.86745">
        <ele>668.7</ele>
        <time>2020-02-22T13:09:36Z</time>
      </trkpt>
      <trkpt lat="46.83132" lon="5.86743">
        <ele>668.3</ele>
        <time>2020-02-22T13:09:42Z</time>
      </trkpt>
      <trkpt lat="46.83127" lon="5.86741">
        <ele>668.1</ele>
        <time>2020-02-22T13:09:47Z</time>
      </trkpt>
      <trkpt lat="46.83122" lon="5.86741">
        <ele>667.3</ele>
        <time>2020-02-22T13:09:53Z</time>
      </trkpt>
      <trkpt lat="46.83118" lon="5.8674">
        <ele>666.7</ele>
        <time>2020-02-22T13:09:57Z</time>
      </trkpt>
      <trkpt lat="46.83111" lon="5.86738">
        <ele>664.8</ele>
        <time>2020-02-22T13:10:12Z</time>
      </trkpt>
      <trkpt lat="46.83108" lon="5.86734">
        <ele>664</ele>
        <time>2020-02-22T13:10:19Z</time>
      </trkpt>
      <trkpt lat="46.83102" lon="5.86731">
        <ele>663.3</ele>
        <time>2020-02-22T13:10:27Z</time>
      </trkpt>
      <trkpt lat="46.83099" lon="5.86728">
        <ele>662.6</ele>
        <time>2020-02-22T13:10:36Z</time>
      </trkpt>
      <trkpt lat="46.83094" lon="5.86727">
        <ele>662.4</ele>
        <time>2020-02-22T13:10:42Z</time>
      </trkpt>
      <trkpt lat="46.83089" lon="5.86724">
        <ele>662</ele>
        <time>2020-02-22T13:10:51Z</time>
      </trkpt>
      <trkpt lat="46.83085" lon="5.86721">
        <ele>661.3</ele>
        <time>2020-02-22T13:10:57Z</time>
      </trkpt>
      <trkpt lat="46.83079" lon="5.8672">
        <ele>662.5</ele>
        <time>2020-02-22T13:11:16Z</time>
      </trkpt>
      <trkpt lat="46.83073" lon="5.86718">
        <ele>662.7</ele>
        <time>2020-02-22T13:11:19Z</time>
      </trkpt>
      <trkpt lat="46.83068" lon="5.86716">
        <ele>663.1</ele>
        <time>2020-02-22T13:11:23Z</time>
      </trkpt>
      <trkpt lat="46.83062" lon="5.86707">
        <ele>665.6</ele>
        <time>2020-02-22T13:11:54Z</time>
      </trkpt>
      <trkpt lat="46.83059" lon="5.86702">
        <ele>665.7</ele>
        <time>2020-02-22T13:11:57Z</time>
      </trkpt>
      <trkpt lat="46.83057" lon="5.86696">
        <ele>665.7</ele>
        <time>2020-02-22T13:12:02Z</time>
      </trkpt>
      <trkpt lat="46.83056" lon="5.86689">
        <ele>665.8</ele>
        <time>2020-02-22T13:12:06Z</time>
      </trkpt>
      <trkpt lat="46.83053" lon="5.86682">
        <ele>665.9</ele>
        <time>2020-02-22T13:12:22Z</time>
      </trkpt>
      <trkpt lat="46.83049" lon="5.86678">
        <ele>665.6</ele>
        <time>2020-02-22T13:12:28Z</time>
      </trkpt>
      <trkpt lat="46.83045" lon="5.86674">
        <ele>665.4</ele>
        <time>2020-02-22T13:12:33Z</time>
      </trkpt>
      <trkpt lat="46.83041" lon="5.86671">
        <ele>665.2</ele>
        <time>2020-02-22T13:12:38Z</time>
      </trkpt>
      <trkpt lat="46.83037" lon="5.86667">
        <ele>665.2</ele>
        <time>2020-02-22T13:12:44Z</time>
      </trkpt>
      <trkpt lat="46.83037" lon="5.86666">
        <ele>665.9</ele>
        <time>2020-02-22T13:13:33Z</time>
      </trkpt>
      <trkpt lat="46.83033" lon="5.8666">
        <ele>666.2</ele>
        <time>2020-02-22T13:13:37Z</time>
      </trkpt>
      <trkpt lat="46.83028" lon="5.86654">
        <ele>666.2</ele>
        <time>2020-02-22T13:13:41Z</time>
      </trkpt>
      <trkpt lat="46.83024" lon="5.86649">
        <ele>666.2</ele>
        <time>2020-02-22T13:13:44Z</time>
      </trkpt>
      <trkpt lat="46.8302" lon="5.86646">
        <ele>666.2</ele>
        <time>2020-02-22T13:13:47Z</time>
      </trkpt>
      <trkpt lat="46.83015" lon="5.86642">
        <ele>666</ele>
        <time>2020-02-22T13:13:51Z</time>
      </trkpt>
      <trkpt lat="46.8301" lon="5.8664">
        <ele>665.9</ele>
        <time>2020-02-22T13:13:55Z</time>
      </trkpt>
      <trkpt lat="46.83006" lon="5.86638">
        <ele>665.8</ele>
        <time>2020-02-22T13:14:01Z</time>
      </trkpt>
      <trkpt lat="46.83002" lon="5.86634">
        <ele>665.9</ele>
        <time>2020-02-22T13:14:07Z</time>
      </trkpt>
      <trkpt lat="46.82997" lon="5.8663">
        <ele>666.1</ele>
        <time>2020-02-22T13:14:13Z</time>
      </trkpt>
      <trkpt lat="46.82993" lon="5.86629">
        <ele>666.3</ele>
        <time>2020-02-22T13:14:18Z</time>
      </trkpt>
      <trkpt lat="46.82977" lon="5.86625">
        <ele>667.6</ele>
        <time>2020-02-22T13:14:32Z</time>
      </trkpt>
      <trkpt lat="46.82972" lon="5.86623">
        <ele>667.8</ele>
        <time>2020-02-22T13:14:35Z</time>
      </trkpt>
      <trkpt lat="46.82967" lon="5.8662">
        <ele>668.3</ele>
        <time>2020-02-22T13:14:39Z</time>
      </trkpt>
      <trkpt lat="46.82962" lon="5.86617">
        <ele>668.7</ele>
        <time>2020-02-22T13:14:43Z</time>
      </trkpt>
      <trkpt lat="46.82958" lon="5.86615">
        <ele>669</ele>
        <time>2020-02-22T13:14:46Z</time>
      </trkpt>
      <trkpt lat="46.82953" lon="5.86612">
        <ele>669.2</ele>
        <time>2020-02-22T13:14:50Z</time>
      </trkpt>
      <trkpt lat="46.82948" lon="5.86608">
        <ele>669.4</ele>
        <time>2020-02-22T13:14:55Z</time>
      </trkpt>
      <trkpt lat="46.82944" lon="5.86603">
        <ele>669.5</ele>
        <time>2020-02-22T13:14:58Z</time>
      </trkpt>
      <trkpt lat="46.82941" lon="5.86598">
        <ele>669.5</ele>
        <time>2020-02-22T13:15:03Z</time>
      </trkpt>
      <trkpt lat="46.82937" lon="5.86594">
        <ele>669.4</ele>
        <time>2020-02-22T13:15:08Z</time>
      </trkpt>
      <trkpt lat="46.82932" lon="5.86592">
        <ele>669.2</ele>
        <time>2020-02-22T13:15:13Z</time>
      </trkpt>
      <trkpt lat="46.82927" lon="5.86588">
        <ele>668.9</ele>
        <time>2020-02-22T13:15:18Z</time>
      </trkpt>
      <trkpt lat="46.82923" lon="5.86585">
        <ele>668.8</ele>
        <time>2020-02-22T13:15:22Z</time>
      </trkpt>
      <trkpt lat="46.82918" lon="5.86583">
        <ele>668.6</ele>
        <time>2020-02-22T13:15:26Z</time>
      </trkpt>
      <trkpt lat="46.82914" lon="5.86582">
        <ele>668.4</ele>
        <time>2020-02-22T13:15:31Z</time>
      </trkpt>
      <trkpt lat="46.82908" lon="5.86579">
        <ele>668.1</ele>
        <time>2020-02-22T13:15:35Z</time>
      </trkpt>
      <trkpt lat="46.82904" lon="5.86576">
        <ele>667.8</ele>
        <time>2020-02-22T13:15:39Z</time>
      </trkpt>
      <trkpt lat="46.82899" lon="5.86571">
        <ele>667.6</ele>
        <time>2020-02-22T13:15:44Z</time>
      </trkpt>
      <trkpt lat="46.82895" lon="5.86566">
        <ele>667.3</ele>
        <time>2020-02-22T13:15:48Z</time>
      </trkpt>
      <trkpt lat="46.82891" lon="5.86562">
        <ele>666.9</ele>
        <time>2020-02-22T13:15:52Z</time>
      </trkpt>
      <trkpt lat="46.82886" lon="5.8656">
        <ele>666.3</ele>
        <time>2020-02-22T13:15:57Z</time>
      </trkpt>
      <trkpt lat="46.82882" lon="5.86557">
        <ele>665.8</ele>
        <time>2020-02-22T13:16:01Z</time>
      </trkpt>
      <trkpt lat="46.82877" lon="5.86554">
        <ele>665.3</ele>
        <time>2020-02-22T13:16:05Z</time>
      </trkpt>
      <trkpt lat="46.82873" lon="5.86551">
        <ele>665</ele>
        <time>2020-02-22T13:16:09Z</time>
      </trkpt>
      <trkpt lat="46.82868" lon="5.86548">
        <ele>664.8</ele>
        <time>2020-02-22T13:16:13Z</time>
      </trkpt>
      <trkpt lat="46.82862" lon="5.86546">
        <ele>664.4</ele>
        <time>2020-02-22T13:16:19Z</time>
      </trkpt>
      <trkpt lat="46.82858" lon="5.86542">
        <ele>664.1</ele>
        <time>2020-02-22T13:16:24Z</time>
      </trkpt>
      <trkpt lat="46.82853" lon="5.86539">
        <ele>663.7</ele>
        <time>2020-02-22T13:16:29Z</time>
      </trkpt>
      <trkpt lat="46.82849" lon="5.86535">
        <ele>663.3</ele>
        <time>2020-02-22T13:16:34Z</time>
      </trkpt>
      <trkpt lat="46.82845" lon="5.8653">
        <ele>662.8</ele>
        <time>2020-02-22T13:16:38Z</time>
      </trkpt>
      <trkpt lat="46.8284" lon="5.86527">
        <ele>662</ele>
        <time>2020-02-22T13:16:43Z</time>
      </trkpt>
      <trkpt lat="46.82835" lon="5.86524">
        <ele>661.1</ele>
        <time>2020-02-22T13:16:48Z</time>
      </trkpt>
      <trkpt lat="46.82831" lon="5.86521">
        <ele>660.4</ele>
        <time>2020-02-22T13:16:52Z</time>
      </trkpt>
      <trkpt lat="46.82826" lon="5.86518">
        <ele>659.7</ele>
        <time>2020-02-22T13:16:56Z</time>
      </trkpt>
      <trkpt lat="46.82822" lon="5.86515">
        <ele>659.2</ele>
        <time>2020-02-22T13:17:00Z</time>
      </trkpt>
      <trkpt lat="46.82819" lon="5.8651">
        <ele>658.8</ele>
        <time>2020-02-22T13:17:03Z</time>
      </trkpt>
      <trkpt lat="46.82816" lon="5.86505">
        <ele>658.5</ele>
        <time>2020-02-22T13:17:06Z</time>
      </trkpt>
      <trkpt lat="46.82812" lon="5.865">
        <ele>657.8</ele>
        <time>2020-02-22T13:17:11Z</time>
      </trkpt>
      <trkpt lat="46.82807" lon="5.86497">
        <ele>657.3</ele>
        <time>2020-02-22T13:17:16Z</time>
      </trkpt>
      <trkpt lat="46.82808" lon="5.8649">
        <ele>656.7</ele>
        <time>2020-02-22T13:17:24Z</time>
      </trkpt>
      <trkpt lat="46.8281" lon="5.86484">
        <ele>656.3</ele>
        <time>2020-02-22T13:17:28Z</time>
      </trkpt>
      <trkpt lat="46.82814" lon="5.86478">
        <ele>655.8</ele>
        <time>2020-02-22T13:17:33Z</time>
      </trkpt>
      <trkpt lat="46.82817" lon="5.86471">
        <ele>655.2</ele>
        <time>2020-02-22T13:17:38Z</time>
      </trkpt>
      <trkpt lat="46.8282" lon="5.86465">
        <ele>654.8</ele>
        <time>2020-02-22T13:17:43Z</time>
      </trkpt>
      <trkpt lat="46.82822" lon="5.86459">
        <ele>654.6</ele>
        <time>2020-02-22T13:17:46Z</time>
      </trkpt>
      <trkpt lat="46.82825" lon="5.86453">
        <ele>654.4</ele>
        <time>2020-02-22T13:17:49Z</time>
      </trkpt>
      <trkpt lat="46.82828" lon="5.86447">
        <ele>654.1</ele>
        <time>2020-02-22T13:17:54Z</time>
      </trkpt>
      <trkpt lat="46.82832" lon="5.86442">
        <ele>653.5</ele>
        <time>2020-02-22T13:18:00Z</time>
      </trkpt>
      <trkpt lat="46.82836" lon="5.86438">
        <ele>652.9</ele>
        <time>2020-02-22T13:18:05Z</time>
      </trkpt>
      <trkpt lat="46.8284" lon="5.86434">
        <ele>652.4</ele>
        <time>2020-02-22T13:18:09Z</time>
      </trkpt>
      <trkpt lat="46.82844" lon="5.8643">
        <ele>651.9</ele>
        <time>2020-02-22T13:18:14Z</time>
      </trkpt>
      <trkpt lat="46.82848" lon="5.86426">
        <ele>651.3</ele>
        <time>2020-02-22T13:18:19Z</time>
      </trkpt>
      <trkpt lat="46.82853" lon="5.86421">
        <ele>650.8</ele>
        <time>2020-02-22T13:18:23Z</time>
      </trkpt>
      <trkpt lat="46.82858" lon="5.86418">
        <ele>650.1</ele>
        <time>2020-02-22T13:18:28Z</time>
      </trkpt>
      <trkpt lat="46.82863" lon="5.86415">
        <ele>649.5</ele>
        <time>2020-02-22T13:18:33Z</time>
      </trkpt>
      <trkpt lat="46.82867" lon="5.86413">
        <ele>649.1</ele>
        <time>2020-02-22T13:18:37Z</time>
      </trkpt>
      <trkpt lat="46.82872" lon="5.8641">
        <ele>648.5</ele>
        <time>2020-02-22T13:18:41Z</time>
      </trkpt>
      <trkpt lat="46.82876" lon="5.86408">
        <ele>648.1</ele>
        <time>2020-02-22T13:18:46Z</time>
      </trkpt>
      <trkpt lat="46.82881" lon="5.86406">
        <ele>647.7</ele>
        <time>2020-02-22T13:18:50Z</time>
      </trkpt>
      <trkpt lat="46.82885" lon="5.86402">
        <ele>647.2</ele>
        <time>2020-02-22T13:18:54Z</time>
      </trkpt>
      <trkpt lat="46.8289" lon="5.86399">
        <ele>646.7</ele>
        <time>2020-02-22T13:18:58Z</time>
      </trkpt>
      <trkpt lat="46.82895" lon="5.86395">
        <ele>646.4</ele>
        <time>2020-02-22T13:19:03Z</time>
      </trkpt>
      <trkpt lat="46.829" lon="5.86392">
        <ele>646.3</ele>
        <time>2020-02-22T13:19:07Z</time>
      </trkpt>
      <trkpt lat="46.82904" lon="5.8639">
        <ele>646</ele>
        <time>2020-02-22T13:19:12Z</time>
      </trkpt>
      <trkpt lat="46.82908" lon="5.86388">
        <ele>645.9</ele>
        <time>2020-02-22T13:19:18Z</time>
      </trkpt>
      <trkpt lat="46.82913" lon="5.86386">
        <ele>645.8</ele>
        <time>2020-02-22T13:19:24Z</time>
      </trkpt>
      <trkpt lat="46.82919" lon="5.86384">
        <ele>645.3</ele>
        <time>2020-02-22T13:19:29Z</time>
      </trkpt>
      <trkpt lat="46.82924" lon="5.86382">
        <ele>644.7</ele>
        <time>2020-02-22T13:19:34Z</time>
      </trkpt>
      <trkpt lat="46.82928" lon="5.86379">
        <ele>644</ele>
        <time>2020-02-22T13:19:39Z</time>
      </trkpt>
      <trkpt lat="46.82933" lon="5.86377">
        <ele>643.5</ele>
        <time>2020-02-22T13:19:45Z</time>
      </trkpt>
      <trkpt lat="46.82937" lon="5.86376">
        <ele>643.2</ele>
        <time>2020-02-22T13:19:51Z</time>
      </trkpt>
      <trkpt lat="46.82942" lon="5.86374">
        <ele>643.1</ele>
        <time>2020-02-22T13:19:57Z</time>
      </trkpt>
      <trkpt lat="46.82946" lon="5.86371">
        <ele>642.9</ele>
        <time>2020-02-22T13:20:05Z</time>
      </trkpt>
      <trkpt lat="46.82942" lon="5.86368">
        <ele>642.2</ele>
        <time>2020-02-22T13:20:35Z</time>
      </trkpt>
      <trkpt lat="46.82937" lon="5.86366">
        <ele>641.5</ele>
        <time>2020-02-22T13:20:40Z</time>
      </trkpt>
      <trkpt lat="46.82933" lon="5.86366">
        <ele>640.9</ele>
        <time>2020-02-22T13:20:45Z</time>
      </trkpt>
      <trkpt lat="46.82928" lon="5.86368">
        <ele>640.5</ele>
        <time>2020-02-22T13:20:50Z</time>
      </trkpt>
      <trkpt lat="46.82923" lon="5.86368">
        <ele>640.4</ele>
        <time>2020-02-22T13:20:55Z</time>
      </trkpt>
      <trkpt lat="46.82918" lon="5.86368">
        <ele>640.4</ele>
        <time>2020-02-22T13:21:01Z</time>
      </trkpt>
      <trkpt lat="46.82912" lon="5.86368">
        <ele>640.2</ele>
        <time>2020-02-22T13:21:05Z</time>
      </trkpt>
      <trkpt lat="46.82908" lon="5.86369">
        <ele>640</ele>
        <time>2020-02-22T13:21:10Z</time>
      </trkpt>
      <trkpt lat="46.82902" lon="5.86369">
        <ele>639.5</ele>
        <time>2020-02-22T13:21:16Z</time>
      </trkpt>
      <trkpt lat="46.82897" lon="5.8637">
        <ele>639.1</ele>
        <time>2020-02-22T13:21:20Z</time>
      </trkpt>
      <trkpt lat="46.82892" lon="5.8637">
        <ele>638.7</ele>
        <time>2020-02-22T13:21:24Z</time>
      </trkpt>
      <trkpt lat="46.82888" lon="5.86367">
        <ele>638.2</ele>
        <time>2020-02-22T13:21:29Z</time>
      </trkpt>
      <trkpt lat="46.82886" lon="5.86361">
        <ele>637.5</ele>
        <time>2020-02-22T13:21:35Z</time>
      </trkpt>
      <trkpt lat="46.82888" lon="5.86355">
        <ele>637</ele>
        <time>2020-02-22T13:21:40Z</time>
      </trkpt>
      <trkpt lat="46.82897" lon="5.86348">
        <ele>636.9</ele>
        <time>2020-02-22T13:21:57Z</time>
      </trkpt>
      <trkpt lat="46.829" lon="5.86343">
        <ele>636.8</ele>
        <time>2020-02-22T13:22:03Z</time>
      </trkpt>
      <trkpt lat="46.82901" lon="5.86335">
        <ele>635.7</ele>
        <time>2020-02-22T13:22:19Z</time>
      </trkpt>
      <trkpt lat="46.82901" lon="5.86328">
        <ele>635.3</ele>
        <time>2020-02-22T13:22:24Z</time>
      </trkpt>
      <trkpt lat="46.82902" lon="5.86321">
        <ele>635</ele>
        <time>2020-02-22T13:22:31Z</time>
      </trkpt>
      <trkpt lat="46.82903" lon="5.86315">
        <ele>634.7</ele>
        <time>2020-02-22T13:22:44Z</time>
      </trkpt>
      <trkpt lat="46.82902" lon="5.86308">
        <ele>634.5</ele>
        <time>2020-02-22T13:22:50Z</time>
      </trkpt>
      <trkpt lat="46.82902" lon="5.863">
        <ele>634.5</ele>
        <time>2020-02-22T13:22:55Z</time>
      </trkpt>
      <trkpt lat="46.82903" lon="5.86292">
        <ele>634.4</ele>
        <time>2020-02-22T13:22:59Z</time>
      </trkpt>
      <trkpt lat="46.82903" lon="5.86285">
        <ele>634.4</ele>
        <time>2020-02-22T13:23:04Z</time>
      </trkpt>
      <trkpt lat="46.82904" lon="5.86278">
        <ele>634.6</ele>
        <time>2020-02-22T13:23:10Z</time>
      </trkpt>
      <trkpt lat="46.82904" lon="5.8627">
        <ele>634.5</ele>
        <time>2020-02-22T13:23:16Z</time>
      </trkpt>
      <trkpt lat="46.82905" lon="5.86263">
        <ele>634.3</ele>
        <time>2020-02-22T13:23:23Z</time>
      </trkpt>
      <trkpt lat="46.82906" lon="5.86257">
        <ele>634.4</ele>
        <time>2020-02-22T13:23:32Z</time>
      </trkpt>
      <trkpt lat="46.82906" lon="5.8625">
        <ele>634.6</ele>
        <time>2020-02-22T13:23:43Z</time>
      </trkpt>
      <trkpt lat="46.82909" lon="5.86245">
        <ele>634.9</ele>
        <time>2020-02-22T13:23:47Z</time>
      </trkpt>
      <trkpt lat="46.82913" lon="5.86241">
        <ele>635.4</ele>
        <time>2020-02-22T13:23:52Z</time>
      </trkpt>
      <trkpt lat="46.82916" lon="5.86235">
        <ele>635.8</ele>
        <time>2020-02-22T13:23:57Z</time>
      </trkpt>
      <trkpt lat="46.82917" lon="5.86227">
        <ele>635.9</ele>
        <time>2020-02-22T13:24:03Z</time>
      </trkpt>
      <trkpt lat="46.82916" lon="5.86221">
        <ele>635.9</ele>
        <time>2020-02-22T13:24:07Z</time>
      </trkpt>
      <trkpt lat="46.82914" lon="5.86214">
        <ele>635.9</ele>
        <time>2020-02-22T13:24:11Z</time>
      </trkpt>
      <trkpt lat="46.8291" lon="5.86208">
        <ele>636.2</ele>
        <time>2020-02-22T13:24:16Z</time>
      </trkpt>
      <trkpt lat="46.82906" lon="5.86202">
        <ele>638.9</ele>
        <time>2020-02-22T13:24:56Z</time>
      </trkpt>
      <trkpt lat="46.82904" lon="5.86194">
        <ele>639.9</ele>
        <time>2020-02-22T13:25:06Z</time>
      </trkpt>
      <trkpt lat="46.82901" lon="5.86188">
        <ele>640.2</ele>
        <time>2020-02-22T13:25:09Z</time>
      </trkpt>
      <trkpt lat="46.82897" lon="5.86184">
        <ele>641.1</ele>
        <time>2020-02-22T13:25:15Z</time>
      </trkpt>
      <trkpt lat="46.82895" lon="5.86177">
        <ele>643.1</ele>
        <time>2020-02-22T13:25:25Z</time>
      </trkpt>
      <trkpt lat="46.82891" lon="5.86173">
        <ele>643.9</ele>
        <time>2020-02-22T13:25:31Z</time>
      </trkpt>
      <trkpt lat="46.82887" lon="5.86168">
        <ele>644.7</ele>
        <time>2020-02-22T13:25:38Z</time>
      </trkpt>
      <trkpt lat="46.82884" lon="5.86162">
        <ele>644.7</ele>
        <time>2020-02-22T13:25:44Z</time>
      </trkpt>
      <trkpt lat="46.82881" lon="5.86156">
        <ele>644.9</ele>
        <time>2020-02-22T13:25:51Z</time>
      </trkpt>
      <trkpt lat="46.8288" lon="5.86149">
        <ele>645.3</ele>
        <time>2020-02-22T13:25:57Z</time>
      </trkpt>
      <trkpt lat="46.82879" lon="5.86142">
        <ele>646.9</ele>
        <time>2020-02-22T13:26:08Z</time>
      </trkpt>
      <trkpt lat="46.8287" lon="5.86129">
        <ele>648.8</ele>
        <time>2020-02-22T13:26:20Z</time>
      </trkpt>
      <trkpt lat="46.82867" lon="5.86123">
        <ele>649.1</ele>
        <time>2020-02-22T13:26:23Z</time>
      </trkpt>
      <trkpt lat="46.82864" lon="5.86116">
        <ele>649.4</ele>
        <time>2020-02-22T13:26:26Z</time>
      </trkpt>
      <trkpt lat="46.82863" lon="5.86105">
        <ele>651.8</ele>
        <time>2020-02-22T13:26:48Z</time>
      </trkpt>
      <trkpt lat="46.82856" lon="5.86091">
        <ele>653.9</ele>
        <time>2020-02-22T13:27:17Z</time>
      </trkpt>
      <trkpt lat="46.82854" lon="5.86084">
        <ele>654.5</ele>
        <time>2020-02-22T13:27:23Z</time>
      </trkpt>
      <trkpt lat="46.82849" lon="5.86082">
        <ele>655.8</ele>
        <time>2020-02-22T13:27:37Z</time>
      </trkpt>
      <trkpt lat="46.82854" lon="5.86074">
        <ele>658.2</ele>
        <time>2020-02-22T13:28:08Z</time>
      </trkpt>
      <trkpt lat="46.82863" lon="5.86068">
        <ele>660.7</ele>
        <time>2020-02-22T13:29:01Z</time>
      </trkpt>
      <trkpt lat="46.82869" lon="5.86064">
        <ele>661</ele>
        <time>2020-02-22T13:29:04Z</time>
      </trkpt>
      <trkpt lat="46.82892" lon="5.86047">
        <ele>664.3</ele>
        <time>2020-02-22T13:29:28Z</time>
      </trkpt>
      <trkpt lat="46.82904" lon="5.86032">
        <ele>665.8</ele>
        <time>2020-02-22T13:29:53Z</time>
      </trkpt>
      <trkpt lat="46.82912" lon="5.86016">
        <ele>668.1</ele>
        <time>2020-02-22T13:30:07Z</time>
      </trkpt>
      <trkpt lat="46.82916" lon="5.86012">
        <ele>668.5</ele>
        <time>2020-02-22T13:30:10Z</time>
      </trkpt>
      <trkpt lat="46.8292" lon="5.86004">
        <ele>669.1</ele>
        <time>2020-02-22T13:30:13Z</time>
      </trkpt>
      <trkpt lat="46.82924" lon="5.85997">
        <ele>669.9</ele>
        <time>2020-02-22T13:30:16Z</time>
      </trkpt>
      <trkpt lat="46.82927" lon="5.85991">
        <ele>671.1</ele>
        <time>2020-02-22T13:30:20Z</time>
      </trkpt>
      <trkpt lat="46.82929" lon="5.85984">
        <ele>673.2</ele>
        <time>2020-02-22T13:30:28Z</time>
      </trkpt>
      <trkpt lat="46.82931" lon="5.85978">
        <ele>674.6</ele>
        <time>2020-02-22T13:30:35Z</time>
      </trkpt>
      <trkpt lat="46.82928" lon="5.85971">
        <ele>674.9</ele>
        <time>2020-02-22T13:30:52Z</time>
      </trkpt>
      <trkpt lat="46.82926" lon="5.85965">
        <ele>674.6</ele>
        <time>2020-02-22T13:30:56Z</time>
      </trkpt>
      <trkpt lat="46.82928" lon="5.85955">
        <ele>673.2</ele>
        <time>2020-02-22T13:31:46Z</time>
      </trkpt>
      <trkpt lat="46.82928" lon="5.85948">
        <ele>673.5</ele>
        <time>2020-02-22T13:31:51Z</time>
      </trkpt>
      <trkpt lat="46.82927" lon="5.85941">
        <ele>673.4</ele>
        <time>2020-02-22T13:31:55Z</time>
      </trkpt>
      <trkpt lat="46.82925" lon="5.85935">
        <ele>673.1</ele>
        <time>2020-02-22T13:31:59Z</time>
      </trkpt>
      <trkpt lat="46.82923" lon="5.85928">
        <ele>672.7</ele>
        <time>2020-02-22T13:32:03Z</time>
      </trkpt>
      <trkpt lat="46.8292" lon="5.85922">
        <ele>672.2</ele>
        <time>2020-02-22T13:32:08Z</time>
      </trkpt>
      <trkpt lat="46.82917" lon="5.85914">
        <ele>671.8</ele>
        <time>2020-02-22T13:32:11Z</time>
      </trkpt>
      <trkpt lat="46.82915" lon="5.85908">
        <ele>671.5</ele>
        <time>2020-02-22T13:32:14Z</time>
      </trkpt>
      <trkpt lat="46.82912" lon="5.85902">
        <ele>670.8</ele>
        <time>2020-02-22T13:32:19Z</time>
      </trkpt>
      <trkpt lat="46.82909" lon="5.85897">
        <ele>669.7</ele>
        <time>2020-02-22T13:32:29Z</time>
      </trkpt>
      <trkpt lat="46.82906" lon="5.85891">
        <ele>668.9</ele>
        <time>2020-02-22T13:32:35Z</time>
      </trkpt>
      <trkpt lat="46.82904" lon="5.85884">
        <ele>668.4</ele>
        <time>2020-02-22T13:32:39Z</time>
      </trkpt>
      <trkpt lat="46.82901" lon="5.85878">
        <ele>668</ele>
        <time>2020-02-22T13:32:44Z</time>
      </trkpt>
      <trkpt lat="46.82901" lon="5.85871">
        <ele>667.4</ele>
        <time>2020-02-22T13:32:53Z</time>
      </trkpt>
      <trkpt lat="46.82899" lon="5.85865">
        <ele>666.8</ele>
        <time>2020-02-22T13:32:58Z</time>
      </trkpt>
      <trkpt lat="46.82899" lon="5.85858">
        <ele>666.2</ele>
        <time>2020-02-22T13:33:04Z</time>
      </trkpt>
      <trkpt lat="46.82901" lon="5.85851">
        <ele>665.5</ele>
        <time>2020-02-22T13:33:10Z</time>
      </trkpt>
      <trkpt lat="46.82902" lon="5.85845">
        <ele>664.9</ele>
        <time>2020-02-22T13:33:14Z</time>
      </trkpt>
      <trkpt lat="46.82904" lon="5.85837">
        <ele>664.4</ele>
        <time>2020-02-22T13:33:18Z</time>
      </trkpt>
      <trkpt lat="46.82905" lon="5.8583">
        <ele>664</ele>
        <time>2020-02-22T13:33:23Z</time>
      </trkpt>
      <trkpt lat="46.82907" lon="5.85823">
        <ele>663.6</ele>
        <time>2020-02-22T13:33:27Z</time>
      </trkpt>
      <trkpt lat="46.82908" lon="5.85817">
        <ele>663.2</ele>
        <time>2020-02-22T13:33:32Z</time>
      </trkpt>
      <trkpt lat="46.8291" lon="5.85809">
        <ele>662.8</ele>
        <time>2020-02-22T13:33:38Z</time>
      </trkpt>
      <trkpt lat="46.82912" lon="5.85803">
        <ele>662.1</ele>
        <time>2020-02-22T13:33:45Z</time>
      </trkpt>
      <trkpt lat="46.82914" lon="5.85796">
        <ele>661.6</ele>
        <time>2020-02-22T13:33:51Z</time>
      </trkpt>
      <trkpt lat="46.82914" lon="5.8579">
        <ele>661.3</ele>
        <time>2020-02-22T13:33:57Z</time>
      </trkpt>
      <trkpt lat="46.82915" lon="5.85782">
        <ele>661</ele>
        <time>2020-02-22T13:34:02Z</time>
      </trkpt>
      <trkpt lat="46.82916" lon="5.85775">
        <ele>660.8</ele>
        <time>2020-02-22T13:34:07Z</time>
      </trkpt>
      <trkpt lat="46.82917" lon="5.85768">
        <ele>660.5</ele>
        <time>2020-02-22T13:34:12Z</time>
      </trkpt>
      <trkpt lat="46.82917" lon="5.85761">
        <ele>660.1</ele>
        <time>2020-02-22T13:34:17Z</time>
      </trkpt>
      <trkpt lat="46.82918" lon="5.85753">
        <ele>659.7</ele>
        <time>2020-02-22T13:34:21Z</time>
      </trkpt>
      <trkpt lat="46.82919" lon="5.85745">
        <ele>659.1</ele>
        <time>2020-02-22T13:34:25Z</time>
      </trkpt>
      <trkpt lat="46.82919" lon="5.85738">
        <ele>658.6</ele>
        <time>2020-02-22T13:34:33Z</time>
      </trkpt>
      <trkpt lat="46.8292" lon="5.85731">
        <ele>657.2</ele>
        <time>2020-02-22T13:34:44Z</time>
      </trkpt>
      <trkpt lat="46.82921" lon="5.85723">
        <ele>656.4</ele>
        <time>2020-02-22T13:34:49Z</time>
      </trkpt>
      <trkpt lat="46.82922" lon="5.85716">
        <ele>656.1</ele>
        <time>2020-02-22T13:34:53Z</time>
      </trkpt>
      <trkpt lat="46.82922" lon="5.85708">
        <ele>655.9</ele>
        <time>2020-02-22T13:34:58Z</time>
      </trkpt>
      <trkpt lat="46.82923" lon="5.85701">
        <ele>656.1</ele>
        <time>2020-02-22T13:35:03Z</time>
      </trkpt>
      <trkpt lat="46.82923" lon="5.85695">
        <ele>656.3</ele>
        <time>2020-02-22T13:35:07Z</time>
      </trkpt>
      <trkpt lat="46.82923" lon="5.85687">
        <ele>656.5</ele>
        <time>2020-02-22T13:35:11Z</time>
      </trkpt>
      <trkpt lat="46.82924" lon="5.85681">
        <ele>656.7</ele>
        <time>2020-02-22T13:35:15Z</time>
      </trkpt>
      <trkpt lat="46.82925" lon="5.85673">
        <ele>656.7</ele>
        <time>2020-02-22T13:35:20Z</time>
      </trkpt>
      <trkpt lat="46.82926" lon="5.85665">
        <ele>656.5</ele>
        <time>2020-02-22T13:35:25Z</time>
      </trkpt>
      <trkpt lat="46.82927" lon="5.85659">
        <ele>656.5</ele>
        <time>2020-02-22T13:35:29Z</time>
      </trkpt>
      <trkpt lat="46.8293" lon="5.85652">
        <ele>656.6</ele>
        <time>2020-02-22T13:35:34Z</time>
      </trkpt>
      <trkpt lat="46.82932" lon="5.85645">
        <ele>656.5</ele>
        <time>2020-02-22T13:35:40Z</time>
      </trkpt>
      <trkpt lat="46.82933" lon="5.85638">
        <ele>656.3</ele>
        <time>2020-02-22T13:35:45Z</time>
      </trkpt>
      <trkpt lat="46.82934" lon="5.8563">
        <ele>656</ele>
        <time>2020-02-22T13:35:49Z</time>
      </trkpt>
      <trkpt lat="46.82935" lon="5.85623">
        <ele>655.5</ele>
        <time>2020-02-22T13:35:54Z</time>
      </trkpt>
      <trkpt lat="46.82937" lon="5.85617">
        <ele>655</ele>
        <time>2020-02-22T13:35:59Z</time>
      </trkpt>
      <trkpt lat="46.82939" lon="5.8561">
        <ele>654.5</ele>
        <time>2020-02-22T13:36:05Z</time>
      </trkpt>
      <trkpt lat="46.82941" lon="5.85603">
        <ele>654.4</ele>
        <time>2020-02-22T13:36:10Z</time>
      </trkpt>
      <trkpt lat="46.82941" lon="5.85596">
        <ele>654.3</ele>
        <time>2020-02-22T13:36:14Z</time>
      </trkpt>
      <trkpt lat="46.82943" lon="5.8559">
        <ele>654.4</ele>
        <time>2020-02-22T13:36:19Z</time>
      </trkpt>
      <trkpt lat="46.82945" lon="5.85584">
        <ele>654.6</ele>
        <time>2020-02-22T13:36:24Z</time>
      </trkpt>
      <trkpt lat="46.82948" lon="5.85579">
        <ele>654.6</ele>
        <time>2020-02-22T13:36:29Z</time>
      </trkpt>
      <trkpt lat="46.82952" lon="5.85574">
        <ele>654.7</ele>
        <time>2020-02-22T13:36:34Z</time>
      </trkpt>
      <trkpt lat="46.82956" lon="5.85569">
        <ele>654.6</ele>
        <time>2020-02-22T13:36:40Z</time>
      </trkpt>
      <trkpt lat="46.82959" lon="5.85564">
        <ele>654.5</ele>
        <time>2020-02-22T13:36:45Z</time>
      </trkpt>
      <trkpt lat="46.82961" lon="5.85558">
        <ele>654.4</ele>
        <time>2020-02-22T13:36:51Z</time>
      </trkpt>
      <trkpt lat="46.82963" lon="5.85552">
        <ele>654.6</ele>
        <time>2020-02-22T13:36:56Z</time>
      </trkpt>
      <trkpt lat="46.82966" lon="5.85544">
        <ele>654.9</ele>
        <time>2020-02-22T13:37:01Z</time>
      </trkpt>
      <trkpt lat="46.82968" lon="5.85537">
        <ele>654.9</ele>
        <time>2020-02-22T13:37:05Z</time>
      </trkpt>
      <trkpt lat="46.8297" lon="5.85531">
        <ele>654.7</ele>
        <time>2020-02-22T13:37:11Z</time>
      </trkpt>
      <trkpt lat="46.82971" lon="5.85524">
        <ele>654.4</ele>
        <time>2020-02-22T13:37:15Z</time>
      </trkpt>
      <trkpt lat="46.82973" lon="5.85517">
        <ele>654</ele>
        <time>2020-02-22T13:37:19Z</time>
      </trkpt>
      <trkpt lat="46.82974" lon="5.85511">
        <ele>653.6</ele>
        <time>2020-02-22T13:37:23Z</time>
      </trkpt>
      <trkpt lat="46.82975" lon="5.85504">
        <ele>653.1</ele>
        <time>2020-02-22T13:37:29Z</time>
      </trkpt>
      <trkpt lat="46.82977" lon="5.85497">
        <ele>652.8</ele>
        <time>2020-02-22T13:37:36Z</time>
      </trkpt>
      <trkpt lat="46.82977" lon="5.8549">
        <ele>652.7</ele>
        <time>2020-02-22T13:37:40Z</time>
      </trkpt>
      <trkpt lat="46.82979" lon="5.85483">
        <ele>652.5</ele>
        <time>2020-02-22T13:37:45Z</time>
      </trkpt>
      <trkpt lat="46.82981" lon="5.85476">
        <ele>652.2</ele>
        <time>2020-02-22T13:37:50Z</time>
      </trkpt>
      <trkpt lat="46.82984" lon="5.85469">
        <ele>651.8</ele>
        <time>2020-02-22T13:37:55Z</time>
      </trkpt>
      <trkpt lat="46.82986" lon="5.85463">
        <ele>651.5</ele>
        <time>2020-02-22T13:38:00Z</time>
      </trkpt>
      <trkpt lat="46.82989" lon="5.85458">
        <ele>651.2</ele>
        <time>2020-02-22T13:38:04Z</time>
      </trkpt>
      <trkpt lat="46.82992" lon="5.85452">
        <ele>650.8</ele>
        <time>2020-02-22T13:38:09Z</time>
      </trkpt>
      <trkpt lat="46.82996" lon="5.85448">
        <ele>650.4</ele>
        <time>2020-02-22T13:38:14Z</time>
      </trkpt>
      <trkpt lat="46.82999" lon="5.85442">
        <ele>650.1</ele>
        <time>2020-02-22T13:38:20Z</time>
      </trkpt>
      <trkpt lat="46.83002" lon="5.85435">
        <ele>649.9</ele>
        <time>2020-02-22T13:38:26Z</time>
      </trkpt>
      <trkpt lat="46.83005" lon="5.85429">
        <ele>649.6</ele>
        <time>2020-02-22T13:38:30Z</time>
      </trkpt>
      <trkpt lat="46.83007" lon="5.85422">
        <ele>649.2</ele>
        <time>2020-02-22T13:38:35Z</time>
      </trkpt>
      <trkpt lat="46.83011" lon="5.85417">
        <ele>648.7</ele>
        <time>2020-02-22T13:38:39Z</time>
      </trkpt>
      <trkpt lat="46.83016" lon="5.85412">
        <ele>648.1</ele>
        <time>2020-02-22T13:38:43Z</time>
      </trkpt>
      <trkpt lat="46.8302" lon="5.85409">
        <ele>647.6</ele>
        <time>2020-02-22T13:38:48Z</time>
      </trkpt>
      <trkpt lat="46.83025" lon="5.85408">
        <ele>647.2</ele>
        <time>2020-02-22T13:38:54Z</time>
      </trkpt>
      <trkpt lat="46.8303" lon="5.85409">
        <ele>647.1</ele>
        <time>2020-02-22T13:39:02Z</time>
      </trkpt>
      <trkpt lat="46.83034" lon="5.85413">
        <ele>647.5</ele>
        <time>2020-02-22T13:39:09Z</time>
      </trkpt>
      <trkpt lat="46.8304" lon="5.85414">
        <ele>647.9</ele>
        <time>2020-02-22T13:39:15Z</time>
      </trkpt>
      <trkpt lat="46.83044" lon="5.85417">
        <ele>648.2</ele>
        <time>2020-02-22T13:39:22Z</time>
      </trkpt>
      <trkpt lat="46.83049" lon="5.85419">
        <ele>648.4</ele>
        <time>2020-02-22T13:39:26Z</time>
      </trkpt>
      <trkpt lat="46.83053" lon="5.85423">
        <ele>648.6</ele>
        <time>2020-02-22T13:39:30Z</time>
      </trkpt>
      <trkpt lat="46.83056" lon="5.8543">
        <ele>648.7</ele>
        <time>2020-02-22T13:39:36Z</time>
      </trkpt>
      <trkpt lat="46.83058" lon="5.85436">
        <ele>648.5</ele>
        <time>2020-02-22T13:39:51Z</time>
      </trkpt>
      <trkpt lat="46.83061" lon="5.85441">
        <ele>649</ele>
        <time>2020-02-22T13:40:04Z</time>
      </trkpt>
      <trkpt lat="46.83058" lon="5.85436">
        <ele>651.6</ele>
        <time>2020-02-22T13:40:33Z</time>
      </trkpt>
      <trkpt lat="46.83054" lon="5.8543">
        <ele>652.3</ele>
        <time>2020-02-22T13:40:40Z</time>
      </trkpt>
      <trkpt lat="46.8305" lon="5.85425">
        <ele>652.8</ele>
        <time>2020-02-22T13:40:44Z</time>
      </trkpt>
      <trkpt lat="46.83046" lon="5.8542">
        <ele>653.3</ele>
        <time>2020-02-22T13:40:49Z</time>
      </trkpt>
      <trkpt lat="46.83042" lon="5.85416">
        <ele>653.7</ele>
        <time>2020-02-22T13:40:55Z</time>
      </trkpt>
      <trkpt lat="46.83038" lon="5.85413">
        <ele>653.7</ele>
        <time>2020-02-22T13:41:02Z</time>
      </trkpt>
      <trkpt lat="46.83034" lon="5.85411">
        <ele>653.3</ele>
        <time>2020-02-22T13:41:08Z</time>
      </trkpt>
      <trkpt lat="46.83029" lon="5.85409">
        <ele>652.9</ele>
        <time>2020-02-22T13:41:12Z</time>
      </trkpt>
      <trkpt lat="46.83024" lon="5.85408">
        <ele>652.5</ele>
        <time>2020-02-22T13:41:17Z</time>
      </trkpt>
      <trkpt lat="46.8302" lon="5.85408">
        <ele>651.9</ele>
        <time>2020-02-22T13:41:25Z</time>
      </trkpt>
      <trkpt lat="46.83017" lon="5.85402">
        <ele>651.6</ele>
        <time>2020-02-22T13:41:32Z</time>
      </trkpt>
      <trkpt lat="46.83018" lon="5.85395">
        <ele>651.3</ele>
        <time>2020-02-22T13:41:36Z</time>
      </trkpt>
      <trkpt lat="46.83019" lon="5.85388">
        <ele>651</ele>
        <time>2020-02-22T13:41:40Z</time>
      </trkpt>
      <trkpt lat="46.8302" lon="5.85381">
        <ele>650.5</ele>
        <time>2020-02-22T13:41:45Z</time>
      </trkpt>
      <trkpt lat="46.83022" lon="5.85375">
        <ele>650.2</ele>
        <time>2020-02-22T13:41:50Z</time>
      </trkpt>
      <trkpt lat="46.83024" lon="5.85368">
        <ele>650</ele>
        <time>2020-02-22T13:41:55Z</time>
      </trkpt>
      <trkpt lat="46.83026" lon="5.85361">
        <ele>649.8</ele>
        <time>2020-02-22T13:42:00Z</time>
      </trkpt>
      <trkpt lat="46.83028" lon="5.85354">
        <ele>649.5</ele>
        <time>2020-02-22T13:42:05Z</time>
      </trkpt>
      <trkpt lat="46.83029" lon="5.85347">
        <ele>649.1</ele>
        <time>2020-02-22T13:42:09Z</time>
      </trkpt>
      <trkpt lat="46.83031" lon="5.85341">
        <ele>647.6</ele>
        <time>2020-02-22T13:42:19Z</time>
      </trkpt>
      <trkpt lat="46.83032" lon="5.85334">
        <ele>646.1</ele>
        <time>2020-02-22T13:42:30Z</time>
      </trkpt>
      <trkpt lat="46.83032" lon="5.85327">
        <ele>645.5</ele>
        <time>2020-02-22T13:42:35Z</time>
      </trkpt>
      <trkpt lat="46.83032" lon="5.8532">
        <ele>644.8</ele>
        <time>2020-02-22T13:42:40Z</time>
      </trkpt>
      <trkpt lat="46.83034" lon="5.85313">
        <ele>644.2</ele>
        <time>2020-02-22T13:42:46Z</time>
      </trkpt>
      <trkpt lat="46.83034" lon="5.85306">
        <ele>643.6</ele>
        <time>2020-02-22T13:42:51Z</time>
      </trkpt>
      <trkpt lat="46.83033" lon="5.85298">
        <ele>643.1</ele>
        <time>2020-02-22T13:42:56Z</time>
      </trkpt>
      <trkpt lat="46.83034" lon="5.8529">
        <ele>642.8</ele>
        <time>2020-02-22T13:42:59Z</time>
      </trkpt>
      <trkpt lat="46.83035" lon="5.85283">
        <ele>642.5</ele>
        <time>2020-02-22T13:43:03Z</time>
      </trkpt>
      <trkpt lat="46.83036" lon="5.85275">
        <ele>642.4</ele>
        <time>2020-02-22T13:43:08Z</time>
      </trkpt>
      <trkpt lat="46.83036" lon="5.85268">
        <ele>642.4</ele>
        <time>2020-02-22T13:43:13Z</time>
      </trkpt>
      <trkpt lat="46.83036" lon="5.8526">
        <ele>642.6</ele>
        <time>2020-02-22T13:43:17Z</time>
      </trkpt>
      <trkpt lat="46.83035" lon="5.85253">
        <ele>643</ele>
        <time>2020-02-22T13:43:21Z</time>
      </trkpt>
      <trkpt lat="46.83035" lon="5.85245">
        <ele>643.4</ele>
        <time>2020-02-22T13:43:25Z</time>
      </trkpt>
      <trkpt lat="46.83034" lon="5.85238">
        <ele>644</ele>
        <time>2020-02-22T13:43:29Z</time>
      </trkpt>
      <trkpt lat="46.83034" lon="5.85231">
        <ele>644.7</ele>
        <time>2020-02-22T13:43:34Z</time>
      </trkpt>
      <trkpt lat="46.83036" lon="5.85224">
        <ele>645.5</ele>
        <time>2020-02-22T13:43:39Z</time>
      </trkpt>
      <trkpt lat="46.83036" lon="5.85217">
        <ele>646.1</ele>
        <time>2020-02-22T13:43:44Z</time>
      </trkpt>
      <trkpt lat="46.83037" lon="5.8521">
        <ele>646.6</ele>
        <time>2020-02-22T13:43:48Z</time>
      </trkpt>
      <trkpt lat="46.83038" lon="5.85204">
        <ele>646.7</ele>
        <time>2020-02-22T13:43:52Z</time>
      </trkpt>
      <trkpt lat="46.83039" lon="5.85197">
        <ele>646.8</ele>
        <time>2020-02-22T13:43:58Z</time>
      </trkpt>
      <trkpt lat="46.83039" lon="5.8519">
        <ele>646.4</ele>
        <time>2020-02-22T13:44:31Z</time>
      </trkpt>
      <trkpt lat="46.8304" lon="5.85183">
        <ele>646.4</ele>
        <time>2020-02-22T13:44:36Z</time>
      </trkpt>
      <trkpt lat="46.8304" lon="5.85176">
        <ele>646.3</ele>
        <time>2020-02-22T13:44:40Z</time>
      </trkpt>
      <trkpt lat="46.8304" lon="5.85169">
        <ele>646.2</ele>
        <time>2020-02-22T13:44:44Z</time>
      </trkpt>
      <trkpt lat="46.83041" lon="5.85161">
        <ele>646.3</ele>
        <time>2020-02-22T13:44:48Z</time>
      </trkpt>
      <trkpt lat="46.83041" lon="5.85154">
        <ele>646.3</ele>
        <time>2020-02-22T13:44:52Z</time>
      </trkpt>
      <trkpt lat="46.83042" lon="5.85147">
        <ele>646.2</ele>
        <time>2020-02-22T13:44:56Z</time>
      </trkpt>
      <trkpt lat="46.83043" lon="5.85139">
        <ele>645.8</ele>
        <time>2020-02-22T13:45:01Z</time>
      </trkpt>
      <trkpt lat="46.83046" lon="5.85133">
        <ele>645.4</ele>
        <time>2020-02-22T13:45:06Z</time>
      </trkpt>
      <trkpt lat="46.83049" lon="5.85126">
        <ele>645</ele>
        <time>2020-02-22T13:45:11Z</time>
      </trkpt>
      <trkpt lat="46.83052" lon="5.8512">
        <ele>644.5</ele>
        <time>2020-02-22T13:45:15Z</time>
      </trkpt>
      <trkpt lat="46.83054" lon="5.85113">
        <ele>644</ele>
        <time>2020-02-22T13:45:20Z</time>
      </trkpt>
      <trkpt lat="46.83056" lon="5.85107">
        <ele>643.7</ele>
        <time>2020-02-22T13:45:24Z</time>
      </trkpt>
      <trkpt lat="46.83058" lon="5.851">
        <ele>643.4</ele>
        <time>2020-02-22T13:45:29Z</time>
      </trkpt>
      <trkpt lat="46.8306" lon="5.85094">
        <ele>643.2</ele>
        <time>2020-02-22T13:45:33Z</time>
      </trkpt>
      <trkpt lat="46.83063" lon="5.85088">
        <ele>643.1</ele>
        <time>2020-02-22T13:45:37Z</time>
      </trkpt>
      <trkpt lat="46.83067" lon="5.85083">
        <ele>643</ele>
        <time>2020-02-22T13:45:41Z</time>
      </trkpt>
      <trkpt lat="46.8307" lon="5.85078">
        <ele>643</ele>
        <time>2020-02-22T13:45:49Z</time>
      </trkpt>
      <trkpt lat="46.83074" lon="5.85075">
        <ele>641.7</ele>
        <time>2020-02-22T13:46:10Z</time>
      </trkpt>
      <trkpt lat="46.83079" lon="5.85072">
        <ele>640.9</ele>
        <time>2020-02-22T13:46:15Z</time>
      </trkpt>
      <trkpt lat="46.83084" lon="5.8507">
        <ele>640.2</ele>
        <time>2020-02-22T13:46:20Z</time>
      </trkpt>
      <trkpt lat="46.83088" lon="5.85067">
        <ele>639.8</ele>
        <time>2020-02-22T13:46:25Z</time>
      </trkpt>
      <trkpt lat="46.83092" lon="5.85063">
        <ele>639.4</ele>
        <time>2020-02-22T13:46:29Z</time>
      </trkpt>
      <trkpt lat="46.83097" lon="5.8506">
        <ele>639</ele>
        <time>2020-02-22T13:46:33Z</time>
      </trkpt>
      <trkpt lat="46.83101" lon="5.85058">
        <ele>638.7</ele>
        <time>2020-02-22T13:46:37Z</time>
      </trkpt>
      <trkpt lat="46.83106" lon="5.85057">
        <ele>638.4</ele>
        <time>2020-02-22T13:46:42Z</time>
      </trkpt>
      <trkpt lat="46.83111" lon="5.85054">
        <ele>638.3</ele>
        <time>2020-02-22T13:46:47Z</time>
      </trkpt>
      <trkpt lat="46.83115" lon="5.85053">
        <ele>638</ele>
        <time>2020-02-22T13:46:53Z</time>
      </trkpt>
      <trkpt lat="46.8312" lon="5.85051">
        <ele>637.1</ele>
        <time>2020-02-22T13:46:59Z</time>
      </trkpt>
      <trkpt lat="46.83124" lon="5.85049">
        <ele>636.3</ele>
        <time>2020-02-22T13:47:05Z</time>
      </trkpt>
      <trkpt lat="46.83129" lon="5.85045">
        <ele>635.4</ele>
        <time>2020-02-22T13:47:12Z</time>
      </trkpt>
      <trkpt lat="46.83132" lon="5.8504">
        <ele>634.9</ele>
        <time>2020-02-22T13:47:16Z</time>
      </trkpt>
      <trkpt lat="46.83135" lon="5.85034">
        <ele>634.3</ele>
        <time>2020-02-22T13:47:20Z</time>
      </trkpt>
      <trkpt lat="46.83137" lon="5.85026">
        <ele>633.7</ele>
        <time>2020-02-22T13:47:25Z</time>
      </trkpt>
      <trkpt lat="46.8314" lon="5.8502">
        <ele>633.2</ele>
        <time>2020-02-22T13:47:29Z</time>
      </trkpt>
      <trkpt lat="46.83142" lon="5.85014">
        <ele>632.8</ele>
        <time>2020-02-22T13:47:33Z</time>
      </trkpt>
      <trkpt lat="46.83144" lon="5.85008">
        <ele>632.2</ele>
        <time>2020-02-22T13:47:37Z</time>
      </trkpt>
      <trkpt lat="46.83146" lon="5.85">
        <ele>631.5</ele>
        <time>2020-02-22T13:47:41Z</time>
      </trkpt>
      <trkpt lat="46.83148" lon="5.84993">
        <ele>630.9</ele>
        <time>2020-02-22T13:47:45Z</time>
      </trkpt>
      <trkpt lat="46.83148" lon="5.84986">
        <ele>630.1</ele>
        <time>2020-02-22T13:47:51Z</time>
      </trkpt>
      <trkpt lat="46.83149" lon="5.84978">
        <ele>629.3</ele>
        <time>2020-02-22T13:47:57Z</time>
      </trkpt>
      <trkpt lat="46.83149" lon="5.84972">
        <ele>628.5</ele>
        <time>2020-02-22T13:48:02Z</time>
      </trkpt>
      <trkpt lat="46.83149" lon="5.84964">
        <ele>627.7</ele>
        <time>2020-02-22T13:48:07Z</time>
      </trkpt>
      <trkpt lat="46.8315" lon="5.84957">
        <ele>627.1</ele>
        <time>2020-02-22T13:48:12Z</time>
      </trkpt>
      <trkpt lat="46.8315" lon="5.8495">
        <ele>626.6</ele>
        <time>2020-02-22T13:48:16Z</time>
      </trkpt>
      <trkpt lat="46.83151" lon="5.84942">
        <ele>626.2</ele>
        <time>2020-02-22T13:48:20Z</time>
      </trkpt>
      <trkpt lat="46.83151" lon="5.84935">
        <ele>625.9</ele>
        <time>2020-02-22T13:48:24Z</time>
      </trkpt>
      <trkpt lat="46.83151" lon="5.84928">
        <ele>625.9</ele>
        <time>2020-02-22T13:48:28Z</time>
      </trkpt>
      <trkpt lat="46.83153" lon="5.8492">
        <ele>626</ele>
        <time>2020-02-22T13:48:32Z</time>
      </trkpt>
      <trkpt lat="46.83154" lon="5.84914">
        <ele>626.2</ele>
        <time>2020-02-22T13:48:36Z</time>
      </trkpt>
      <trkpt lat="46.83157" lon="5.84906">
        <ele>626.3</ele>
        <time>2020-02-22T13:48:40Z</time>
      </trkpt>
      <trkpt lat="46.8316" lon="5.84899">
        <ele>626.3</ele>
        <time>2020-02-22T13:48:44Z</time>
      </trkpt>
      <trkpt lat="46.83163" lon="5.84893">
        <ele>626.1</ele>
        <time>2020-02-22T13:48:48Z</time>
      </trkpt>
      <trkpt lat="46.83166" lon="5.84886">
        <ele>625.8</ele>
        <time>2020-02-22T13:48:53Z</time>
      </trkpt>
      <trkpt lat="46.83168" lon="5.84879">
        <ele>625.4</ele>
        <time>2020-02-22T13:48:58Z</time>
      </trkpt>
      <trkpt lat="46.8317" lon="5.84872">
        <ele>625</ele>
        <time>2020-02-22T13:49:03Z</time>
      </trkpt>
      <trkpt lat="46.83172" lon="5.84866">
        <ele>624.4</ele>
        <time>2020-02-22T13:49:08Z</time>
      </trkpt>
      <trkpt lat="46.83176" lon="5.8486">
        <ele>624.1</ele>
        <time>2020-02-22T13:49:13Z</time>
      </trkpt>
      <trkpt lat="46.83179" lon="5.84855">
        <ele>624</ele>
        <time>2020-02-22T13:49:18Z</time>
      </trkpt>
      <trkpt lat="46.83182" lon="5.84849">
        <ele>624</ele>
        <time>2020-02-22T13:49:23Z</time>
      </trkpt>
      <trkpt lat="46.83185" lon="5.84844">
        <ele>624.1</ele>
        <time>2020-02-22T13:49:27Z</time>
      </trkpt>
      <trkpt lat="46.83189" lon="5.84839">
        <ele>624.2</ele>
        <time>2020-02-22T13:49:33Z</time>
      </trkpt>
      <trkpt lat="46.83193" lon="5.84834">
        <ele>624.3</ele>
        <time>2020-02-22T13:49:37Z</time>
      </trkpt>
      <trkpt lat="46.83197" lon="5.84829">
        <ele>624.5</ele>
        <time>2020-02-22T13:49:41Z</time>
      </trkpt>
      <trkpt lat="46.832" lon="5.84824">
        <ele>624.8</ele>
        <time>2020-02-22T13:49:46Z</time>
      </trkpt>
      <trkpt lat="46.83204" lon="5.84817">
        <ele>625.3</ele>
        <time>2020-02-22T13:50:46Z</time>
      </trkpt>
      <trkpt lat="46.83206" lon="5.84811">
        <ele>625.2</ele>
        <time>2020-02-22T13:50:51Z</time>
      </trkpt>
      <trkpt lat="46.83207" lon="5.84803">
        <ele>625</ele>
        <time>2020-02-22T13:50:56Z</time>
      </trkpt>
      <trkpt lat="46.83208" lon="5.84795">
        <ele>624.9</ele>
        <time>2020-02-22T13:51:03Z</time>
      </trkpt>
      <trkpt lat="46.8321" lon="5.84789">
        <ele>625.3</ele>
        <time>2020-02-22T13:51:09Z</time>
      </trkpt>
      <trkpt lat="46.8321" lon="5.84783">
        <ele>625.6</ele>
        <time>2020-02-22T13:51:17Z</time>
      </trkpt>
      <trkpt lat="46.8321" lon="5.84775">
        <ele>625.7</ele>
        <time>2020-02-22T13:51:25Z</time>
      </trkpt>
      <trkpt lat="46.83212" lon="5.84768">
        <ele>625.8</ele>
        <time>2020-02-22T13:51:30Z</time>
      </trkpt>
      <trkpt lat="46.83215" lon="5.84764">
        <ele>625.6</ele>
        <time>2020-02-22T13:51:36Z</time>
      </trkpt>
      <trkpt lat="46.83223" lon="5.84759">
        <ele>625.2</ele>
        <time>2020-02-22T13:51:48Z</time>
      </trkpt>
      <trkpt lat="46.83227" lon="5.84756">
        <ele>624.8</ele>
        <time>2020-02-22T13:51:53Z</time>
      </trkpt>
      <trkpt lat="46.83231" lon="5.84753">
        <ele>624.4</ele>
        <time>2020-02-22T13:51:57Z</time>
      </trkpt>
      <trkpt lat="46.83236" lon="5.84752">
        <ele>623.9</ele>
        <time>2020-02-22T13:52:03Z</time>
      </trkpt>
      <trkpt lat="46.83241" lon="5.84753">
        <ele>623.4</ele>
        <time>2020-02-22T13:52:08Z</time>
      </trkpt>
      <trkpt lat="46.83245" lon="5.84755">
        <ele>622.9</ele>
        <time>2020-02-22T13:52:13Z</time>
      </trkpt>
      <trkpt lat="46.8325" lon="5.84757">
        <ele>621.8</ele>
        <time>2020-02-22T13:52:21Z</time>
      </trkpt>
      <trkpt lat="46.83254" lon="5.8476">
        <ele>621.5</ele>
        <time>2020-02-22T13:52:25Z</time>
      </trkpt>
      <trkpt lat="46.8326" lon="5.84759">
        <ele>621.4</ele>
        <time>2020-02-22T13:52:32Z</time>
      </trkpt>
      <trkpt lat="46.83271" lon="5.84755">
        <ele>622.5</ele>
        <time>2020-02-22T13:52:43Z</time>
      </trkpt>
      <trkpt lat="46.83276" lon="5.84753">
        <ele>622.6</ele>
        <time>2020-02-22T13:52:48Z</time>
      </trkpt>
      <trkpt lat="46.83281" lon="5.84752">
        <ele>623.2</ele>
        <time>2020-02-22T13:52:56Z</time>
      </trkpt>
      <trkpt lat="46.83286" lon="5.84751">
        <ele>623.8</ele>
        <time>2020-02-22T13:53:01Z</time>
      </trkpt>
      <trkpt lat="46.83292" lon="5.84747">
        <ele>624.9</ele>
        <time>2020-02-22T13:53:08Z</time>
      </trkpt>
      <trkpt lat="46.83295" lon="5.84741">
        <ele>625.1</ele>
        <time>2020-02-22T13:53:10Z</time>
      </trkpt>
      <trkpt lat="46.83297" lon="5.84735">
        <ele>625.6</ele>
        <time>2020-02-22T13:53:13Z</time>
      </trkpt>
      <trkpt lat="46.83301" lon="5.84729">
        <ele>626.3</ele>
        <time>2020-02-22T13:53:17Z</time>
      </trkpt>
      <trkpt lat="46.83314" lon="5.84725">
        <ele>629.1</ele>
        <time>2020-02-22T13:53:35Z</time>
      </trkpt>
      <trkpt lat="46.83319" lon="5.84724">
        <ele>631.1</ele>
        <time>2020-02-22T13:53:50Z</time>
      </trkpt>
      <trkpt lat="46.83324" lon="5.84723">
        <ele>631.4</ele>
        <time>2020-02-22T13:53:53Z</time>
      </trkpt>
      <trkpt lat="46.83333" lon="5.84717">
        <ele>632.9</ele>
        <time>2020-02-22T13:54:05Z</time>
      </trkpt>
      <trkpt lat="46.83337" lon="5.84712">
        <ele>633.3</ele>
        <time>2020-02-22T13:54:14Z</time>
      </trkpt>
      <trkpt lat="46.83341" lon="5.84708">
        <ele>633.3</ele>
        <time>2020-02-22T13:54:20Z</time>
      </trkpt>
      <trkpt lat="46.83348" lon="5.847">
        <ele>633</ele>
        <time>2020-02-22T13:54:43Z</time>
      </trkpt>
      <trkpt lat="46.83352" lon="5.84687">
        <ele>633.1</ele>
        <time>2020-02-22T13:54:50Z</time>
      </trkpt>
      <trkpt lat="46.83357" lon="5.84682">
        <ele>632.6</ele>
        <time>2020-02-22T13:55:50Z</time>
      </trkpt>
      <trkpt lat="46.83364" lon="5.84681">
        <ele>633.1</ele>
        <time>2020-02-22T13:55:58Z</time>
      </trkpt>
      <trkpt lat="46.83403" lon="5.84652">
        <ele>637.9</ele>
        <time>2020-02-22T13:57:54Z</time>
      </trkpt>
      <trkpt lat="46.83416" lon="5.84652">
        <ele>637.3</ele>
        <time>2020-02-22T13:58:42Z</time>
      </trkpt>
      <trkpt lat="46.83421" lon="5.84649">
        <ele>636.6</ele>
        <time>2020-02-22T13:58:52Z</time>
      </trkpt>
      <trkpt lat="46.83425" lon="5.84645">
        <ele>636.5</ele>
        <time>2020-02-22T13:58:56Z</time>
      </trkpt>
      <trkpt lat="46.8343" lon="5.84644">
        <ele>636.4</ele>
        <time>2020-02-22T13:59:02Z</time>
      </trkpt>
      <trkpt lat="46.83435" lon="5.84646">
        <ele>636.2</ele>
        <time>2020-02-22T13:59:07Z</time>
      </trkpt>
      <trkpt lat="46.83439" lon="5.84647">
        <ele>635.8</ele>
        <time>2020-02-22T13:59:11Z</time>
      </trkpt>
      <trkpt lat="46.83447" lon="5.84657">
        <ele>634.7</ele>
        <time>2020-02-22T13:59:30Z</time>
      </trkpt>
      <trkpt lat="46.8345" lon="5.84663">
        <ele>634.2</ele>
        <time>2020-02-22T13:59:37Z</time>
      </trkpt>
      <trkpt lat="46.83453" lon="5.84676">
        <ele>633.4</ele>
        <time>2020-02-22T13:59:53Z</time>
      </trkpt>
      <trkpt lat="46.83455" lon="5.84682">
        <ele>633.4</ele>
        <time>2020-02-22T13:59:55Z</time>
      </trkpt>
      <trkpt lat="46.83459" lon="5.84687">
        <ele>633.5</ele>
        <time>2020-02-22T13:59:58Z</time>
      </trkpt>
      <trkpt lat="46.83463" lon="5.84689">
        <ele>632.8</ele>
        <time>2020-02-22T14:00:11Z</time>
      </trkpt>
      <trkpt lat="46.83465" lon="5.84695">
        <ele>631.8</ele>
        <time>2020-02-22T14:00:16Z</time>
      </trkpt>
      <trkpt lat="46.83465" lon="5.84702">
        <ele>631.1</ele>
        <time>2020-02-22T14:00:20Z</time>
      </trkpt>
      <trkpt lat="46.83467" lon="5.84709">
        <ele>630.2</ele>
        <time>2020-02-22T14:00:26Z</time>
      </trkpt>
      <trkpt lat="46.83469" lon="5.84716">
        <ele>629.5</ele>
        <time>2020-02-22T14:00:32Z</time>
      </trkpt>
      <trkpt lat="46.83471" lon="5.84722">
        <ele>629.2</ele>
        <time>2020-02-22T14:00:37Z</time>
      </trkpt>
      <trkpt lat="46.83472" lon="5.8473">
        <ele>629.1</ele>
        <time>2020-02-22T14:00:42Z</time>
      </trkpt>
      <trkpt lat="46.83472" lon="5.84736">
        <ele>629</ele>
        <time>2020-02-22T14:00:47Z</time>
      </trkpt>
      <trkpt lat="46.83472" lon="5.84743">
        <ele>628.9</ele>
        <time>2020-02-22T14:00:52Z</time>
      </trkpt>
      <trkpt lat="46.83476" lon="5.84748">
        <ele>629.1</ele>
        <time>2020-02-22T14:00:59Z</time>
      </trkpt>
      <trkpt lat="46.8348" lon="5.8475">
        <ele>630.4</ele>
        <time>2020-02-22T14:01:19Z</time>
      </trkpt>
      <trkpt lat="46.83485" lon="5.84748">
        <ele>630.5</ele>
        <time>2020-02-22T14:01:23Z</time>
      </trkpt>
      <trkpt lat="46.8349" lon="5.84746">
        <ele>630.4</ele>
        <time>2020-02-22T14:01:30Z</time>
      </trkpt>
      <trkpt lat="46.83494" lon="5.84744">
        <ele>630.3</ele>
        <time>2020-02-22T14:01:36Z</time>
      </trkpt>
      <trkpt lat="46.835" lon="5.84743">
        <ele>630.1</ele>
        <time>2020-02-22T14:01:42Z</time>
      </trkpt>
      <trkpt lat="46.83504" lon="5.84742">
        <ele>630.2</ele>
        <time>2020-02-22T14:01:46Z</time>
      </trkpt>
      <trkpt lat="46.83509" lon="5.84739">
        <ele>630.2</ele>
        <time>2020-02-22T14:01:49Z</time>
      </trkpt>
      <trkpt lat="46.83513" lon="5.84735">
        <ele>630.1</ele>
        <time>2020-02-22T14:01:52Z</time>
      </trkpt>
      <trkpt lat="46.83517" lon="5.8473">
        <ele>630</ele>
        <time>2020-02-22T14:01:57Z</time>
      </trkpt>
      <trkpt lat="46.83522" lon="5.84726">
        <ele>630</ele>
        <time>2020-02-22T14:02:01Z</time>
      </trkpt>
      <trkpt lat="46.83526" lon="5.84721">
        <ele>630.2</ele>
        <time>2020-02-22T14:02:06Z</time>
      </trkpt>
      <trkpt lat="46.8353" lon="5.84716">
        <ele>630.3</ele>
        <time>2020-02-22T14:02:10Z</time>
      </trkpt>
      <trkpt lat="46.83534" lon="5.84713">
        <ele>630.5</ele>
        <time>2020-02-22T14:02:14Z</time>
      </trkpt>
      <trkpt lat="46.83538" lon="5.84709">
        <ele>630.6</ele>
        <time>2020-02-22T14:02:19Z</time>
      </trkpt>
      <trkpt lat="46.83543" lon="5.84705">
        <ele>630.8</ele>
        <time>2020-02-22T14:02:24Z</time>
      </trkpt>
      <trkpt lat="46.83548" lon="5.84702">
        <ele>631.2</ele>
        <time>2020-02-22T14:02:30Z</time>
      </trkpt>
      <trkpt lat="46.83553" lon="5.84698">
        <ele>631.4</ele>
        <time>2020-02-22T14:02:36Z</time>
      </trkpt>
      <trkpt lat="46.83556" lon="5.84693">
        <ele>631.6</ele>
        <time>2020-02-22T14:02:41Z</time>
      </trkpt>
      <trkpt lat="46.8356" lon="5.84688">
        <ele>631.8</ele>
        <time>2020-02-22T14:02:45Z</time>
      </trkpt>
      <trkpt lat="46.83564" lon="5.84683">
        <ele>631.9</ele>
        <time>2020-02-22T14:02:50Z</time>
      </trkpt>
      <trkpt lat="46.83568" lon="5.84679">
        <ele>631.8</ele>
        <time>2020-02-22T14:02:55Z</time>
      </trkpt>
      <trkpt lat="46.83572" lon="5.84676">
        <ele>631.4</ele>
        <time>2020-02-22T14:03:01Z</time>
      </trkpt>
      <trkpt lat="46.83576" lon="5.84672">
        <ele>631.2</ele>
        <time>2020-02-22T14:03:09Z</time>
      </trkpt>
      <trkpt lat="46.83581" lon="5.84671">
        <ele>631.2</ele>
        <time>2020-02-22T14:03:16Z</time>
      </trkpt>
      <trkpt lat="46.83585" lon="5.84668">
        <ele>631.2</ele>
        <time>2020-02-22T14:03:19Z</time>
      </trkpt>
      <trkpt lat="46.8359" lon="5.84666">
        <ele>631.3</ele>
        <time>2020-02-22T14:03:22Z</time>
      </trkpt>
      <trkpt lat="46.83595" lon="5.84665">
        <ele>631.5</ele>
        <time>2020-02-22T14:03:26Z</time>
      </trkpt>
      <trkpt lat="46.836" lon="5.84662">
        <ele>631.7</ele>
        <time>2020-02-22T14:03:31Z</time>
      </trkpt>
      <trkpt lat="46.83604" lon="5.84659">
        <ele>631.6</ele>
        <time>2020-02-22T14:03:36Z</time>
      </trkpt>
      <trkpt lat="46.83608" lon="5.84655">
        <ele>631.3</ele>
        <time>2020-02-22T14:03:42Z</time>
      </trkpt>
      <trkpt lat="46.83611" lon="5.84649">
        <ele>630.7</ele>
        <time>2020-02-22T14:03:50Z</time>
      </trkpt>
      <trkpt lat="46.83616" lon="5.84647">
        <ele>630.5</ele>
        <time>2020-02-22T14:03:54Z</time>
      </trkpt>
      <trkpt lat="46.8362" lon="5.84644">
        <ele>630</ele>
        <time>2020-02-22T14:04:00Z</time>
      </trkpt>
      <trkpt lat="46.83624" lon="5.84639">
        <ele>629.6</ele>
        <time>2020-02-22T14:04:04Z</time>
      </trkpt>
      <trkpt lat="46.83629" lon="5.84636">
        <ele>628.9</ele>
        <time>2020-02-22T14:04:10Z</time>
      </trkpt>
      <trkpt lat="46.83637" lon="5.84625">
        <ele>627.3</ele>
        <time>2020-02-22T14:04:20Z</time>
      </trkpt>
      <trkpt lat="46.8364" lon="5.84619">
        <ele>626.6</ele>
        <time>2020-02-22T14:04:25Z</time>
      </trkpt>
      <trkpt lat="46.83645" lon="5.84615">
        <ele>625.7</ele>
        <time>2020-02-22T14:04:30Z</time>
      </trkpt>
      <trkpt lat="46.83648" lon="5.84609">
        <ele>624.8</ele>
        <time>2020-02-22T14:04:37Z</time>
      </trkpt>
      <trkpt lat="46.83653" lon="5.84601">
        <ele>624.3</ele>
        <time>2020-02-22T14:04:40Z</time>
      </trkpt>
      <trkpt lat="46.83656" lon="5.84594">
        <ele>624</ele>
        <time>2020-02-22T14:04:44Z</time>
      </trkpt>
      <trkpt lat="46.83659" lon="5.84588">
        <ele>623.8</ele>
        <time>2020-02-22T14:04:50Z</time>
      </trkpt>
      <trkpt lat="46.83663" lon="5.84585">
        <ele>624.5</ele>
        <time>2020-02-22T14:04:58Z</time>
      </trkpt>
      <trkpt lat="46.83668" lon="5.84581">
        <ele>625.4</ele>
        <time>2020-02-22T14:05:04Z</time>
      </trkpt>
      <trkpt lat="46.83672" lon="5.84578">
        <ele>626.4</ele>
        <time>2020-02-22T14:05:12Z</time>
      </trkpt>
      <trkpt lat="46.8368" lon="5.84582">
        <ele>628.4</ele>
        <time>2020-02-22T14:06:24Z</time>
      </trkpt>
      <trkpt lat="46.83683" lon="5.84587">
        <ele>628.8</ele>
        <time>2020-02-22T14:06:32Z</time>
      </trkpt>
      <trkpt lat="46.83688" lon="5.84591">
        <ele>628.7</ele>
        <time>2020-02-22T14:06:37Z</time>
      </trkpt>
      <trkpt lat="46.8369" lon="5.84598">
        <ele>628.7</ele>
        <time>2020-02-22T14:06:41Z</time>
      </trkpt>
      <trkpt lat="46.83695" lon="5.84624">
        <ele>635</ele>
        <time>2020-02-22T14:08:32Z</time>
      </trkpt>
      <trkpt lat="46.83695" lon="5.84631">
        <ele>636.2</ele>
        <time>2020-02-22T14:08:40Z</time>
      </trkpt>
      <trkpt lat="46.83698" lon="5.84629">
        <ele>637.1</ele>
        <time>2020-02-22T14:09:07Z</time>
      </trkpt>
      <trkpt lat="46.8369" lon="5.84608">
        <ele>632.8</ele>
        <time>2020-02-22T14:09:45Z</time>
      </trkpt>
      <trkpt lat="46.8368" lon="5.8459">
        <ele>630.1</ele>
        <time>2020-02-22T14:10:04Z</time>
      </trkpt>
      <trkpt lat="46.83678" lon="5.84584">
        <ele>629.1</ele>
        <time>2020-02-22T14:10:11Z</time>
      </trkpt>
      <trkpt lat="46.83681" lon="5.84579">
        <ele>628.5</ele>
        <time>2020-02-22T14:10:15Z</time>
      </trkpt>
      <trkpt lat="46.83682" lon="5.84571">
        <ele>628.2</ele>
        <time>2020-02-22T14:10:18Z</time>
      </trkpt>
      <trkpt lat="46.83686" lon="5.84566">
        <ele>628</ele>
        <time>2020-02-22T14:10:25Z</time>
      </trkpt>
      <trkpt lat="46.8369" lon="5.84561">
        <ele>627.9</ele>
        <time>2020-02-22T14:10:28Z</time>
      </trkpt>
      <trkpt lat="46.83693" lon="5.84556">
        <ele>627.2</ele>
        <time>2020-02-22T14:10:34Z</time>
      </trkpt>
      <trkpt lat="46.83698" lon="5.84551">
        <ele>626.8</ele>
        <time>2020-02-22T14:10:37Z</time>
      </trkpt>
      <trkpt lat="46.837" lon="5.84545">
        <ele>626.4</ele>
        <time>2020-02-22T14:10:40Z</time>
      </trkpt>
      <trkpt lat="46.83708" lon="5.84535">
        <ele>624.1</ele>
        <time>2020-02-22T14:10:52Z</time>
      </trkpt>
      <trkpt lat="46.83712" lon="5.84534">
        <ele>623.4</ele>
        <time>2020-02-22T14:10:56Z</time>
      </trkpt>
      <trkpt lat="46.83718" lon="5.8453">
        <ele>621.8</ele>
        <time>2020-02-22T14:11:08Z</time>
      </trkpt>
      <trkpt lat="46.83723" lon="5.84528">
        <ele>621.1</ele>
        <time>2020-02-22T14:11:15Z</time>
      </trkpt>
      <trkpt lat="46.83752" lon="5.84523">
        <ele>619.4</ele>
        <time>2020-02-22T14:11:38Z</time>
      </trkpt>
      <trkpt lat="46.83757" lon="5.84525">
        <ele>619.5</ele>
        <time>2020-02-22T14:11:41Z</time>
      </trkpt>
      <trkpt lat="46.83762" lon="5.84524">
        <ele>619.9</ele>
        <time>2020-02-22T14:11:47Z</time>
      </trkpt>
      <trkpt lat="46.83766" lon="5.84522">
        <ele>620.4</ele>
        <time>2020-02-22T14:11:56Z</time>
      </trkpt>
      <trkpt lat="46.83772" lon="5.84523">
        <ele>620.6</ele>
        <time>2020-02-22T14:12:00Z</time>
      </trkpt>
      <trkpt lat="46.83778" lon="5.84523">
        <ele>620.8</ele>
        <time>2020-02-22T14:12:03Z</time>
      </trkpt>
      <trkpt lat="46.83787" lon="5.84521">
        <ele>622.4</ele>
        <time>2020-02-22T14:12:15Z</time>
      </trkpt>
      <trkpt lat="46.83792" lon="5.8452">
        <ele>623</ele>
        <time>2020-02-22T14:12:19Z</time>
      </trkpt>
      <trkpt lat="46.83797" lon="5.84518">
        <ele>623.3</ele>
        <time>2020-02-22T14:12:21Z</time>
      </trkpt>
      <trkpt lat="46.83802" lon="5.84518">
        <ele>624.4</ele>
        <time>2020-02-22T14:12:28Z</time>
      </trkpt>
      <trkpt lat="46.83807" lon="5.84517">
        <ele>625</ele>
        <time>2020-02-22T14:12:32Z</time>
      </trkpt>
      <trkpt lat="46.83812" lon="5.84516">
        <ele>625.6</ele>
        <time>2020-02-22T14:12:37Z</time>
      </trkpt>
      <trkpt lat="46.83817" lon="5.84515">
        <ele>626</ele>
        <time>2020-02-22T14:12:40Z</time>
      </trkpt>
      <trkpt lat="46.83826" lon="5.84508">
        <ele>627.2</ele>
        <time>2020-02-22T14:13:02Z</time>
      </trkpt>
      <trkpt lat="46.8383" lon="5.84503">
        <ele>626.7</ele>
        <time>2020-02-22T14:13:07Z</time>
      </trkpt>
      <trkpt lat="46.83833" lon="5.84497">
        <ele>626.4</ele>
        <time>2020-02-22T14:13:12Z</time>
      </trkpt>
      <trkpt lat="46.83838" lon="5.84494">
        <ele>625.9</ele>
        <time>2020-02-22T14:13:17Z</time>
      </trkpt>
      <trkpt lat="46.83847" lon="5.84486">
        <ele>624.9</ele>
        <time>2020-02-22T14:13:26Z</time>
      </trkpt>
      <trkpt lat="46.83853" lon="5.84471">
        <ele>624.2</ele>
        <time>2020-02-22T14:13:45Z</time>
      </trkpt>
      <trkpt lat="46.83858" lon="5.84469">
        <ele>624.1</ele>
        <time>2020-02-22T14:13:49Z</time>
      </trkpt>
      <trkpt lat="46.83866" lon="5.84467">
        <ele>623</ele>
        <time>2020-02-22T14:14:06Z</time>
      </trkpt>
      <trkpt lat="46.8387" lon="5.84466">
        <ele>623.2</ele>
        <time>2020-02-22T14:14:15Z</time>
      </trkpt>
      <trkpt lat="46.83875" lon="5.84468">
        <ele>623.2</ele>
        <time>2020-02-22T14:14:21Z</time>
      </trkpt>
      <trkpt lat="46.83881" lon="5.84469">
        <ele>623.1</ele>
        <time>2020-02-22T14:14:25Z</time>
      </trkpt>
      <trkpt lat="46.83887" lon="5.84471">
        <ele>622.6</ele>
        <time>2020-02-22T14:14:32Z</time>
      </trkpt>
      <trkpt lat="46.83892" lon="5.84471">
        <ele>622.2</ele>
        <time>2020-02-22T14:14:38Z</time>
      </trkpt>
      <trkpt lat="46.83897" lon="5.84472">
        <ele>622.3</ele>
        <time>2020-02-22T14:14:43Z</time>
      </trkpt>
      <trkpt lat="46.83902" lon="5.84472">
        <ele>622.7</ele>
        <time>2020-02-22T14:14:52Z</time>
      </trkpt>
      <trkpt lat="46.83907" lon="5.84472">
        <ele>622.8</ele>
        <time>2020-02-22T14:14:57Z</time>
      </trkpt>
      <trkpt lat="46.83912" lon="5.84473">
        <ele>622.6</ele>
        <time>2020-02-22T14:15:04Z</time>
      </trkpt>
      <trkpt lat="46.83917" lon="5.84472">
        <ele>622.4</ele>
        <time>2020-02-22T14:15:06Z</time>
      </trkpt>
      <trkpt lat="46.83922" lon="5.84472">
        <ele>622.1</ele>
        <time>2020-02-22T14:15:11Z</time>
      </trkpt>
      <trkpt lat="46.83923" lon="5.84479">
        <ele>620.7</ele>
        <time>2020-02-22T14:15:22Z</time>
      </trkpt>
      <trkpt lat="46.83921" lon="5.84485">
        <ele>619.9</ele>
        <time>2020-02-22T14:15:27Z</time>
      </trkpt>
      <trkpt lat="46.83926" lon="5.84488">
        <ele>618</ele>
        <time>2020-02-22T14:15:39Z</time>
      </trkpt>
      <trkpt lat="46.83931" lon="5.84489">
        <ele>617.6</ele>
        <time>2020-02-22T14:15:43Z</time>
      </trkpt>
      <trkpt lat="46.83936" lon="5.84489">
        <ele>617.4</ele>
        <time>2020-02-22T14:15:46Z</time>
      </trkpt>
      <trkpt lat="46.83943" lon="5.84497">
        <ele>619.7</ele>
        <time>2020-02-22T14:16:33Z</time>
      </trkpt>
      <trkpt lat="46.83952" lon="5.84515">
        <ele>620.2</ele>
        <time>2020-02-22T14:16:53Z</time>
      </trkpt>
      <trkpt lat="46.83954" lon="5.8452">
        <ele>620.3</ele>
        <time>2020-02-22T14:17:08Z</time>
      </trkpt>
      <trkpt lat="46.83953" lon="5.84529">
        <ele>620.9</ele>
        <time>2020-02-22T14:17:18Z</time>
      </trkpt>
      <trkpt lat="46.83956" lon="5.84535">
        <ele>621.1</ele>
        <time>2020-02-22T14:17:20Z</time>
      </trkpt>
      <trkpt lat="46.83959" lon="5.8454">
        <ele>621.4</ele>
        <time>2020-02-22T14:17:23Z</time>
      </trkpt>
      <trkpt lat="46.83966" lon="5.84556">
        <ele>622.4</ele>
        <time>2020-02-22T14:17:33Z</time>
      </trkpt>
      <trkpt lat="46.83969" lon="5.84564">
        <ele>622.8</ele>
        <time>2020-02-22T14:17:39Z</time>
      </trkpt>
      <trkpt lat="46.83972" lon="5.8457">
        <ele>623.3</ele>
        <time>2020-02-22T14:17:43Z</time>
      </trkpt>
      <trkpt lat="46.83975" lon="5.84575">
        <ele>624.3</ele>
        <time>2020-02-22T14:17:51Z</time>
      </trkpt>
      <trkpt lat="46.83979" lon="5.8458">
        <ele>624.8</ele>
        <time>2020-02-22T14:17:55Z</time>
      </trkpt>
      <trkpt lat="46.83982" lon="5.84586">
        <ele>625.3</ele>
        <time>2020-02-22T14:17:58Z</time>
      </trkpt>
      <trkpt lat="46.83982" lon="5.84594">
        <ele>625.8</ele>
        <time>2020-02-22T14:18:01Z</time>
      </trkpt>
      <trkpt lat="46.83983" lon="5.84601">
        <ele>626.2</ele>
        <time>2020-02-22T14:18:05Z</time>
      </trkpt>
      <trkpt lat="46.83987" lon="5.84607">
        <ele>626.5</ele>
        <time>2020-02-22T14:18:09Z</time>
      </trkpt>
      <trkpt lat="46.83991" lon="5.84613">
        <ele>626.6</ele>
        <time>2020-02-22T14:18:12Z</time>
      </trkpt>
      <trkpt lat="46.83994" lon="5.84618">
        <ele>626.7</ele>
        <time>2020-02-22T14:18:17Z</time>
      </trkpt>
      <trkpt lat="46.83996" lon="5.84625">
        <ele>626.8</ele>
        <time>2020-02-22T14:18:26Z</time>
      </trkpt>
      <trkpt lat="46.83999" lon="5.8463">
        <ele>626.9</ele>
        <time>2020-02-22T14:18:34Z</time>
      </trkpt>
      <trkpt lat="46.84003" lon="5.84635">
        <ele>627.1</ele>
        <time>2020-02-22T14:18:40Z</time>
      </trkpt>
      <trkpt lat="46.84005" lon="5.84643">
        <ele>627.1</ele>
        <time>2020-02-22T14:18:46Z</time>
      </trkpt>
      <trkpt lat="46.84006" lon="5.8465">
        <ele>627.2</ele>
        <time>2020-02-22T14:18:50Z</time>
      </trkpt>
      <trkpt lat="46.84008" lon="5.84657">
        <ele>627.4</ele>
        <time>2020-02-22T14:18:57Z</time>
      </trkpt>
      <trkpt lat="46.84008" lon="5.84664">
        <ele>627.7</ele>
        <time>2020-02-22T14:19:01Z</time>
      </trkpt>
      <trkpt lat="46.84007" lon="5.84671">
        <ele>628</ele>
        <time>2020-02-22T14:19:10Z</time>
      </trkpt>
      <trkpt lat="46.8401" lon="5.84676">
        <ele>626.1</ele>
        <time>2020-02-22T14:19:27Z</time>
      </trkpt>
      <trkpt lat="46.84009" lon="5.84683">
        <ele>624.8</ele>
        <time>2020-02-22T14:19:38Z</time>
      </trkpt>
      <trkpt lat="46.84012" lon="5.8469">
        <ele>624</ele>
        <time>2020-02-22T14:19:46Z</time>
      </trkpt>
      <trkpt lat="46.84012" lon="5.84696">
        <ele>623.2</ele>
        <time>2020-02-22T14:19:53Z</time>
      </trkpt>
      <trkpt lat="46.84015" lon="5.84703">
        <ele>622.8</ele>
        <time>2020-02-22T14:19:57Z</time>
      </trkpt>
      <trkpt lat="46.84013" lon="5.8471">
        <ele>622.1</ele>
        <time>2020-02-22T14:20:03Z</time>
      </trkpt>
      <trkpt lat="46.84017" lon="5.84715">
        <ele>621.8</ele>
        <time>2020-02-22T14:20:07Z</time>
      </trkpt>
      <trkpt lat="46.84021" lon="5.8472">
        <ele>621.7</ele>
        <time>2020-02-22T14:20:10Z</time>
      </trkpt>
      <trkpt lat="46.84023" lon="5.84726">
        <ele>621.7</ele>
        <time>2020-02-22T14:20:14Z</time>
      </trkpt>
      <trkpt lat="46.84023" lon="5.84733">
        <ele>621.6</ele>
        <time>2020-02-22T14:20:19Z</time>
      </trkpt>
      <trkpt lat="46.84025" lon="5.84739">
        <ele>621.8</ele>
        <time>2020-02-22T14:20:28Z</time>
      </trkpt>
      <trkpt lat="46.84028" lon="5.84745">
        <ele>622.5</ele>
        <time>2020-02-22T14:20:36Z</time>
      </trkpt>
      <trkpt lat="46.84031" lon="5.8475">
        <ele>622.9</ele>
        <time>2020-02-22T14:20:41Z</time>
      </trkpt>
      <trkpt lat="46.84035" lon="5.84755">
        <ele>623.3</ele>
        <time>2020-02-22T14:20:46Z</time>
      </trkpt>
      <trkpt lat="46.84038" lon="5.84761">
        <ele>623.7</ele>
        <time>2020-02-22T14:20:52Z</time>
      </trkpt>
      <trkpt lat="46.84041" lon="5.84766">
        <ele>624.1</ele>
        <time>2020-02-22T14:20:57Z</time>
      </trkpt>
      <trkpt lat="46.84046" lon="5.84768">
        <ele>624.5</ele>
        <time>2020-02-22T14:21:02Z</time>
      </trkpt>
      <trkpt lat="46.8405" lon="5.84774">
        <ele>624.9</ele>
        <time>2020-02-22T14:21:06Z</time>
      </trkpt>
      <trkpt lat="46.84052" lon="5.8478">
        <ele>625.3</ele>
        <time>2020-02-22T14:21:10Z</time>
      </trkpt>
      <trkpt lat="46.84055" lon="5.84787">
        <ele>625.9</ele>
        <time>2020-02-22T14:21:16Z</time>
      </trkpt>
      <trkpt lat="46.84057" lon="5.84793">
        <ele>626.3</ele>
        <time>2020-02-22T14:21:20Z</time>
      </trkpt>
      <trkpt lat="46.8406" lon="5.84799">
        <ele>626.7</ele>
        <time>2020-02-22T14:21:24Z</time>
      </trkpt>
      <trkpt lat="46.84063" lon="5.84805">
        <ele>627.1</ele>
        <time>2020-02-22T14:21:29Z</time>
      </trkpt>
      <trkpt lat="46.84066" lon="5.8481">
        <ele>627.8</ele>
        <time>2020-02-22T14:21:36Z</time>
      </trkpt>
      <trkpt lat="46.84072" lon="5.8481">
        <ele>631.8</ele>
        <time>2020-02-22T14:22:06Z</time>
      </trkpt>
      <trkpt lat="46.84071" lon="5.84818">
        <ele>633.6</ele>
        <time>2020-02-22T14:22:37Z</time>
      </trkpt>
      <trkpt lat="46.84074" lon="5.84823">
        <ele>634.3</ele>
        <time>2020-02-22T14:22:49Z</time>
      </trkpt>
      <trkpt lat="46.84077" lon="5.84829">
        <ele>634.4</ele>
        <time>2020-02-22T14:22:54Z</time>
      </trkpt>
      <trkpt lat="46.8408" lon="5.84834">
        <ele>635.4</ele>
        <time>2020-02-22T14:23:05Z</time>
      </trkpt>
      <trkpt lat="46.84083" lon="5.8484">
        <ele>636.2</ele>
        <time>2020-02-22T14:23:11Z</time>
      </trkpt>
      <trkpt lat="46.84086" lon="5.84846">
        <ele>636.7</ele>
        <time>2020-02-22T14:23:18Z</time>
      </trkpt>
      <trkpt lat="46.84089" lon="5.84851">
        <ele>636.8</ele>
        <time>2020-02-22T14:23:27Z</time>
      </trkpt>
      <trkpt lat="46.8409" lon="5.84859">
        <ele>637.2</ele>
        <time>2020-02-22T14:23:34Z</time>
      </trkpt>
      <trkpt lat="46.84093" lon="5.84865">
        <ele>637.3</ele>
        <time>2020-02-22T14:23:38Z</time>
      </trkpt>
      <trkpt lat="46.84095" lon="5.84872">
        <ele>637.5</ele>
        <time>2020-02-22T14:23:44Z</time>
      </trkpt>
      <trkpt lat="46.84098" lon="5.84878">
        <ele>637.5</ele>
        <time>2020-02-22T14:23:49Z</time>
      </trkpt>
      <trkpt lat="46.84102" lon="5.84884">
        <ele>637.6</ele>
        <time>2020-02-22T14:23:54Z</time>
      </trkpt>
      <trkpt lat="46.84104" lon="5.8489">
        <ele>637.8</ele>
        <time>2020-02-22T14:24:00Z</time>
      </trkpt>
      <trkpt lat="46.84106" lon="5.84897">
        <ele>638.2</ele>
        <time>2020-02-22T14:24:05Z</time>
      </trkpt>
      <trkpt lat="46.84107" lon="5.84904">
        <ele>638.7</ele>
        <time>2020-02-22T14:24:11Z</time>
      </trkpt>
      <trkpt lat="46.84107" lon="5.84911">
        <ele>639.4</ele>
        <time>2020-02-22T14:24:17Z</time>
      </trkpt>
      <trkpt lat="46.84107" lon="5.84918">
        <ele>640</ele>
        <time>2020-02-22T14:24:23Z</time>
      </trkpt>
      <trkpt lat="46.84109" lon="5.84924">
        <ele>640.5</ele>
        <time>2020-02-22T14:24:30Z</time>
      </trkpt>
      <trkpt lat="46.84111" lon="5.84931">
        <ele>640.5</ele>
        <time>2020-02-22T14:24:36Z</time>
      </trkpt>
      <trkpt lat="46.84115" lon="5.84937">
        <ele>639.9</ele>
        <time>2020-02-22T14:24:45Z</time>
      </trkpt>
      <trkpt lat="46.84117" lon="5.84944">
        <ele>639.5</ele>
        <time>2020-02-22T14:24:51Z</time>
      </trkpt>
      <trkpt lat="46.84119" lon="5.84949">
        <ele>639.1</ele>
        <time>2020-02-22T14:24:55Z</time>
      </trkpt>
      <trkpt lat="46.84121" lon="5.84956">
        <ele>638.3</ele>
        <time>2020-02-22T14:25:02Z</time>
      </trkpt>
      <trkpt lat="46.84124" lon="5.84961">
        <ele>637.4</ele>
        <time>2020-02-22T14:25:08Z</time>
      </trkpt>
      <trkpt lat="46.84125" lon="5.84967">
        <ele>636.4</ele>
        <time>2020-02-22T14:25:14Z</time>
      </trkpt>
      <trkpt lat="46.8413" lon="5.84972">
        <ele>635.7</ele>
        <time>2020-02-22T14:25:22Z</time>
      </trkpt>
      <trkpt lat="46.84126" lon="5.84976">
        <ele>634.2</ele>
        <time>2020-02-22T14:25:37Z</time>
      </trkpt>
      <trkpt lat="46.84122" lon="5.84979">
        <ele>634</ele>
        <time>2020-02-22T14:25:45Z</time>
      </trkpt>
      <trkpt lat="46.84117" lon="5.84982">
        <ele>634.1</ele>
        <time>2020-02-22T14:26:02Z</time>
      </trkpt>
      <trkpt lat="46.84108" lon="5.84981">
        <ele>634.8</ele>
        <time>2020-02-22T14:26:17Z</time>
      </trkpt>
      <trkpt lat="46.84102" lon="5.84981">
        <ele>634.9</ele>
        <time>2020-02-22T14:26:19Z</time>
      </trkpt>
      <trkpt lat="46.84096" lon="5.84982">
        <ele>635.2</ele>
        <time>2020-02-22T14:26:21Z</time>
      </trkpt>
      <trkpt lat="46.84092" lon="5.84984">
        <ele>635.6</ele>
        <time>2020-02-22T14:26:23Z</time>
      </trkpt>
      <trkpt lat="46.84087" lon="5.84987">
        <ele>636.6</ele>
        <time>2020-02-22T14:26:27Z</time>
      </trkpt>
      <trkpt lat="46.84084" lon="5.84992">
        <ele>638.4</ele>
        <time>2020-02-22T14:26:34Z</time>
      </trkpt>
      <trkpt lat="46.8408" lon="5.84996">
        <ele>639.6</ele>
        <time>2020-02-22T14:26:39Z</time>
      </trkpt>
      <trkpt lat="46.84077" lon="5.85001">
        <ele>640.1</ele>
        <time>2020-02-22T14:26:42Z</time>
      </trkpt>
      <trkpt lat="46.84073" lon="5.85005">
        <ele>640.9</ele>
        <time>2020-02-22T14:26:49Z</time>
      </trkpt>
      <trkpt lat="46.84068" lon="5.85004">
        <ele>640.8</ele>
        <time>2020-02-22T14:27:08Z</time>
      </trkpt>
      <trkpt lat="46.84064" lon="5.85003">
        <ele>640.2</ele>
        <time>2020-02-22T14:27:17Z</time>
      </trkpt>
      <trkpt lat="46.8406" lon="5.85006">
        <ele>639.8</ele>
        <time>2020-02-22T14:27:27Z</time>
      </trkpt>
      <trkpt lat="46.84056" lon="5.85014">
        <ele>629.2</ele>
        <time>2020-02-22T14:28:35Z</time>
      </trkpt>
      <trkpt lat="46.84053" lon="5.8502">
        <ele>630</ele>
        <time>2020-02-22T14:28:44Z</time>
      </trkpt>
      <trkpt lat="46.84055" lon="5.85027">
        <ele>630.8</ele>
        <time>2020-02-22T14:28:52Z</time>
      </trkpt>
      <trkpt lat="46.84057" lon="5.85033">
        <ele>630.8</ele>
        <time>2020-02-22T14:28:58Z</time>
      </trkpt>
      <trkpt lat="46.84059" lon="5.85038">
        <ele>630.9</ele>
        <time>2020-02-22T14:29:03Z</time>
      </trkpt>
      <trkpt lat="46.84061" lon="5.85045">
        <ele>631.4</ele>
        <time>2020-02-22T14:29:10Z</time>
      </trkpt>
      <trkpt lat="46.84064" lon="5.8505">
        <ele>632</ele>
        <time>2020-02-22T14:29:14Z</time>
      </trkpt>
      <trkpt lat="46.84066" lon="5.85056">
        <ele>632.7</ele>
        <time>2020-02-22T14:29:19Z</time>
      </trkpt>
      <trkpt lat="46.84069" lon="5.85062">
        <ele>633.2</ele>
        <time>2020-02-22T14:29:26Z</time>
      </trkpt>
      <trkpt lat="46.84071" lon="5.85068">
        <ele>633.3</ele>
        <time>2020-02-22T14:29:32Z</time>
      </trkpt>
      <trkpt lat="46.84072" lon="5.85075">
        <ele>633.2</ele>
        <time>2020-02-22T14:29:38Z</time>
      </trkpt>
      <trkpt lat="46.84074" lon="5.85081">
        <ele>633.7</ele>
        <time>2020-02-22T14:29:53Z</time>
      </trkpt>
      <trkpt lat="46.84073" lon="5.85087">
        <ele>633.6</ele>
        <time>2020-02-22T14:30:09Z</time>
      </trkpt>
      <trkpt lat="46.84076" lon="5.85093">
        <ele>633.2</ele>
        <time>2020-02-22T14:30:15Z</time>
      </trkpt>
      <trkpt lat="46.84079" lon="5.85101">
        <ele>632.9</ele>
        <time>2020-02-22T14:30:22Z</time>
      </trkpt>
      <trkpt lat="46.84081" lon="5.85106">
        <ele>633.1</ele>
        <time>2020-02-22T14:30:32Z</time>
      </trkpt>
      <trkpt lat="46.84075" lon="5.85113">
        <ele>636.1</ele>
        <time>2020-02-22T14:30:53Z</time>
      </trkpt>
      <trkpt lat="46.84061" lon="5.85121">
        <ele>639.1</ele>
        <time>2020-02-22T14:31:14Z</time>
      </trkpt>
      <trkpt lat="46.84072" lon="5.85122">
        <ele>639.2</ele>
        <time>2020-02-22T14:31:48Z</time>
      </trkpt>
      <trkpt lat="46.84077" lon="5.8512">
        <ele>639</ele>
        <time>2020-02-22T14:31:50Z</time>
      </trkpt>
      <trkpt lat="46.84087" lon="5.85125">
        <ele>638.3</ele>
        <time>2020-02-22T14:32:08Z</time>
      </trkpt>
      <trkpt lat="46.84093" lon="5.85141">
        <ele>637.9</ele>
        <time>2020-02-22T14:32:15Z</time>
      </trkpt>
      <trkpt lat="46.84092" lon="5.85148">
        <ele>637.5</ele>
        <time>2020-02-22T14:32:25Z</time>
      </trkpt>
      <trkpt lat="46.84092" lon="5.85155">
        <ele>637.4</ele>
        <time>2020-02-22T14:32:27Z</time>
      </trkpt>
      <trkpt lat="46.84094" lon="5.85162">
        <ele>637.4</ele>
        <time>2020-02-22T14:32:30Z</time>
      </trkpt>
      <trkpt lat="46.84096" lon="5.85168">
        <ele>637.4</ele>
        <time>2020-02-22T14:32:33Z</time>
      </trkpt>
      <trkpt lat="46.84096" lon="5.85175">
        <ele>637.4</ele>
        <time>2020-02-22T14:32:36Z</time>
      </trkpt>
      <trkpt lat="46.84097" lon="5.85182">
        <ele>636.9</ele>
        <time>2020-02-22T14:32:45Z</time>
      </trkpt>
      <trkpt lat="46.84096" lon="5.8519">
        <ele>636.4</ele>
        <time>2020-02-22T14:32:53Z</time>
      </trkpt>
      <trkpt lat="46.84095" lon="5.85196">
        <ele>636.3</ele>
        <time>2020-02-22T14:32:57Z</time>
      </trkpt>
      <trkpt lat="46.84095" lon="5.85204">
        <ele>636.2</ele>
        <time>2020-02-22T14:33:02Z</time>
      </trkpt>
      <trkpt lat="46.84097" lon="5.85211">
        <ele>636.1</ele>
        <time>2020-02-22T14:33:06Z</time>
      </trkpt>
      <trkpt lat="46.84095" lon="5.85218">
        <ele>636</ele>
        <time>2020-02-22T14:33:11Z</time>
      </trkpt>
      <trkpt lat="46.84096" lon="5.85226">
        <ele>636</ele>
        <time>2020-02-22T14:33:13Z</time>
      </trkpt>
      <trkpt lat="46.84096" lon="5.85234">
        <ele>635.9</ele>
        <time>2020-02-22T14:33:16Z</time>
      </trkpt>
      <trkpt lat="46.84098" lon="5.85243">
        <ele>635.7</ele>
        <time>2020-02-22T14:33:22Z</time>
      </trkpt>
      <trkpt lat="46.841" lon="5.85265">
        <ele>636.1</ele>
        <time>2020-02-22T14:33:33Z</time>
      </trkpt>
      <trkpt lat="46.84099" lon="5.85272">
        <ele>636.5</ele>
        <time>2020-02-22T14:33:38Z</time>
      </trkpt>
      <trkpt lat="46.84096" lon="5.85278">
        <ele>637</ele>
        <time>2020-02-22T14:33:43Z</time>
      </trkpt>
      <trkpt lat="46.84092" lon="5.85282">
        <ele>637.4</ele>
        <time>2020-02-22T14:33:47Z</time>
      </trkpt>
      <trkpt lat="46.84089" lon="5.85287">
        <ele>637.6</ele>
        <time>2020-02-22T14:33:53Z</time>
      </trkpt>
      <trkpt lat="46.84086" lon="5.85293">
        <ele>637.6</ele>
        <time>2020-02-22T14:34:01Z</time>
      </trkpt>
      <trkpt lat="46.84085" lon="5.85301">
        <ele>639</ele>
        <time>2020-02-22T14:34:11Z</time>
      </trkpt>
      <trkpt lat="46.84083" lon="5.85307">
        <ele>640.3</ele>
        <time>2020-02-22T14:34:18Z</time>
      </trkpt>
      <trkpt lat="46.84083" lon="5.85314">
        <ele>640.6</ele>
        <time>2020-02-22T14:34:22Z</time>
      </trkpt>
      <trkpt lat="46.84082" lon="5.85322">
        <ele>640.8</ele>
        <time>2020-02-22T14:34:27Z</time>
      </trkpt>
      <trkpt lat="46.84082" lon="5.85329">
        <ele>640.8</ele>
        <time>2020-02-22T14:34:33Z</time>
      </trkpt>
      <trkpt lat="46.84086" lon="5.85346">
        <ele>639.7</ele>
        <time>2020-02-22T14:35:06Z</time>
      </trkpt>
      <trkpt lat="46.84087" lon="5.85354">
        <ele>639.1</ele>
        <time>2020-02-22T14:35:10Z</time>
      </trkpt>
      <trkpt lat="46.84086" lon="5.85361">
        <ele>638.6</ele>
        <time>2020-02-22T14:35:13Z</time>
      </trkpt>
      <trkpt lat="46.84087" lon="5.85368">
        <ele>638</ele>
        <time>2020-02-22T14:35:16Z</time>
      </trkpt>
      <trkpt lat="46.8409" lon="5.85373">
        <ele>637.3</ele>
        <time>2020-02-22T14:35:21Z</time>
      </trkpt>
      <trkpt lat="46.84095" lon="5.85375">
        <ele>636.8</ele>
        <time>2020-02-22T14:35:25Z</time>
      </trkpt>
      <trkpt lat="46.84098" lon="5.85381">
        <ele>636.5</ele>
        <time>2020-02-22T14:35:32Z</time>
      </trkpt>
      <trkpt lat="46.84099" lon="5.85388">
        <ele>636.1</ele>
        <time>2020-02-22T14:35:36Z</time>
      </trkpt>
      <trkpt lat="46.841" lon="5.85396">
        <ele>635.6</ele>
        <time>2020-02-22T14:35:41Z</time>
      </trkpt>
      <trkpt lat="46.841" lon="5.85404">
        <ele>635.2</ele>
        <time>2020-02-22T14:35:46Z</time>
      </trkpt>
      <trkpt lat="46.84101" lon="5.85411">
        <ele>634.9</ele>
        <time>2020-02-22T14:35:51Z</time>
      </trkpt>
      <trkpt lat="46.84102" lon="5.85418">
        <ele>634.7</ele>
        <time>2020-02-22T14:35:56Z</time>
      </trkpt>
      <trkpt lat="46.84106" lon="5.85421">
        <ele>634.4</ele>
        <time>2020-02-22T14:36:02Z</time>
      </trkpt>
      <trkpt lat="46.84111" lon="5.85424">
        <ele>634.1</ele>
        <time>2020-02-22T14:36:07Z</time>
      </trkpt>
      <trkpt lat="46.84113" lon="5.85431">
        <ele>633.9</ele>
        <time>2020-02-22T14:36:13Z</time>
      </trkpt>
      <trkpt lat="46.84115" lon="5.85438">
        <ele>633.9</ele>
        <time>2020-02-22T14:36:18Z</time>
      </trkpt>
      <trkpt lat="46.84117" lon="5.85445">
        <ele>634</ele>
        <time>2020-02-22T14:36:25Z</time>
      </trkpt>
      <trkpt lat="46.84118" lon="5.85451">
        <ele>634.3</ele>
        <time>2020-02-22T14:36:31Z</time>
      </trkpt>
      <trkpt lat="46.84115" lon="5.85457">
        <ele>634.6</ele>
        <time>2020-02-22T14:36:38Z</time>
      </trkpt>
      <trkpt lat="46.84111" lon="5.85462">
        <ele>634.9</ele>
        <time>2020-02-22T14:36:44Z</time>
      </trkpt>
      <trkpt lat="46.84109" lon="5.85468">
        <ele>635.7</ele>
        <time>2020-02-22T14:36:52Z</time>
      </trkpt>
      <trkpt lat="46.8411" lon="5.85475">
        <ele>636.4</ele>
        <time>2020-02-22T14:37:01Z</time>
      </trkpt>
      <trkpt lat="46.8411" lon="5.85482">
        <ele>636.6</ele>
        <time>2020-02-22T14:37:09Z</time>
      </trkpt>
      <trkpt lat="46.84108" lon="5.85489">
        <ele>636.6</ele>
        <time>2020-02-22T14:37:15Z</time>
      </trkpt>
      <trkpt lat="46.84107" lon="5.85495">
        <ele>636.6</ele>
        <time>2020-02-22T14:37:21Z</time>
      </trkpt>
      <trkpt lat="46.84107" lon="5.85502">
        <ele>636.3</ele>
        <time>2020-02-22T14:37:29Z</time>
      </trkpt>
      <trkpt lat="46.84104" lon="5.85509">
        <ele>636.2</ele>
        <time>2020-02-22T14:37:35Z</time>
      </trkpt>
      <trkpt lat="46.84102" lon="5.85527">
        <ele>633.9</ele>
        <time>2020-02-22T14:37:55Z</time>
      </trkpt>
      <trkpt lat="46.841" lon="5.85538">
        <ele>633.5</ele>
        <time>2020-02-22T14:38:05Z</time>
      </trkpt>
      <trkpt lat="46.841" lon="5.85546">
        <ele>633.9</ele>
        <time>2020-02-22T14:38:09Z</time>
      </trkpt>
      <trkpt lat="46.84103" lon="5.85553">
        <ele>634.5</ele>
        <time>2020-02-22T14:38:13Z</time>
      </trkpt>
      <trkpt lat="46.84106" lon="5.85559">
        <ele>635.4</ele>
        <time>2020-02-22T14:38:17Z</time>
      </trkpt>
      <trkpt lat="46.84108" lon="5.85565">
        <ele>636.6</ele>
        <time>2020-02-22T14:38:22Z</time>
      </trkpt>
      <trkpt lat="46.84111" lon="5.85571">
        <ele>637.5</ele>
        <time>2020-02-22T14:38:26Z</time>
      </trkpt>
      <trkpt lat="46.84114" lon="5.85577">
        <ele>638.7</ele>
        <time>2020-02-22T14:38:32Z</time>
      </trkpt>
      <trkpt lat="46.84116" lon="5.85583">
        <ele>639.7</ele>
        <time>2020-02-22T14:38:38Z</time>
      </trkpt>
      <trkpt lat="46.84118" lon="5.85589">
        <ele>640.3</ele>
        <time>2020-02-22T14:38:43Z</time>
      </trkpt>
      <trkpt lat="46.8412" lon="5.85596">
        <ele>640.9</ele>
        <time>2020-02-22T14:38:48Z</time>
      </trkpt>
      <trkpt lat="46.84121" lon="5.85603">
        <ele>641.6</ele>
        <time>2020-02-22T14:38:54Z</time>
      </trkpt>
      <trkpt lat="46.84123" lon="5.85608">
        <ele>643.7</ele>
        <time>2020-02-22T14:39:09Z</time>
      </trkpt>
      <trkpt lat="46.84123" lon="5.85615">
        <ele>644.6</ele>
        <time>2020-02-22T14:39:16Z</time>
      </trkpt>
      <trkpt lat="46.84122" lon="5.85622">
        <ele>644.9</ele>
        <time>2020-02-22T14:39:23Z</time>
      </trkpt>
      <trkpt lat="46.84121" lon="5.8563">
        <ele>645</ele>
        <time>2020-02-22T14:39:29Z</time>
      </trkpt>
      <trkpt lat="46.84119" lon="5.85635">
        <ele>645.1</ele>
        <time>2020-02-22T14:39:36Z</time>
      </trkpt>
      <trkpt lat="46.84118" lon="5.85642">
        <ele>645.6</ele>
        <time>2020-02-22T14:39:46Z</time>
      </trkpt>
      <trkpt lat="46.84122" lon="5.85645">
        <ele>645.4</ele>
        <time>2020-02-22T14:40:05Z</time>
      </trkpt>
      <trkpt lat="46.84127" lon="5.85647">
        <ele>643.8</ele>
        <time>2020-02-22T14:40:16Z</time>
      </trkpt>
      <trkpt lat="46.84131" lon="5.85649">
        <ele>642.4</ele>
        <time>2020-02-22T14:40:24Z</time>
      </trkpt>
      <trkpt lat="46.84136" lon="5.85652">
        <ele>641.8</ele>
        <time>2020-02-22T14:40:30Z</time>
      </trkpt>
      <trkpt lat="46.84141" lon="5.85656">
        <ele>641.3</ele>
        <time>2020-02-22T14:40:35Z</time>
      </trkpt>
      <trkpt lat="46.84145" lon="5.8566">
        <ele>640.7</ele>
        <time>2020-02-22T14:40:40Z</time>
      </trkpt>
      <trkpt lat="46.8415" lon="5.85661">
        <ele>639.7</ele>
        <time>2020-02-22T14:40:46Z</time>
      </trkpt>
      <trkpt lat="46.84155" lon="5.8566">
        <ele>639.1</ele>
        <time>2020-02-22T14:40:51Z</time>
      </trkpt>
      <trkpt lat="46.84164" lon="5.85665">
        <ele>637.9</ele>
        <time>2020-02-22T14:41:02Z</time>
      </trkpt>
      <trkpt lat="46.84168" lon="5.8567">
        <ele>637.8</ele>
        <time>2020-02-22T14:41:07Z</time>
      </trkpt>
      <trkpt lat="46.8417" lon="5.85676">
        <ele>637.3</ele>
        <time>2020-02-22T14:41:13Z</time>
      </trkpt>
      <trkpt lat="46.84173" lon="5.85682">
        <ele>636.4</ele>
        <time>2020-02-22T14:41:19Z</time>
      </trkpt>
      <trkpt lat="46.84175" lon="5.85688">
        <ele>636</ele>
        <time>2020-02-22T14:41:23Z</time>
      </trkpt>
      <trkpt lat="46.84178" lon="5.85708">
        <ele>634.5</ele>
        <time>2020-02-22T14:41:39Z</time>
      </trkpt>
      <trkpt lat="46.8418" lon="5.85715">
        <ele>634.2</ele>
        <time>2020-02-22T14:41:44Z</time>
      </trkpt>
      <trkpt lat="46.84181" lon="5.85722">
        <ele>634</ele>
        <time>2020-02-22T14:41:49Z</time>
      </trkpt>
      <trkpt lat="46.84184" lon="5.85729">
        <ele>634.5</ele>
        <time>2020-02-22T14:41:56Z</time>
      </trkpt>
      <trkpt lat="46.84186" lon="5.85735">
        <ele>635.7</ele>
        <time>2020-02-22T14:42:03Z</time>
      </trkpt>
      <trkpt lat="46.84188" lon="5.85741">
        <ele>637</ele>
        <time>2020-02-22T14:42:09Z</time>
      </trkpt>
      <trkpt lat="46.84187" lon="5.85748">
        <ele>637.9</ele>
        <time>2020-02-22T14:42:14Z</time>
      </trkpt>
      <trkpt lat="46.84196" lon="5.85755">
        <ele>640.8</ele>
        <time>2020-02-22T14:42:28Z</time>
      </trkpt>
      <trkpt lat="46.842" lon="5.85757">
        <ele>640.3</ele>
        <time>2020-02-22T14:42:37Z</time>
      </trkpt>
      <trkpt lat="46.84228" lon="5.85756">
        <ele>638.7</ele>
        <time>2020-02-22T14:43:25Z</time>
      </trkpt>
      <trkpt lat="46.84232" lon="5.85752">
        <ele>639</ele>
        <time>2020-02-22T14:43:29Z</time>
      </trkpt>
      <trkpt lat="46.84236" lon="5.85747">
        <ele>639.1</ele>
        <time>2020-02-22T14:43:33Z</time>
      </trkpt>
      <trkpt lat="46.84241" lon="5.85743">
        <ele>639.1</ele>
        <time>2020-02-22T14:43:36Z</time>
      </trkpt>
      <trkpt lat="46.84245" lon="5.85739">
        <ele>639</ele>
        <time>2020-02-22T14:43:40Z</time>
      </trkpt>
      <trkpt lat="46.84248" lon="5.85733">
        <ele>638.8</ele>
        <time>2020-02-22T14:43:46Z</time>
      </trkpt>
      <trkpt lat="46.84251" lon="5.85728">
        <ele>639</ele>
        <time>2020-02-22T14:43:50Z</time>
      </trkpt>
      <trkpt lat="46.84256" lon="5.85725">
        <ele>639</ele>
        <time>2020-02-22T14:43:57Z</time>
      </trkpt>
      <trkpt lat="46.84261" lon="5.85723">
        <ele>638.3</ele>
        <time>2020-02-22T14:44:06Z</time>
      </trkpt>
      <trkpt lat="46.84266" lon="5.85722">
        <ele>638</ele>
        <time>2020-02-22T14:44:11Z</time>
      </trkpt>
      <trkpt lat="46.84273" lon="5.85721">
        <ele>637.8</ele>
        <time>2020-02-22T14:44:14Z</time>
      </trkpt>
      <trkpt lat="46.84277" lon="5.8572">
        <ele>637.5</ele>
        <time>2020-02-22T14:44:17Z</time>
      </trkpt>
      <trkpt lat="46.84282" lon="5.85719">
        <ele>637.3</ele>
        <time>2020-02-22T14:44:27Z</time>
      </trkpt>
      <trkpt lat="46.84286" lon="5.85716">
        <ele>637.6</ele>
        <time>2020-02-22T14:44:33Z</time>
      </trkpt>
      <trkpt lat="46.84291" lon="5.85712">
        <ele>638.5</ele>
        <time>2020-02-22T14:44:40Z</time>
      </trkpt>
      <trkpt lat="46.84296" lon="5.8571">
        <ele>639.5</ele>
        <time>2020-02-22T14:44:48Z</time>
      </trkpt>
      <trkpt lat="46.843" lon="5.85707">
        <ele>639.7</ele>
        <time>2020-02-22T14:44:50Z</time>
      </trkpt>
      <trkpt lat="46.84307" lon="5.85703">
        <ele>640</ele>
        <time>2020-02-22T14:44:52Z</time>
      </trkpt>
      <trkpt lat="46.84314" lon="5.857">
        <ele>640.4</ele>
        <time>2020-02-22T14:44:54Z</time>
      </trkpt>
      <trkpt lat="46.84319" lon="5.85697">
        <ele>640.8</ele>
        <time>2020-02-22T14:44:57Z</time>
      </trkpt>
      <trkpt lat="46.84323" lon="5.85694">
        <ele>641.4</ele>
        <time>2020-02-22T14:45:02Z</time>
      </trkpt>
      <trkpt lat="46.84328" lon="5.8569">
        <ele>641.4</ele>
        <time>2020-02-22T14:45:08Z</time>
      </trkpt>
      <trkpt lat="46.84336" lon="5.85685">
        <ele>640.8</ele>
        <time>2020-02-22T14:45:18Z</time>
      </trkpt>
      <trkpt lat="46.8434" lon="5.85682">
        <ele>640.8</ele>
        <time>2020-02-22T14:45:22Z</time>
      </trkpt>
      <trkpt lat="46.84344" lon="5.85677">
        <ele>640.9</ele>
        <time>2020-02-22T14:45:27Z</time>
      </trkpt>
      <trkpt lat="46.84347" lon="5.85672">
        <ele>643</ele>
        <time>2020-02-22T14:45:42Z</time>
      </trkpt>
      <trkpt lat="46.84349" lon="5.85665">
        <ele>643.4</ele>
        <time>2020-02-22T14:45:47Z</time>
      </trkpt>
      <trkpt lat="46.84358" lon="5.85658">
        <ele>639.6</ele>
        <time>2020-02-22T14:46:07Z</time>
      </trkpt>
      <trkpt lat="46.84362" lon="5.85662">
        <ele>636.7</ele>
        <time>2020-02-22T14:46:21Z</time>
      </trkpt>
      <trkpt lat="46.84365" lon="5.85667">
        <ele>635.7</ele>
        <time>2020-02-22T14:46:29Z</time>
      </trkpt>
      <trkpt lat="46.84369" lon="5.8567">
        <ele>634.9</ele>
        <time>2020-02-22T14:46:37Z</time>
      </trkpt>
      <trkpt lat="46.84374" lon="5.85673">
        <ele>634.4</ele>
        <time>2020-02-22T14:46:43Z</time>
      </trkpt>
      <trkpt lat="46.84378" lon="5.85678">
        <ele>634.4</ele>
        <time>2020-02-22T14:46:47Z</time>
      </trkpt>
      <trkpt lat="46.84382" lon="5.85683">
        <ele>634.5</ele>
        <time>2020-02-22T14:46:55Z</time>
      </trkpt>
      <trkpt lat="46.84387" lon="5.85693">
        <ele>634</ele>
        <time>2020-02-22T14:47:11Z</time>
      </trkpt>
      <trkpt lat="46.84391" lon="5.85697">
        <ele>633.8</ele>
        <time>2020-02-22T14:47:15Z</time>
      </trkpt>
      <trkpt lat="46.84395" lon="5.85704">
        <ele>633.8</ele>
        <time>2020-02-22T14:47:20Z</time>
      </trkpt>
      <trkpt lat="46.84399" lon="5.85708">
        <ele>633.9</ele>
        <time>2020-02-22T14:47:23Z</time>
      </trkpt>
      <trkpt lat="46.84403" lon="5.85711">
        <ele>634.2</ele>
        <time>2020-02-22T14:47:26Z</time>
      </trkpt>
      <trkpt lat="46.84407" lon="5.85715">
        <ele>634.9</ele>
        <time>2020-02-22T14:47:32Z</time>
      </trkpt>
      <trkpt lat="46.84407" lon="5.85722">
        <ele>635.5</ele>
        <time>2020-02-22T14:47:36Z</time>
      </trkpt>
      <trkpt lat="46.84407" lon="5.8573">
        <ele>635.9</ele>
        <time>2020-02-22T14:47:40Z</time>
      </trkpt>
      <trkpt lat="46.84409" lon="5.85736">
        <ele>636.5</ele>
        <time>2020-02-22T14:47:45Z</time>
      </trkpt>
      <trkpt lat="46.84411" lon="5.85743">
        <ele>637.1</ele>
        <time>2020-02-22T14:47:49Z</time>
      </trkpt>
      <trkpt lat="46.84413" lon="5.85749">
        <ele>637.9</ele>
        <time>2020-02-22T14:47:54Z</time>
      </trkpt>
      <trkpt lat="46.84413" lon="5.85757">
        <ele>638.6</ele>
        <time>2020-02-22T14:48:00Z</time>
      </trkpt>
      <trkpt lat="46.84417" lon="5.85771">
        <ele>638.4</ele>
        <time>2020-02-22T14:48:31Z</time>
      </trkpt>
      <trkpt lat="46.84417" lon="5.8578">
        <ele>642.9</ele>
        <time>2020-02-22T14:50:29Z</time>
      </trkpt>
      <trkpt lat="46.84413" lon="5.85785">
        <ele>643.4</ele>
        <time>2020-02-22T14:50:36Z</time>
      </trkpt>
      <trkpt lat="46.84414" lon="5.85792">
        <ele>643.9</ele>
        <time>2020-02-22T14:50:41Z</time>
      </trkpt>
      <trkpt lat="46.84414" lon="5.858">
        <ele>644.4</ele>
        <time>2020-02-22T14:50:46Z</time>
      </trkpt>
      <trkpt lat="46.84414" lon="5.85807">
        <ele>644.7</ele>
        <time>2020-02-22T14:50:54Z</time>
      </trkpt>
      <trkpt lat="46.84412" lon="5.85815">
        <ele>645.1</ele>
        <time>2020-02-22T14:51:02Z</time>
      </trkpt>
      <trkpt lat="46.84411" lon="5.85821">
        <ele>645.6</ele>
        <time>2020-02-22T14:51:08Z</time>
      </trkpt>
      <trkpt lat="46.84409" lon="5.85828">
        <ele>646</ele>
        <time>2020-02-22T14:51:12Z</time>
      </trkpt>
      <trkpt lat="46.84406" lon="5.85835">
        <ele>646.4</ele>
        <time>2020-02-22T14:51:15Z</time>
      </trkpt>
      <trkpt lat="46.84403" lon="5.85854">
        <ele>648.2</ele>
        <time>2020-02-22T14:51:30Z</time>
      </trkpt>
      <trkpt lat="46.84403" lon="5.85862">
        <ele>648.2</ele>
        <time>2020-02-22T14:51:33Z</time>
      </trkpt>
      <trkpt lat="46.84401" lon="5.85867">
        <ele>648.1</ele>
        <time>2020-02-22T14:51:40Z</time>
      </trkpt>
      <trkpt lat="46.84404" lon="5.85873">
        <ele>647.2</ele>
        <time>2020-02-22T14:51:49Z</time>
      </trkpt>
      <trkpt lat="46.84407" lon="5.85878">
        <ele>646</ele>
        <time>2020-02-22T14:51:58Z</time>
      </trkpt>
      <trkpt lat="46.84407" lon="5.85887">
        <ele>644.7</ele>
        <time>2020-02-22T14:52:05Z</time>
      </trkpt>
      <trkpt lat="46.84409" lon="5.85893">
        <ele>643.8</ele>
        <time>2020-02-22T14:52:12Z</time>
      </trkpt>
      <trkpt lat="46.84413" lon="5.85898">
        <ele>643.2</ele>
        <time>2020-02-22T14:52:20Z</time>
      </trkpt>
      <trkpt lat="46.84425" lon="5.85912">
        <ele>643.3</ele>
        <time>2020-02-22T14:52:35Z</time>
      </trkpt>
      <trkpt lat="46.84427" lon="5.85918">
        <ele>643.4</ele>
        <time>2020-02-22T14:52:42Z</time>
      </trkpt>
      <trkpt lat="46.8443" lon="5.85923">
        <ele>643.4</ele>
        <time>2020-02-22T14:52:52Z</time>
      </trkpt>
      <trkpt lat="46.84434" lon="5.85926">
        <ele>643.6</ele>
        <time>2020-02-22T14:53:00Z</time>
      </trkpt>
      <trkpt lat="46.84439" lon="5.85931">
        <ele>644</ele>
        <time>2020-02-22T14:53:20Z</time>
      </trkpt>
      <trkpt lat="46.84443" lon="5.85933">
        <ele>643.5</ele>
        <time>2020-02-22T14:53:30Z</time>
      </trkpt>
      <trkpt lat="46.84448" lon="5.85935">
        <ele>643.4</ele>
        <time>2020-02-22T14:53:35Z</time>
      </trkpt>
      <trkpt lat="46.84453" lon="5.85935">
        <ele>643.2</ele>
        <time>2020-02-22T14:53:39Z</time>
      </trkpt>
      <trkpt lat="46.84459" lon="5.85937">
        <ele>643.2</ele>
        <time>2020-02-22T14:53:45Z</time>
      </trkpt>
      <trkpt lat="46.84463" lon="5.8594">
        <ele>643.1</ele>
        <time>2020-02-22T14:53:48Z</time>
      </trkpt>
      <trkpt lat="46.84466" lon="5.85945">
        <ele>643.1</ele>
        <time>2020-02-22T14:53:52Z</time>
      </trkpt>
      <trkpt lat="46.8447" lon="5.85949">
        <ele>643.1</ele>
        <time>2020-02-22T14:53:56Z</time>
      </trkpt>
      <trkpt lat="46.84475" lon="5.85955">
        <ele>643</ele>
        <time>2020-02-22T14:54:03Z</time>
      </trkpt>
      <trkpt lat="46.84478" lon="5.85959">
        <ele>643</ele>
        <time>2020-02-22T14:54:10Z</time>
      </trkpt>
      <trkpt lat="46.8448" lon="5.85966">
        <ele>643.9</ele>
        <time>2020-02-22T14:54:19Z</time>
      </trkpt>
      <trkpt lat="46.84482" lon="5.85973">
        <ele>644.7</ele>
        <time>2020-02-22T14:54:24Z</time>
      </trkpt>
      <trkpt lat="46.84484" lon="5.8598">
        <ele>645.3</ele>
        <time>2020-02-22T14:54:29Z</time>
      </trkpt>
      <trkpt lat="46.84486" lon="5.85986">
        <ele>645.3</ele>
        <time>2020-02-22T14:54:37Z</time>
      </trkpt>
      <trkpt lat="46.84487" lon="5.85992">
        <ele>645.1</ele>
        <time>2020-02-22T14:54:43Z</time>
      </trkpt>
      <trkpt lat="46.84487" lon="5.86">
        <ele>645</ele>
        <time>2020-02-22T14:54:49Z</time>
      </trkpt>
      <trkpt lat="46.84487" lon="5.86007">
        <ele>644.7</ele>
        <time>2020-02-22T14:54:56Z</time>
      </trkpt>
      <trkpt lat="46.84484" lon="5.86014">
        <ele>644.5</ele>
        <time>2020-02-22T14:55:03Z</time>
      </trkpt>
      <trkpt lat="46.84482" lon="5.86019">
        <ele>644.3</ele>
        <time>2020-02-22T14:55:09Z</time>
      </trkpt>
      <trkpt lat="46.84479" lon="5.86026">
        <ele>644.2</ele>
        <time>2020-02-22T14:55:14Z</time>
      </trkpt>
      <trkpt lat="46.84476" lon="5.86031">
        <ele>644.3</ele>
        <time>2020-02-22T14:55:19Z</time>
      </trkpt>
      <trkpt lat="46.84474" lon="5.86038">
        <ele>644.7</ele>
        <time>2020-02-22T14:55:25Z</time>
      </trkpt>
      <trkpt lat="46.84474" lon="5.86045">
        <ele>645.4</ele>
        <time>2020-02-22T14:55:31Z</time>
      </trkpt>
      <trkpt lat="46.84475" lon="5.86053">
        <ele>645.9</ele>
        <time>2020-02-22T14:55:37Z</time>
      </trkpt>
      <trkpt lat="46.84475" lon="5.8606">
        <ele>646.7</ele>
        <time>2020-02-22T14:55:44Z</time>
      </trkpt>
      <trkpt lat="46.84473" lon="5.86067">
        <ele>647.2</ele>
        <time>2020-02-22T14:55:50Z</time>
      </trkpt>
      <trkpt lat="46.8447" lon="5.86073">
        <ele>647.5</ele>
        <time>2020-02-22T14:55:55Z</time>
      </trkpt>
      <trkpt lat="46.84467" lon="5.8608">
        <ele>647.7</ele>
        <time>2020-02-22T14:56:00Z</time>
      </trkpt>
      <trkpt lat="46.84465" lon="5.86086">
        <ele>648.2</ele>
        <time>2020-02-22T14:56:06Z</time>
      </trkpt>
      <trkpt lat="46.84465" lon="5.86093">
        <ele>648.6</ele>
        <time>2020-02-22T14:56:12Z</time>
      </trkpt>
      <trkpt lat="46.84466" lon="5.861">
        <ele>649</ele>
        <time>2020-02-22T14:56:18Z</time>
      </trkpt>
      <trkpt lat="46.84465" lon="5.86106">
        <ele>648.7</ele>
        <time>2020-02-22T14:56:26Z</time>
      </trkpt>
      <trkpt lat="46.84464" lon="5.86113">
        <ele>648.1</ele>
        <time>2020-02-22T14:56:35Z</time>
      </trkpt>
      <trkpt lat="46.84462" lon="5.86119">
        <ele>647.7</ele>
        <time>2020-02-22T14:56:43Z</time>
      </trkpt>
      <trkpt lat="46.8446" lon="5.86125">
        <ele>647.3</ele>
        <time>2020-02-22T14:56:50Z</time>
      </trkpt>
      <trkpt lat="46.84459" lon="5.86131">
        <ele>647.4</ele>
        <time>2020-02-22T14:56:56Z</time>
      </trkpt>
      <trkpt lat="46.84459" lon="5.86138">
        <ele>647.8</ele>
        <time>2020-02-22T14:57:01Z</time>
      </trkpt>
      <trkpt lat="46.8446" lon="5.86145">
        <ele>648.8</ele>
        <time>2020-02-22T14:57:11Z</time>
      </trkpt>
      <trkpt lat="46.84461" lon="5.86152">
        <ele>649.3</ele>
        <time>2020-02-22T14:57:18Z</time>
      </trkpt>
      <trkpt lat="46.84464" lon="5.86166">
        <ele>649.6</ele>
        <time>2020-02-22T14:57:35Z</time>
      </trkpt>
      <trkpt lat="46.84463" lon="5.86173">
        <ele>649.2</ele>
        <time>2020-02-22T14:57:40Z</time>
      </trkpt>
      <trkpt lat="46.84464" lon="5.8618">
        <ele>648.9</ele>
        <time>2020-02-22T14:57:43Z</time>
      </trkpt>
      <trkpt lat="46.84465" lon="5.86187">
        <ele>648.5</ele>
        <time>2020-02-22T14:57:46Z</time>
      </trkpt>
      <trkpt lat="46.84467" lon="5.86194">
        <ele>648.3</ele>
        <time>2020-02-22T14:57:50Z</time>
      </trkpt>
      <trkpt lat="46.84468" lon="5.86202">
        <ele>648.4</ele>
        <time>2020-02-22T14:57:55Z</time>
      </trkpt>
      <trkpt lat="46.8447" lon="5.86208">
        <ele>648.7</ele>
        <time>2020-02-22T14:58:06Z</time>
      </trkpt>
      <trkpt lat="46.84468" lon="5.86214">
        <ele>648.6</ele>
        <time>2020-02-22T14:58:20Z</time>
      </trkpt>
      <trkpt lat="46.84465" lon="5.8622">
        <ele>648.9</ele>
        <time>2020-02-22T14:58:28Z</time>
      </trkpt>
      <trkpt lat="46.84463" lon="5.86227">
        <ele>649.8</ele>
        <time>2020-02-22T14:58:37Z</time>
      </trkpt>
      <trkpt lat="46.84464" lon="5.86234">
        <ele>650.5</ele>
        <time>2020-02-22T14:58:42Z</time>
      </trkpt>
      <trkpt lat="46.84464" lon="5.86241">
        <ele>651.7</ele>
        <time>2020-02-22T14:58:49Z</time>
      </trkpt>
      <trkpt lat="46.84465" lon="5.86247">
        <ele>653</ele>
        <time>2020-02-22T14:58:56Z</time>
      </trkpt>
      <trkpt lat="46.84465" lon="5.86254">
        <ele>653.5</ele>
        <time>2020-02-22T14:59:02Z</time>
      </trkpt>
      <trkpt lat="46.84466" lon="5.86262">
        <ele>653.8</ele>
        <time>2020-02-22T14:59:08Z</time>
      </trkpt>
      <trkpt lat="46.84468" lon="5.86268">
        <ele>654.3</ele>
        <time>2020-02-22T14:59:12Z</time>
      </trkpt>
      <trkpt lat="46.84467" lon="5.86275">
        <ele>655.6</ele>
        <time>2020-02-22T14:59:24Z</time>
      </trkpt>
      <trkpt lat="46.84468" lon="5.86282">
        <ele>656.1</ele>
        <time>2020-02-22T14:59:30Z</time>
      </trkpt>
      <trkpt lat="46.84469" lon="5.86289">
        <ele>656.2</ele>
        <time>2020-02-22T14:59:38Z</time>
      </trkpt>
      <trkpt lat="46.84471" lon="5.86296">
        <ele>656.1</ele>
        <time>2020-02-22T14:59:47Z</time>
      </trkpt>
      <trkpt lat="46.84473" lon="5.86303">
        <ele>656.2</ele>
        <time>2020-02-22T14:59:53Z</time>
      </trkpt>
      <trkpt lat="46.84472" lon="5.8631">
        <ele>656.7</ele>
        <time>2020-02-22T15:00:04Z</time>
      </trkpt>
      <trkpt lat="46.84472" lon="5.86317">
        <ele>657</ele>
        <time>2020-02-22T15:00:11Z</time>
      </trkpt>
      <trkpt lat="46.8447" lon="5.86324">
        <ele>657.3</ele>
        <time>2020-02-22T15:00:16Z</time>
      </trkpt>
      <trkpt lat="46.8447" lon="5.86331">
        <ele>657.5</ele>
        <time>2020-02-22T15:00:25Z</time>
      </trkpt>
      <trkpt lat="46.84469" lon="5.86337">
        <ele>658.4</ele>
        <time>2020-02-22T15:00:42Z</time>
      </trkpt>
      <trkpt lat="46.84464" lon="5.8634">
        <ele>658.9</ele>
        <time>2020-02-22T15:01:00Z</time>
      </trkpt>
      <trkpt lat="46.84466" lon="5.8635">
        <ele>659.7</ele>
        <time>2020-02-22T15:03:29Z</time>
      </trkpt>
      <trkpt lat="46.84459" lon="5.86365">
        <ele>663.2</ele>
        <time>2020-02-22T15:05:22Z</time>
      </trkpt>
      <trkpt lat="46.84458" lon="5.86372">
        <ele>663.3</ele>
        <time>2020-02-22T15:05:26Z</time>
      </trkpt>
      <trkpt lat="46.84457" lon="5.86378">
        <ele>663.7</ele>
        <time>2020-02-22T15:05:30Z</time>
      </trkpt>
      <trkpt lat="46.84456" lon="5.86385">
        <ele>664.4</ele>
        <time>2020-02-22T15:05:34Z</time>
      </trkpt>
      <trkpt lat="46.84454" lon="5.86392">
        <ele>665.2</ele>
        <time>2020-02-22T15:05:38Z</time>
      </trkpt>
      <trkpt lat="46.84454" lon="5.86399">
        <ele>666.3</ele>
        <time>2020-02-22T15:05:43Z</time>
      </trkpt>
      <trkpt lat="46.84454" lon="5.86407">
        <ele>667.2</ele>
        <time>2020-02-22T15:05:47Z</time>
      </trkpt>
      <trkpt lat="46.84455" lon="5.86414">
        <ele>668</ele>
        <time>2020-02-22T15:05:51Z</time>
      </trkpt>
      <trkpt lat="46.84453" lon="5.8642">
        <ele>668.8</ele>
        <time>2020-02-22T15:05:55Z</time>
      </trkpt>
      <trkpt lat="46.8445" lon="5.86426">
        <ele>669.5</ele>
        <time>2020-02-22T15:05:59Z</time>
      </trkpt>
      <trkpt lat="46.84449" lon="5.86433">
        <ele>670.3</ele>
        <time>2020-02-22T15:06:04Z</time>
      </trkpt>
      <trkpt lat="46.84449" lon="5.86441">
        <ele>670.7</ele>
        <time>2020-02-22T15:06:09Z</time>
      </trkpt>
      <trkpt lat="46.84448" lon="5.86448">
        <ele>670.8</ele>
        <time>2020-02-22T15:06:15Z</time>
      </trkpt>
      <trkpt lat="46.84446" lon="5.86455">
        <ele>670.6</ele>
        <time>2020-02-22T15:06:23Z</time>
      </trkpt>
      <trkpt lat="46.84443" lon="5.8646">
        <ele>670.5</ele>
        <time>2020-02-22T15:06:28Z</time>
      </trkpt>
      <trkpt lat="46.84439" lon="5.86465">
        <ele>670.5</ele>
        <time>2020-02-22T15:06:33Z</time>
      </trkpt>
      <trkpt lat="46.84438" lon="5.86472">
        <ele>671.2</ele>
        <time>2020-02-22T15:06:40Z</time>
      </trkpt>
      <trkpt lat="46.84437" lon="5.86479">
        <ele>671.8</ele>
        <time>2020-02-22T15:06:46Z</time>
      </trkpt>
      <trkpt lat="46.84435" lon="5.86485">
        <ele>672.1</ele>
        <time>2020-02-22T15:06:51Z</time>
      </trkpt>
      <trkpt lat="46.84434" lon="5.86493">
        <ele>672.8</ele>
        <time>2020-02-22T15:06:57Z</time>
      </trkpt>
      <trkpt lat="46.84433" lon="5.86499">
        <ele>673.1</ele>
        <time>2020-02-22T15:07:02Z</time>
      </trkpt>
      <trkpt lat="46.84432" lon="5.86506">
        <ele>673.3</ele>
        <time>2020-02-22T15:07:07Z</time>
      </trkpt>
      <trkpt lat="46.8443" lon="5.86512">
        <ele>673.3</ele>
        <time>2020-02-22T15:07:13Z</time>
      </trkpt>
      <trkpt lat="46.84426" lon="5.86516">
        <ele>673.5</ele>
        <time>2020-02-22T15:07:19Z</time>
      </trkpt>
      <trkpt lat="46.84422" lon="5.86518">
        <ele>673.4</ele>
        <time>2020-02-22T15:07:25Z</time>
      </trkpt>
      <trkpt lat="46.84417" lon="5.86518">
        <ele>672.6</ele>
        <time>2020-02-22T15:07:33Z</time>
      </trkpt>
      <trkpt lat="46.84412" lon="5.86517">
        <ele>670.7</ele>
        <time>2020-02-22T15:07:42Z</time>
      </trkpt>
      <trkpt lat="46.84409" lon="5.86522">
        <ele>668.7</ele>
        <time>2020-02-22T15:07:54Z</time>
      </trkpt>
      <trkpt lat="46.84405" lon="5.86524">
        <ele>666</ele>
        <time>2020-02-22T15:08:07Z</time>
      </trkpt>
      <trkpt lat="46.84395" lon="5.86537">
        <ele>669.6</ele>
        <time>2020-02-22T15:09:12Z</time>
      </trkpt>
      <trkpt lat="46.84391" lon="5.86544">
        <ele>670.8</ele>
        <time>2020-02-22T15:09:48Z</time>
      </trkpt>
      <trkpt lat="46.8439" lon="5.8655">
        <ele>671.2</ele>
        <time>2020-02-22T15:10:13Z</time>
      </trkpt>
      <trkpt lat="46.84386" lon="5.86555">
        <ele>671.4</ele>
        <time>2020-02-22T15:10:19Z</time>
      </trkpt>
      <trkpt lat="46.84385" lon="5.86567">
        <ele>671.1</ele>
        <time>2020-02-22T15:10:49Z</time>
      </trkpt>
      <trkpt lat="46.84381" lon="5.8657">
        <ele>671.5</ele>
        <time>2020-02-22T15:10:58Z</time>
      </trkpt>
      <trkpt lat="46.84375" lon="5.86569">
        <ele>671.2</ele>
        <time>2020-02-22T15:11:03Z</time>
      </trkpt>
      <trkpt lat="46.84371" lon="5.86568">
        <ele>670.1</ele>
        <time>2020-02-22T15:11:10Z</time>
      </trkpt>
      <trkpt lat="46.84365" lon="5.86567">
        <ele>669.2</ele>
        <time>2020-02-22T15:11:13Z</time>
      </trkpt>
      <trkpt lat="46.84358" lon="5.86567">
        <ele>668.2</ele>
        <time>2020-02-22T15:11:16Z</time>
      </trkpt>
      <trkpt lat="46.84353" lon="5.86566">
        <ele>667.4</ele>
        <time>2020-02-22T15:11:20Z</time>
      </trkpt>
      <trkpt lat="46.84349" lon="5.86563">
        <ele>667.1</ele>
        <time>2020-02-22T15:11:25Z</time>
      </trkpt>
      <trkpt lat="46.84344" lon="5.86561">
        <ele>667.3</ele>
        <time>2020-02-22T15:11:28Z</time>
      </trkpt>
      <trkpt lat="46.84339" lon="5.8656">
        <ele>667.6</ele>
        <time>2020-02-22T15:11:31Z</time>
      </trkpt>
      <trkpt lat="46.84335" lon="5.86562">
        <ele>668.5</ele>
        <time>2020-02-22T15:11:39Z</time>
      </trkpt>
      <trkpt lat="46.84329" lon="5.8656">
        <ele>669.5</ele>
        <time>2020-02-22T15:11:47Z</time>
      </trkpt>
      <trkpt lat="46.84325" lon="5.86558">
        <ele>670</ele>
        <time>2020-02-22T15:11:50Z</time>
      </trkpt>
      <trkpt lat="46.8432" lon="5.86558">
        <ele>670.9</ele>
        <time>2020-02-22T15:11:55Z</time>
      </trkpt>
      <trkpt lat="46.84315" lon="5.86559">
        <ele>671.8</ele>
        <time>2020-02-22T15:12:01Z</time>
      </trkpt>
      <trkpt lat="46.84309" lon="5.8656">
        <ele>672.2</ele>
        <time>2020-02-22T15:12:05Z</time>
      </trkpt>
      <trkpt lat="46.84305" lon="5.86562">
        <ele>672.4</ele>
        <time>2020-02-22T15:12:09Z</time>
      </trkpt>
      <trkpt lat="46.843" lon="5.86565">
        <ele>672.9</ele>
        <time>2020-02-22T15:12:14Z</time>
      </trkpt>
      <trkpt lat="46.84297" lon="5.86571">
        <ele>673.5</ele>
        <time>2020-02-22T15:12:21Z</time>
      </trkpt>
      <trkpt lat="46.84296" lon="5.86578">
        <ele>673.9</ele>
        <time>2020-02-22T15:12:25Z</time>
      </trkpt>
      <trkpt lat="46.84292" lon="5.86585">
        <ele>674.5</ele>
        <time>2020-02-22T15:12:29Z</time>
      </trkpt>
      <trkpt lat="46.84289" lon="5.86589">
        <ele>675.6</ele>
        <time>2020-02-22T15:12:34Z</time>
      </trkpt>
      <trkpt lat="46.84284" lon="5.86592">
        <ele>677</ele>
        <time>2020-02-22T15:12:41Z</time>
      </trkpt>
      <trkpt lat="46.8428" lon="5.86596">
        <ele>678</ele>
        <time>2020-02-22T15:12:53Z</time>
      </trkpt>
      <trkpt lat="46.84284" lon="5.866">
        <ele>678.4</ele>
        <time>2020-02-22T15:13:12Z</time>
      </trkpt>
      <trkpt lat="46.84289" lon="5.86601">
        <ele>678.5</ele>
        <time>2020-02-22T15:13:17Z</time>
      </trkpt>
      <trkpt lat="46.84284" lon="5.866">
        <ele>678.6</ele>
        <time>2020-02-22T15:13:27Z</time>
      </trkpt>
      <trkpt lat="46.84279" lon="5.86599">
        <ele>677.9</ele>
        <time>2020-02-22T15:13:34Z</time>
      </trkpt>
      <trkpt lat="46.84275" lon="5.86595">
        <ele>676.5</ele>
        <time>2020-02-22T15:13:41Z</time>
      </trkpt>
      <trkpt lat="46.84272" lon="5.86591">
        <ele>674.5</ele>
        <time>2020-02-22T15:13:48Z</time>
      </trkpt>
      <trkpt lat="46.8427" lon="5.86584">
        <ele>672</ele>
        <time>2020-02-22T15:13:55Z</time>
      </trkpt>
      <trkpt lat="46.84266" lon="5.86579">
        <ele>670.1</ele>
        <time>2020-02-22T15:14:00Z</time>
      </trkpt>
      <trkpt lat="46.84258" lon="5.86569">
        <ele>666.3</ele>
        <time>2020-02-22T15:14:08Z</time>
      </trkpt>
      <trkpt lat="46.84255" lon="5.86563">
        <ele>665.1</ele>
        <time>2020-02-22T15:14:14Z</time>
      </trkpt>
      <trkpt lat="46.84251" lon="5.86556">
        <ele>664.4</ele>
        <time>2020-02-22T15:14:17Z</time>
      </trkpt>
      <trkpt lat="46.84249" lon="5.8655">
        <ele>662.8</ele>
        <time>2020-02-22T15:14:25Z</time>
      </trkpt>
      <trkpt lat="46.84245" lon="5.86544">
        <ele>662.4</ele>
        <time>2020-02-22T15:14:37Z</time>
      </trkpt>
      <trkpt lat="46.8424" lon="5.86541">
        <ele>662.6</ele>
        <time>2020-02-22T15:14:44Z</time>
      </trkpt>
      <trkpt lat="46.84235" lon="5.8654">
        <ele>662.9</ele>
        <time>2020-02-22T15:14:47Z</time>
      </trkpt>
      <trkpt lat="46.84233" lon="5.86532">
        <ele>663.6</ele>
        <time>2020-02-22T15:15:01Z</time>
      </trkpt>
      <trkpt lat="46.8423" lon="5.86527">
        <ele>663.8</ele>
        <time>2020-02-22T15:15:05Z</time>
      </trkpt>
      <trkpt lat="46.84227" lon="5.86524">
        <ele>664.1</ele>
        <time>2020-02-22T15:15:18Z</time>
      </trkpt>
      <trkpt lat="46.84222" lon="5.86522">
        <ele>665.7</ele>
        <time>2020-02-22T15:15:43Z</time>
      </trkpt>
      <trkpt lat="46.84217" lon="5.86525">
        <ele>666.4</ele>
        <time>2020-02-22T15:15:47Z</time>
      </trkpt>
      <trkpt lat="46.84217" lon="5.86532">
        <ele>666.3</ele>
        <time>2020-02-22T15:15:58Z</time>
      </trkpt>
      <trkpt lat="46.84215" lon="5.86536">
        <ele>662.2</ele>
        <time>2020-02-22T15:16:33Z</time>
      </trkpt>
      <trkpt lat="46.8421" lon="5.86537">
        <ele>663.4</ele>
        <time>2020-02-22T15:17:06Z</time>
      </trkpt>
      <trkpt lat="46.84205" lon="5.86539">
        <ele>663.3</ele>
        <time>2020-02-22T15:17:13Z</time>
      </trkpt>
      <trkpt lat="46.842" lon="5.86538">
        <ele>663.2</ele>
        <time>2020-02-22T15:17:21Z</time>
      </trkpt>
      <trkpt lat="46.84196" lon="5.86539">
        <ele>663.2</ele>
        <time>2020-02-22T15:17:24Z</time>
      </trkpt>
      <trkpt lat="46.84191" lon="5.86544">
        <ele>663.9</ele>
        <time>2020-02-22T15:17:35Z</time>
      </trkpt>
      <trkpt lat="46.84186" lon="5.86549">
        <ele>664.5</ele>
        <time>2020-02-22T15:17:39Z</time>
      </trkpt>
      <trkpt lat="46.84183" lon="5.86553">
        <ele>665.2</ele>
        <time>2020-02-22T15:17:42Z</time>
      </trkpt>
      <trkpt lat="46.8418" lon="5.86559">
        <ele>666.7</ele>
        <time>2020-02-22T15:17:51Z</time>
      </trkpt>
      <trkpt lat="46.84179" lon="5.86566">
        <ele>668.4</ele>
        <time>2020-02-22T15:17:59Z</time>
      </trkpt>
      <trkpt lat="46.84174" lon="5.86571">
        <ele>669.7</ele>
        <time>2020-02-22T15:18:04Z</time>
      </trkpt>
      <trkpt lat="46.8417" lon="5.86567">
        <ele>671</ele>
        <time>2020-02-22T15:18:11Z</time>
      </trkpt>
      <trkpt lat="46.84166" lon="5.86563">
        <ele>671.6</ele>
        <time>2020-02-22T15:18:19Z</time>
      </trkpt>
      <trkpt lat="46.84162" lon="5.86567">
        <ele>671.8</ele>
        <time>2020-02-22T15:18:27Z</time>
      </trkpt>
      <trkpt lat="46.84157" lon="5.8657">
        <ele>671.8</ele>
        <time>2020-02-22T15:18:33Z</time>
      </trkpt>
      <trkpt lat="46.84152" lon="5.86572">
        <ele>672.1</ele>
        <time>2020-02-22T15:18:39Z</time>
      </trkpt>
      <trkpt lat="46.84147" lon="5.86571">
        <ele>673.7</ele>
        <time>2020-02-22T15:18:51Z</time>
      </trkpt>
      <trkpt lat="46.84142" lon="5.86571">
        <ele>674.1</ele>
        <time>2020-02-22T15:18:56Z</time>
      </trkpt>
      <trkpt lat="46.84137" lon="5.8657">
        <ele>673.8</ele>
        <time>2020-02-22T15:19:03Z</time>
      </trkpt>
      <trkpt lat="46.84133" lon="5.86567">
        <ele>672.9</ele>
        <time>2020-02-22T15:19:13Z</time>
      </trkpt>
      <trkpt lat="46.84129" lon="5.86567">
        <ele>672.6</ele>
        <time>2020-02-22T15:19:33Z</time>
      </trkpt>
      <trkpt lat="46.84135" lon="5.86561">
        <ele>681.4</ele>
        <time>2020-02-22T15:21:19Z</time>
      </trkpt>
      <trkpt lat="46.84141" lon="5.86563">
        <ele>678.8</ele>
        <time>2020-02-22T15:23:30Z</time>
      </trkpt>
      <trkpt lat="46.84149" lon="5.86571">
        <ele>680.1</ele>
        <time>2020-02-22T15:24:03Z</time>
      </trkpt>
      <trkpt lat="46.84151" lon="5.86578">
        <ele>679.8</ele>
        <time>2020-02-22T15:24:09Z</time>
      </trkpt>
      <trkpt lat="46.84154" lon="5.86584">
        <ele>679.9</ele>
        <time>2020-02-22T15:24:12Z</time>
      </trkpt>
      <trkpt lat="46.84158" lon="5.8659">
        <ele>680.2</ele>
        <time>2020-02-22T15:24:18Z</time>
      </trkpt>
      <trkpt lat="46.84161" lon="5.86595">
        <ele>680.5</ele>
        <time>2020-02-22T15:24:22Z</time>
      </trkpt>
      <trkpt lat="46.84165" lon="5.86599">
        <ele>681.2</ele>
        <time>2020-02-22T15:24:43Z</time>
      </trkpt>
      <trkpt lat="46.84164" lon="5.86606">
        <ele>681.4</ele>
        <time>2020-02-22T15:24:52Z</time>
      </trkpt>
      <trkpt lat="46.8416" lon="5.86612">
        <ele>681.4</ele>
        <time>2020-02-22T15:24:57Z</time>
      </trkpt>
      <trkpt lat="46.84161" lon="5.86619">
        <ele>681.6</ele>
        <time>2020-02-22T15:25:04Z</time>
      </trkpt>
      <trkpt lat="46.8416" lon="5.86626">
        <ele>682.4</ele>
        <time>2020-02-22T15:25:10Z</time>
      </trkpt>
      <trkpt lat="46.84158" lon="5.86633">
        <ele>683</ele>
        <time>2020-02-22T15:25:13Z</time>
      </trkpt>
      <trkpt lat="46.84157" lon="5.86639">
        <ele>684.3</ele>
        <time>2020-02-22T15:25:57Z</time>
      </trkpt>
      <trkpt lat="46.84158" lon="5.86648">
        <ele>683.6</ele>
        <time>2020-02-22T15:26:05Z</time>
      </trkpt>
      <trkpt lat="46.84161" lon="5.86656">
        <ele>683.5</ele>
        <time>2020-02-22T15:26:09Z</time>
      </trkpt>
      <trkpt lat="46.84162" lon="5.86662">
        <ele>683.6</ele>
        <time>2020-02-22T15:26:12Z</time>
      </trkpt>
      <trkpt lat="46.84168" lon="5.86671">
        <ele>685.8</ele>
        <time>2020-02-22T15:26:53Z</time>
      </trkpt>
      <trkpt lat="46.84173" lon="5.86674">
        <ele>685.3</ele>
        <time>2020-02-22T15:26:59Z</time>
      </trkpt>
      <trkpt lat="46.84177" lon="5.86673">
        <ele>684.9</ele>
        <time>2020-02-22T15:27:08Z</time>
      </trkpt>
      <trkpt lat="46.84181" lon="5.86678">
        <ele>684.5</ele>
        <time>2020-02-22T15:27:13Z</time>
      </trkpt>
      <trkpt lat="46.84185" lon="5.86682">
        <ele>684.1</ele>
        <time>2020-02-22T15:27:19Z</time>
      </trkpt>
      <trkpt lat="46.8419" lon="5.86682">
        <ele>683.9</ele>
        <time>2020-02-22T15:27:23Z</time>
      </trkpt>
      <trkpt lat="46.84195" lon="5.86682">
        <ele>683.6</ele>
        <time>2020-02-22T15:27:28Z</time>
      </trkpt>
      <trkpt lat="46.84201" lon="5.8668">
        <ele>683.8</ele>
        <time>2020-02-22T15:27:33Z</time>
      </trkpt>
      <trkpt lat="46.84206" lon="5.8668">
        <ele>684.6</ele>
        <time>2020-02-22T15:27:39Z</time>
      </trkpt>
      <trkpt lat="46.84211" lon="5.8668">
        <ele>685.8</ele>
        <time>2020-02-22T15:27:48Z</time>
      </trkpt>
      <trkpt lat="46.84217" lon="5.86679">
        <ele>686.3</ele>
        <time>2020-02-22T15:27:52Z</time>
      </trkpt>
      <trkpt lat="46.84222" lon="5.86679">
        <ele>686.6</ele>
        <time>2020-02-22T15:27:56Z</time>
      </trkpt>
      <trkpt lat="46.84227" lon="5.86678">
        <ele>687</ele>
        <time>2020-02-22T15:28:00Z</time>
      </trkpt>
      <trkpt lat="46.84232" lon="5.86679">
        <ele>687.5</ele>
        <time>2020-02-22T15:28:06Z</time>
      </trkpt>
      <trkpt lat="46.84236" lon="5.86681">
        <ele>687.7</ele>
        <time>2020-02-22T15:28:11Z</time>
      </trkpt>
      <trkpt lat="46.84242" lon="5.86684">
        <ele>687.6</ele>
        <time>2020-02-22T15:28:15Z</time>
      </trkpt>
      <trkpt lat="46.84246" lon="5.86688">
        <ele>687.1</ele>
        <time>2020-02-22T15:28:20Z</time>
      </trkpt>
      <trkpt lat="46.84251" lon="5.86693">
        <ele>686.7</ele>
        <time>2020-02-22T15:28:24Z</time>
      </trkpt>
      <trkpt lat="46.84255" lon="5.86697">
        <ele>686.4</ele>
        <time>2020-02-22T15:28:27Z</time>
      </trkpt>
      <trkpt lat="46.8426" lon="5.86701">
        <ele>685.6</ele>
        <time>2020-02-22T15:28:32Z</time>
      </trkpt>
      <trkpt lat="46.84264" lon="5.86704">
        <ele>684.9</ele>
        <time>2020-02-22T15:28:36Z</time>
      </trkpt>
      <trkpt lat="46.84269" lon="5.86708">
        <ele>684.3</ele>
        <time>2020-02-22T15:28:41Z</time>
      </trkpt>
      <trkpt lat="46.84272" lon="5.86713">
        <ele>684.1</ele>
        <time>2020-02-22T15:28:46Z</time>
      </trkpt>
      <trkpt lat="46.84276" lon="5.86717">
        <ele>684</ele>
        <time>2020-02-22T15:28:51Z</time>
      </trkpt>
      <trkpt lat="46.8428" lon="5.86721">
        <ele>683.8</ele>
        <time>2020-02-22T15:28:55Z</time>
      </trkpt>
      <trkpt lat="46.84283" lon="5.86726">
        <ele>683.3</ele>
        <time>2020-02-22T15:29:01Z</time>
      </trkpt>
      <trkpt lat="46.84285" lon="5.86733">
        <ele>682.6</ele>
        <time>2020-02-22T15:29:09Z</time>
      </trkpt>
      <trkpt lat="46.84282" lon="5.8674">
        <ele>682.5</ele>
        <time>2020-02-22T15:29:14Z</time>
      </trkpt>
      <trkpt lat="46.8428" lon="5.86746">
        <ele>682.6</ele>
        <time>2020-02-22T15:29:19Z</time>
      </trkpt>
      <trkpt lat="46.84278" lon="5.86752">
        <ele>682.6</ele>
        <time>2020-02-22T15:29:24Z</time>
      </trkpt>
      <trkpt lat="46.84276" lon="5.86759">
        <ele>682.9</ele>
        <time>2020-02-22T15:29:30Z</time>
      </trkpt>
      <trkpt lat="46.84273" lon="5.86763">
        <ele>683.2</ele>
        <time>2020-02-22T15:29:34Z</time>
      </trkpt>
      <trkpt lat="46.8427" lon="5.86769">
        <ele>683.4</ele>
        <time>2020-02-22T15:29:39Z</time>
      </trkpt>
      <trkpt lat="46.84272" lon="5.86776">
        <ele>683.5</ele>
        <time>2020-02-22T15:29:45Z</time>
      </trkpt>
      <trkpt lat="46.84274" lon="5.86783">
        <ele>683.6</ele>
        <time>2020-02-22T15:29:50Z</time>
      </trkpt>
      <trkpt lat="46.84278" lon="5.86788">
        <ele>683.9</ele>
        <time>2020-02-22T15:29:56Z</time>
      </trkpt>
      <trkpt lat="46.84282" lon="5.86789">
        <ele>684.4</ele>
        <time>2020-02-22T15:30:05Z</time>
      </trkpt>
      <trkpt lat="46.84287" lon="5.86787">
        <ele>684.5</ele>
        <time>2020-02-22T15:30:14Z</time>
      </trkpt>
      <trkpt lat="46.84291" lon="5.86792">
        <ele>683.8</ele>
        <time>2020-02-22T15:30:20Z</time>
      </trkpt>
      <trkpt lat="46.84293" lon="5.86798">
        <ele>679.3</ele>
        <time>2020-02-22T15:31:26Z</time>
      </trkpt>
      <trkpt lat="46.84291" lon="5.86805">
        <ele>679.1</ele>
        <time>2020-02-22T15:31:30Z</time>
      </trkpt>
      <trkpt lat="46.8429" lon="5.86813">
        <ele>678.9</ele>
        <time>2020-02-22T15:31:34Z</time>
      </trkpt>
      <trkpt lat="46.8429" lon="5.86821">
        <ele>678.9</ele>
        <time>2020-02-22T15:31:39Z</time>
      </trkpt>
      <trkpt lat="46.84291" lon="5.86828">
        <ele>678.9</ele>
        <time>2020-02-22T15:31:45Z</time>
      </trkpt>
      <trkpt lat="46.8429" lon="5.86835">
        <ele>679.1</ele>
        <time>2020-02-22T15:31:53Z</time>
      </trkpt>
      <trkpt lat="46.84288" lon="5.86841">
        <ele>679.2</ele>
        <time>2020-02-22T15:31:58Z</time>
      </trkpt>
      <trkpt lat="46.84285" lon="5.86846">
        <ele>679.8</ele>
        <time>2020-02-22T15:32:05Z</time>
      </trkpt>
      <trkpt lat="46.8428" lon="5.86863">
        <ele>683.1</ele>
        <time>2020-02-22T15:32:19Z</time>
      </trkpt>
      <trkpt lat="46.8428" lon="5.8687">
        <ele>684.4</ele>
        <time>2020-02-22T15:32:24Z</time>
      </trkpt>
      <trkpt lat="46.84278" lon="5.86878">
        <ele>685.8</ele>
        <time>2020-02-22T15:32:29Z</time>
      </trkpt>
      <trkpt lat="46.84278" lon="5.86886">
        <ele>686.6</ele>
        <time>2020-02-22T15:32:32Z</time>
      </trkpt>
      <trkpt lat="46.84277" lon="5.86894">
        <ele>687.3</ele>
        <time>2020-02-22T15:32:35Z</time>
      </trkpt>
      <trkpt lat="46.84277" lon="5.86901">
        <ele>688.1</ele>
        <time>2020-02-22T15:32:39Z</time>
      </trkpt>
      <trkpt lat="46.84277" lon="5.86907">
        <ele>689.2</ele>
        <time>2020-02-22T15:32:44Z</time>
      </trkpt>
      <trkpt lat="46.84278" lon="5.86914">
        <ele>690.2</ele>
        <time>2020-02-22T15:32:50Z</time>
      </trkpt>
      <trkpt lat="46.84278" lon="5.86921">
        <ele>691.4</ele>
        <time>2020-02-22T15:32:56Z</time>
      </trkpt>
      <trkpt lat="46.84277" lon="5.86928">
        <ele>692.5</ele>
        <time>2020-02-22T15:33:02Z</time>
      </trkpt>
      <trkpt lat="46.84275" lon="5.86933">
        <ele>696.4</ele>
        <time>2020-02-22T15:33:28Z</time>
      </trkpt>
      <trkpt lat="46.84272" lon="5.86939">
        <ele>697.5</ele>
        <time>2020-02-22T15:33:33Z</time>
      </trkpt>
      <trkpt lat="46.8427" lon="5.86945">
        <ele>697.9</ele>
        <time>2020-02-22T15:33:37Z</time>
      </trkpt>
      <trkpt lat="46.84268" lon="5.86952">
        <ele>697.9</ele>
        <time>2020-02-22T15:33:42Z</time>
      </trkpt>
      <trkpt lat="46.84266" lon="5.86957">
        <ele>697</ele>
        <time>2020-02-22T15:33:50Z</time>
      </trkpt>
      <trkpt lat="46.84267" lon="5.86964">
        <ele>695.5</ele>
        <time>2020-02-22T15:34:04Z</time>
      </trkpt>
      <trkpt lat="46.84268" lon="5.86974">
        <ele>684.2</ele>
        <time>2020-02-22T15:35:24Z</time>
      </trkpt>
      <trkpt lat="46.84266" lon="5.86981">
        <ele>684</ele>
        <time>2020-02-22T15:35:28Z</time>
      </trkpt>
      <trkpt lat="46.84263" lon="5.86988">
        <ele>684.2</ele>
        <time>2020-02-22T15:35:33Z</time>
      </trkpt>
      <trkpt lat="46.84261" lon="5.86995">
        <ele>684.2</ele>
        <time>2020-02-22T15:35:36Z</time>
      </trkpt>
      <trkpt lat="46.84256" lon="5.86998">
        <ele>684.3</ele>
        <time>2020-02-22T15:35:45Z</time>
      </trkpt>
      <trkpt lat="46.84253" lon="5.87004">
        <ele>684</ele>
        <time>2020-02-22T15:35:49Z</time>
      </trkpt>
      <trkpt lat="46.8425" lon="5.87009">
        <ele>683.7</ele>
        <time>2020-02-22T15:35:52Z</time>
      </trkpt>
      <trkpt lat="46.84246" lon="5.87015">
        <ele>683.3</ele>
        <time>2020-02-22T15:35:56Z</time>
      </trkpt>
      <trkpt lat="46.84242" lon="5.87019">
        <ele>682.9</ele>
        <time>2020-02-22T15:36:01Z</time>
      </trkpt>
      <trkpt lat="46.84238" lon="5.87024">
        <ele>682.5</ele>
        <time>2020-02-22T15:36:07Z</time>
      </trkpt>
      <trkpt lat="46.84235" lon="5.8703">
        <ele>682.4</ele>
        <time>2020-02-22T15:36:12Z</time>
      </trkpt>
      <trkpt lat="46.84232" lon="5.87036">
        <ele>682.5</ele>
        <time>2020-02-22T15:36:18Z</time>
      </trkpt>
      <trkpt lat="46.8423" lon="5.87041">
        <ele>682.6</ele>
        <time>2020-02-22T15:36:23Z</time>
      </trkpt>
      <trkpt lat="46.84228" lon="5.87048">
        <ele>683.2</ele>
        <time>2020-02-22T15:36:31Z</time>
      </trkpt>
      <trkpt lat="46.84226" lon="5.87054">
        <ele>683.7</ele>
        <time>2020-02-22T15:36:37Z</time>
      </trkpt>
      <trkpt lat="46.84223" lon="5.87059">
        <ele>684.5</ele>
        <time>2020-02-22T15:36:43Z</time>
      </trkpt>
      <trkpt lat="46.84218" lon="5.87063">
        <ele>685</ele>
        <time>2020-02-22T15:36:49Z</time>
      </trkpt>
      <trkpt lat="46.84214" lon="5.87068">
        <ele>684.9</ele>
        <time>2020-02-22T15:36:54Z</time>
      </trkpt>
      <trkpt lat="46.84211" lon="5.87072">
        <ele>684.4</ele>
        <time>2020-02-22T15:36:59Z</time>
      </trkpt>
      <trkpt lat="46.84207" lon="5.87079">
        <ele>683.5</ele>
        <time>2020-02-22T15:37:05Z</time>
      </trkpt>
      <trkpt lat="46.84204" lon="5.87083">
        <ele>683.1</ele>
        <time>2020-02-22T15:37:09Z</time>
      </trkpt>
      <trkpt lat="46.84201" lon="5.87089">
        <ele>682.6</ele>
        <time>2020-02-22T15:37:14Z</time>
      </trkpt>
      <trkpt lat="46.84198" lon="5.87094">
        <ele>682.5</ele>
        <time>2020-02-22T15:37:17Z</time>
      </trkpt>
      <trkpt lat="46.84195" lon="5.871">
        <ele>682.4</ele>
        <time>2020-02-22T15:37:21Z</time>
      </trkpt>
      <trkpt lat="46.84193" lon="5.87106">
        <ele>682.3</ele>
        <time>2020-02-22T15:37:26Z</time>
      </trkpt>
      <trkpt lat="46.84192" lon="5.87113">
        <ele>682.6</ele>
        <time>2020-02-22T15:37:33Z</time>
      </trkpt>
      <trkpt lat="46.84191" lon="5.87121">
        <ele>682.7</ele>
        <time>2020-02-22T15:37:38Z</time>
      </trkpt>
      <trkpt lat="46.84189" lon="5.87128">
        <ele>682.8</ele>
        <time>2020-02-22T15:37:42Z</time>
      </trkpt>
      <trkpt lat="46.8419" lon="5.87151">
        <ele>684</ele>
        <time>2020-02-22T15:37:53Z</time>
      </trkpt>
      <trkpt lat="46.84192" lon="5.87158">
        <ele>684.1</ele>
        <time>2020-02-22T15:37:58Z</time>
      </trkpt>
      <trkpt lat="46.84192" lon="5.87165">
        <ele>684.2</ele>
        <time>2020-02-22T15:38:03Z</time>
      </trkpt>
      <trkpt lat="46.84191" lon="5.87172">
        <ele>684.7</ele>
        <time>2020-02-22T15:38:09Z</time>
      </trkpt>
      <trkpt lat="46.8419" lon="5.8718">
        <ele>685.1</ele>
        <time>2020-02-22T15:38:14Z</time>
      </trkpt>
      <trkpt lat="46.84189" lon="5.87186">
        <ele>685.4</ele>
        <time>2020-02-22T15:38:20Z</time>
      </trkpt>
      <trkpt lat="46.84187" lon="5.87192">
        <ele>685.5</ele>
        <time>2020-02-22T15:38:25Z</time>
      </trkpt>
      <trkpt lat="46.84187" lon="5.87199">
        <ele>685.7</ele>
        <time>2020-02-22T15:38:31Z</time>
      </trkpt>
      <trkpt lat="46.84187" lon="5.87207">
        <ele>685.6</ele>
        <time>2020-02-22T15:38:39Z</time>
      </trkpt>
      <trkpt lat="46.84185" lon="5.87214">
        <ele>685.3</ele>
        <time>2020-02-22T15:38:44Z</time>
      </trkpt>
      <trkpt lat="46.84183" lon="5.8722">
        <ele>685.1</ele>
        <time>2020-02-22T15:38:49Z</time>
      </trkpt>
      <trkpt lat="46.8418" lon="5.87229">
        <ele>684.6</ele>
        <time>2020-02-22T15:38:56Z</time>
      </trkpt>
      <trkpt lat="46.84178" lon="5.87235">
        <ele>684.4</ele>
        <time>2020-02-22T15:39:01Z</time>
      </trkpt>
      <trkpt lat="46.84174" lon="5.87241">
        <ele>684.3</ele>
        <time>2020-02-22T15:39:07Z</time>
      </trkpt>
      <trkpt lat="46.84171" lon="5.87247">
        <ele>684.6</ele>
        <time>2020-02-22T15:39:12Z</time>
      </trkpt>
      <trkpt lat="46.84167" lon="5.87252">
        <ele>685.6</ele>
        <time>2020-02-22T15:39:17Z</time>
      </trkpt>
      <trkpt lat="46.84164" lon="5.87258">
        <ele>686.4</ele>
        <time>2020-02-22T15:39:21Z</time>
      </trkpt>
      <trkpt lat="46.8416" lon="5.87262">
        <ele>687</ele>
        <time>2020-02-22T15:39:26Z</time>
      </trkpt>
      <trkpt lat="46.84157" lon="5.87268">
        <ele>687.5</ele>
        <time>2020-02-22T15:39:31Z</time>
      </trkpt>
      <trkpt lat="46.84154" lon="5.87274">
        <ele>687.5</ele>
        <time>2020-02-22T15:39:36Z</time>
      </trkpt>
      <trkpt lat="46.84151" lon="5.87281">
        <ele>687.1</ele>
        <time>2020-02-22T15:39:41Z</time>
      </trkpt>
      <trkpt lat="46.84147" lon="5.87285">
        <ele>686.6</ele>
        <time>2020-02-22T15:39:45Z</time>
      </trkpt>
      <trkpt lat="46.84144" lon="5.87291">
        <ele>686.1</ele>
        <time>2020-02-22T15:39:49Z</time>
      </trkpt>
      <trkpt lat="46.84141" lon="5.87297">
        <ele>685.6</ele>
        <time>2020-02-22T15:39:53Z</time>
      </trkpt>
      <trkpt lat="46.84139" lon="5.87302">
        <ele>685.2</ele>
        <time>2020-02-22T15:39:58Z</time>
      </trkpt>
      <trkpt lat="46.84137" lon="5.87303">
        <ele>679.4</ele>
        <time>2020-02-22T15:40:31Z</time>
      </trkpt>
      <trkpt lat="46.8414" lon="5.87302">
        <ele>678</ele>
        <time>2020-02-22T15:41:14Z</time>
      </trkpt>
      <trkpt lat="46.84145" lon="5.87308">
        <ele>678</ele>
        <time>2020-02-22T15:41:23Z</time>
      </trkpt>
      <trkpt lat="46.84151" lon="5.87314">
        <ele>678</ele>
        <time>2020-02-22T15:41:25Z</time>
      </trkpt>
      <trkpt lat="46.84155" lon="5.87319">
        <ele>677.9</ele>
        <time>2020-02-22T15:41:29Z</time>
      </trkpt>
      <trkpt lat="46.84157" lon="5.87325">
        <ele>677.9</ele>
        <time>2020-02-22T15:41:33Z</time>
      </trkpt>
      <trkpt lat="46.84161" lon="5.8733">
        <ele>678</ele>
        <time>2020-02-22T15:41:43Z</time>
      </trkpt>
      <trkpt lat="46.84167" lon="5.87331">
        <ele>678.3</ele>
        <time>2020-02-22T15:41:48Z</time>
      </trkpt>
      <trkpt lat="46.84171" lon="5.87335">
        <ele>679.3</ele>
        <time>2020-02-22T15:41:59Z</time>
      </trkpt>
      <trkpt lat="46.84175" lon="5.87338">
        <ele>679.9</ele>
        <time>2020-02-22T15:42:05Z</time>
      </trkpt>
      <trkpt lat="46.84179" lon="5.87342">
        <ele>680.3</ele>
        <time>2020-02-22T15:42:11Z</time>
      </trkpt>
      <trkpt lat="46.8418" lon="5.8736">
        <ele>680.5</ele>
        <time>2020-02-22T15:42:36Z</time>
      </trkpt>
      <trkpt lat="46.84185" lon="5.87365">
        <ele>680</ele>
        <time>2020-02-22T15:42:42Z</time>
      </trkpt>
      <trkpt lat="46.84189" lon="5.87368">
        <ele>679.9</ele>
        <time>2020-02-22T15:42:47Z</time>
      </trkpt>
      <trkpt lat="46.84194" lon="5.87372">
        <ele>680.2</ele>
        <time>2020-02-22T15:42:52Z</time>
      </trkpt>
      <trkpt lat="46.84197" lon="5.87376">
        <ele>680.8</ele>
        <time>2020-02-22T15:42:56Z</time>
      </trkpt>
      <trkpt lat="46.84198" lon="5.87396">
        <ele>681</ele>
        <time>2020-02-22T15:43:39Z</time>
      </trkpt>
      <trkpt lat="46.84197" lon="5.87403">
        <ele>681.5</ele>
        <time>2020-02-22T15:43:45Z</time>
      </trkpt>
      <trkpt lat="46.84195" lon="5.87421">
        <ele>681.2</ele>
        <time>2020-02-22T15:44:01Z</time>
      </trkpt>
      <trkpt lat="46.84196" lon="5.87429">
        <ele>681.1</ele>
        <time>2020-02-22T15:44:05Z</time>
      </trkpt>
      <trkpt lat="46.84195" lon="5.87436">
        <ele>681.2</ele>
        <time>2020-02-22T15:44:09Z</time>
      </trkpt>
      <trkpt lat="46.84193" lon="5.87442">
        <ele>681.6</ele>
        <time>2020-02-22T15:44:16Z</time>
      </trkpt>
      <trkpt lat="46.84189" lon="5.87447">
        <ele>682.7</ele>
        <time>2020-02-22T15:44:25Z</time>
      </trkpt>
      <trkpt lat="46.84185" lon="5.87451">
        <ele>683.5</ele>
        <time>2020-02-22T15:44:33Z</time>
      </trkpt>
      <trkpt lat="46.84181" lon="5.87456">
        <ele>683.6</ele>
        <time>2020-02-22T15:44:36Z</time>
      </trkpt>
      <trkpt lat="46.84176" lon="5.8746">
        <ele>683.3</ele>
        <time>2020-02-22T15:44:39Z</time>
      </trkpt>
      <trkpt lat="46.84165" lon="5.8747">
        <ele>679.8</ele>
        <time>2020-02-22T15:44:52Z</time>
      </trkpt>
      <trkpt lat="46.84163" lon="5.87476">
        <ele>678.4</ele>
        <time>2020-02-22T15:44:57Z</time>
      </trkpt>
      <trkpt lat="46.84161" lon="5.87482">
        <ele>676.1</ele>
        <time>2020-02-22T15:45:03Z</time>
      </trkpt>
      <trkpt lat="46.84159" lon="5.8749">
        <ele>673.7</ele>
        <time>2020-02-22T15:45:09Z</time>
      </trkpt>
      <trkpt lat="46.84154" lon="5.875">
        <ele>669.2</ele>
        <time>2020-02-22T15:45:19Z</time>
      </trkpt>
      <trkpt lat="46.84152" lon="5.87507">
        <ele>667.9</ele>
        <time>2020-02-22T15:45:24Z</time>
      </trkpt>
      <trkpt lat="46.84151" lon="5.87514">
        <ele>666.4</ele>
        <time>2020-02-22T15:45:33Z</time>
      </trkpt>
      <trkpt lat="46.8415" lon="5.87521">
        <ele>665.8</ele>
        <time>2020-02-22T15:45:37Z</time>
      </trkpt>
      <trkpt lat="46.8415" lon="5.87528">
        <ele>664.9</ele>
        <time>2020-02-22T15:45:44Z</time>
      </trkpt>
      <trkpt lat="46.84151" lon="5.87535">
        <ele>664.2</ele>
        <time>2020-02-22T15:45:51Z</time>
      </trkpt>
      <trkpt lat="46.84152" lon="5.87543">
        <ele>663.9</ele>
        <time>2020-02-22T15:45:57Z</time>
      </trkpt>
      <trkpt lat="46.84153" lon="5.8755">
        <ele>663.8</ele>
        <time>2020-02-22T15:46:04Z</time>
      </trkpt>
      <trkpt lat="46.84155" lon="5.87557">
        <ele>664</ele>
        <time>2020-02-22T15:46:09Z</time>
      </trkpt>
      <trkpt lat="46.84157" lon="5.87564">
        <ele>664.2</ele>
        <time>2020-02-22T15:46:13Z</time>
      </trkpt>
      <trkpt lat="46.84159" lon="5.87571">
        <ele>664.4</ele>
        <time>2020-02-22T15:46:18Z</time>
      </trkpt>
      <trkpt lat="46.84161" lon="5.8758">
        <ele>664</ele>
        <time>2020-02-22T15:46:25Z</time>
      </trkpt>
      <trkpt lat="46.84163" lon="5.87586">
        <ele>663.9</ele>
        <time>2020-02-22T15:46:28Z</time>
      </trkpt>
      <trkpt lat="46.84166" lon="5.87592">
        <ele>664.3</ele>
        <time>2020-02-22T15:46:41Z</time>
      </trkpt>
      <trkpt lat="46.84167" lon="5.87599">
        <ele>665.4</ele>
        <time>2020-02-22T15:46:48Z</time>
      </trkpt>
      <trkpt lat="46.84171" lon="5.87611">
        <ele>669.8</ele>
        <time>2020-02-22T15:47:38Z</time>
      </trkpt>
      <trkpt lat="46.84174" lon="5.87621">
        <ele>670.1</ele>
        <time>2020-02-22T15:47:41Z</time>
      </trkpt>
      <trkpt lat="46.84176" lon="5.87628">
        <ele>670.4</ele>
        <time>2020-02-22T15:47:46Z</time>
      </trkpt>
      <trkpt lat="46.84178" lon="5.87634">
        <ele>670.6</ele>
        <time>2020-02-22T15:47:50Z</time>
      </trkpt>
      <trkpt lat="46.84179" lon="5.87641">
        <ele>671</ele>
        <time>2020-02-22T15:47:58Z</time>
      </trkpt>
      <trkpt lat="46.84189" lon="5.8766">
        <ele>669.2</ele>
        <time>2020-02-22T15:48:18Z</time>
      </trkpt>
      <trkpt lat="46.84194" lon="5.87675">
        <ele>665.2</ele>
        <time>2020-02-22T15:48:36Z</time>
      </trkpt>
      <trkpt lat="46.84196" lon="5.87681">
        <ele>664.7</ele>
        <time>2020-02-22T15:48:41Z</time>
      </trkpt>
      <trkpt lat="46.84199" lon="5.8769">
        <ele>664.6</ele>
        <time>2020-02-22T15:48:49Z</time>
      </trkpt>
      <trkpt lat="46.84203" lon="5.87695">
        <ele>665.1</ele>
        <time>2020-02-22T15:48:55Z</time>
      </trkpt>
      <trkpt lat="46.84206" lon="5.87701">
        <ele>665.3</ele>
        <time>2020-02-22T15:49:01Z</time>
      </trkpt>
      <trkpt lat="46.84211" lon="5.87705">
        <ele>665.1</ele>
        <time>2020-02-22T15:49:08Z</time>
      </trkpt>
      <trkpt lat="46.84214" lon="5.87709">
        <ele>664.9</ele>
        <time>2020-02-22T15:49:15Z</time>
      </trkpt>
      <trkpt lat="46.84217" lon="5.87715">
        <ele>664.7</ele>
        <time>2020-02-22T15:49:18Z</time>
      </trkpt>
      <trkpt lat="46.84219" lon="5.87721">
        <ele>664.1</ele>
        <time>2020-02-22T15:49:24Z</time>
      </trkpt>
      <trkpt lat="46.84222" lon="5.87727">
        <ele>663.7</ele>
        <time>2020-02-22T15:49:30Z</time>
      </trkpt>
      <trkpt lat="46.84225" lon="5.87732">
        <ele>663.5</ele>
        <time>2020-02-22T15:49:34Z</time>
      </trkpt>
      <trkpt lat="46.84228" lon="5.87736">
        <ele>663.4</ele>
        <time>2020-02-22T15:49:37Z</time>
      </trkpt>
      <trkpt lat="46.84234" lon="5.87739">
        <ele>663.6</ele>
        <time>2020-02-22T15:49:40Z</time>
      </trkpt>
      <trkpt lat="46.84238" lon="5.87743">
        <ele>663.9</ele>
        <time>2020-02-22T15:49:44Z</time>
      </trkpt>
      <trkpt lat="46.84234" lon="5.87762">
        <ele>665.7</ele>
        <time>2020-02-22T15:49:59Z</time>
      </trkpt>
      <trkpt lat="46.84234" lon="5.87769">
        <ele>666.2</ele>
        <time>2020-02-22T15:50:04Z</time>
      </trkpt>
      <trkpt lat="46.84233" lon="5.87776">
        <ele>667.6</ele>
        <time>2020-02-22T15:50:13Z</time>
      </trkpt>
      <trkpt lat="46.84234" lon="5.87783">
        <ele>669.3</ele>
        <time>2020-02-22T15:50:19Z</time>
      </trkpt>
      <trkpt lat="46.84234" lon="5.8779">
        <ele>672.9</ele>
        <time>2020-02-22T15:50:36Z</time>
      </trkpt>
      <trkpt lat="46.84233" lon="5.87798">
        <ele>673.8</ele>
        <time>2020-02-22T15:50:44Z</time>
      </trkpt>
      <trkpt lat="46.84233" lon="5.87806">
        <ele>674.3</ele>
        <time>2020-02-22T15:50:48Z</time>
      </trkpt>
      <trkpt lat="46.84233" lon="5.87815">
        <ele>674.6</ele>
        <time>2020-02-22T15:50:51Z</time>
      </trkpt>
      <trkpt lat="46.84232" lon="5.87821">
        <ele>674.9</ele>
        <time>2020-02-22T15:50:56Z</time>
      </trkpt>
      <trkpt lat="46.84227" lon="5.87827">
        <ele>674.1</ele>
        <time>2020-02-22T15:51:02Z</time>
      </trkpt>
      <trkpt lat="46.84223" lon="5.87831">
        <ele>673.5</ele>
        <time>2020-02-22T15:51:05Z</time>
      </trkpt>
      <trkpt lat="46.84219" lon="5.87834">
        <ele>672.4</ele>
        <time>2020-02-22T15:51:11Z</time>
      </trkpt>
      <trkpt lat="46.84212" lon="5.87846">
        <ele>660.4</ele>
        <time>2020-02-22T15:51:58Z</time>
      </trkpt>
      <trkpt lat="46.84208" lon="5.87852">
        <ele>658.4</ele>
        <time>2020-02-22T15:52:09Z</time>
      </trkpt>
      <trkpt lat="46.84206" lon="5.87859">
        <ele>658.3</ele>
        <time>2020-02-22T15:52:11Z</time>
      </trkpt>
      <trkpt lat="46.84204" lon="5.87866">
        <ele>658.3</ele>
        <time>2020-02-22T15:52:15Z</time>
      </trkpt>
      <trkpt lat="46.842" lon="5.87872">
        <ele>658.5</ele>
        <time>2020-02-22T15:52:19Z</time>
      </trkpt>
      <trkpt lat="46.84198" lon="5.87879">
        <ele>659.4</ele>
        <time>2020-02-22T15:52:25Z</time>
      </trkpt>
      <trkpt lat="46.84195" lon="5.87886">
        <ele>660.7</ele>
        <time>2020-02-22T15:52:30Z</time>
      </trkpt>
      <trkpt lat="46.84192" lon="5.87892">
        <ele>661.9</ele>
        <time>2020-02-22T15:52:34Z</time>
      </trkpt>
      <trkpt lat="46.84189" lon="5.87897">
        <ele>662.6</ele>
        <time>2020-02-22T15:52:36Z</time>
      </trkpt>
      <trkpt lat="46.84186" lon="5.87904">
        <ele>664.3</ele>
        <time>2020-02-22T15:52:41Z</time>
      </trkpt>
      <trkpt lat="46.84183" lon="5.87909">
        <ele>665.2</ele>
        <time>2020-02-22T15:52:44Z</time>
      </trkpt>
      <trkpt lat="46.84181" lon="5.87915">
        <ele>665.9</ele>
        <time>2020-02-22T15:52:47Z</time>
      </trkpt>
      <trkpt lat="46.84177" lon="5.87922">
        <ele>666.4</ele>
        <time>2020-02-22T15:52:51Z</time>
      </trkpt>
      <trkpt lat="46.84173" lon="5.87926">
        <ele>666.8</ele>
        <time>2020-02-22T15:52:55Z</time>
      </trkpt>
      <trkpt lat="46.84169" lon="5.87929">
        <ele>667.3</ele>
        <time>2020-02-22T15:53:01Z</time>
      </trkpt>
      <trkpt lat="46.84163" lon="5.87931">
        <ele>667.7</ele>
        <time>2020-02-22T15:53:05Z</time>
      </trkpt>
      <trkpt lat="46.84158" lon="5.87933">
        <ele>667.9</ele>
        <time>2020-02-22T15:53:08Z</time>
      </trkpt>
      <trkpt lat="46.84154" lon="5.87937">
        <ele>668.4</ele>
        <time>2020-02-22T15:53:13Z</time>
      </trkpt>
      <trkpt lat="46.8415" lon="5.87943">
        <ele>669</ele>
        <time>2020-02-22T15:53:18Z</time>
      </trkpt>
      <trkpt lat="46.84146" lon="5.87946">
        <ele>669.8</ele>
        <time>2020-02-22T15:53:23Z</time>
      </trkpt>
      <trkpt lat="46.84142" lon="5.87952">
        <ele>670.5</ele>
        <time>2020-02-22T15:53:29Z</time>
      </trkpt>
      <trkpt lat="46.8414" lon="5.8796">
        <ele>670.8</ele>
        <time>2020-02-22T15:53:33Z</time>
      </trkpt>
      <trkpt lat="46.84137" lon="5.87965">
        <ele>670.9</ele>
        <time>2020-02-22T15:53:37Z</time>
      </trkpt>
      <trkpt lat="46.84133" lon="5.8797">
        <ele>670.9</ele>
        <time>2020-02-22T15:53:42Z</time>
      </trkpt>
      <trkpt lat="46.84129" lon="5.87973">
        <ele>670.9</ele>
        <time>2020-02-22T15:53:45Z</time>
      </trkpt>
      <trkpt lat="46.84125" lon="5.87979">
        <ele>670.9</ele>
        <time>2020-02-22T15:53:49Z</time>
      </trkpt>
      <trkpt lat="46.84121" lon="5.87984">
        <ele>670.9</ele>
        <time>2020-02-22T15:53:54Z</time>
      </trkpt>
      <trkpt lat="46.84117" lon="5.8799">
        <ele>670.7</ele>
        <time>2020-02-22T15:53:59Z</time>
      </trkpt>
      <trkpt lat="46.84113" lon="5.87996">
        <ele>670.4</ele>
        <time>2020-02-22T15:54:03Z</time>
      </trkpt>
      <trkpt lat="46.8411" lon="5.88001">
        <ele>669.9</ele>
        <time>2020-02-22T15:54:09Z</time>
      </trkpt>
      <trkpt lat="46.84106" lon="5.88006">
        <ele>669.5</ele>
        <time>2020-02-22T15:54:13Z</time>
      </trkpt>
      <trkpt lat="46.84102" lon="5.8801">
        <ele>669.3</ele>
        <time>2020-02-22T15:54:16Z</time>
      </trkpt>
      <trkpt lat="46.84097" lon="5.88013">
        <ele>669</ele>
        <time>2020-02-22T15:54:20Z</time>
      </trkpt>
      <trkpt lat="46.84093" lon="5.88015">
        <ele>668.7</ele>
        <time>2020-02-22T15:54:24Z</time>
      </trkpt>
      <trkpt lat="46.84089" lon="5.8802">
        <ele>668.4</ele>
        <time>2020-02-22T15:54:29Z</time>
      </trkpt>
      <trkpt lat="46.84086" lon="5.88024">
        <ele>668.1</ele>
        <time>2020-02-22T15:54:33Z</time>
      </trkpt>
      <trkpt lat="46.84083" lon="5.8803">
        <ele>667.6</ele>
        <time>2020-02-22T15:54:37Z</time>
      </trkpt>
      <trkpt lat="46.84079" lon="5.88034">
        <ele>667</ele>
        <time>2020-02-22T15:54:42Z</time>
      </trkpt>
      <trkpt lat="46.84075" lon="5.88038">
        <ele>666.4</ele>
        <time>2020-02-22T15:54:47Z</time>
      </trkpt>
      <trkpt lat="46.84072" lon="5.88044">
        <ele>665.8</ele>
        <time>2020-02-22T15:54:54Z</time>
      </trkpt>
      <trkpt lat="46.84068" lon="5.88049">
        <ele>665.2</ele>
        <time>2020-02-22T15:55:01Z</time>
      </trkpt>
      <trkpt lat="46.84065" lon="5.88055">
        <ele>664.7</ele>
        <time>2020-02-22T15:55:06Z</time>
      </trkpt>
      <trkpt lat="46.84062" lon="5.8806">
        <ele>664.2</ele>
        <time>2020-02-22T15:55:12Z</time>
      </trkpt>
      <trkpt lat="46.84058" lon="5.88064">
        <ele>663.8</ele>
        <time>2020-02-22T15:55:16Z</time>
      </trkpt>
      <trkpt lat="46.84054" lon="5.88069">
        <ele>663.6</ele>
        <time>2020-02-22T15:55:21Z</time>
      </trkpt>
      <trkpt lat="46.84051" lon="5.88074">
        <ele>663.4</ele>
        <time>2020-02-22T15:55:26Z</time>
      </trkpt>
      <trkpt lat="46.84048" lon="5.8808">
        <ele>663.2</ele>
        <time>2020-02-22T15:55:31Z</time>
      </trkpt>
      <trkpt lat="46.84044" lon="5.88085">
        <ele>663.2</ele>
        <time>2020-02-22T15:55:35Z</time>
      </trkpt>
      <trkpt lat="46.8404" lon="5.88089">
        <ele>663.1</ele>
        <time>2020-02-22T15:55:38Z</time>
      </trkpt>
      <trkpt lat="46.84037" lon="5.88094">
        <ele>663.1</ele>
        <time>2020-02-22T15:55:42Z</time>
      </trkpt>
      <trkpt lat="46.84033" lon="5.88098">
        <ele>662.7</ele>
        <time>2020-02-22T15:55:50Z</time>
      </trkpt>
      <trkpt lat="46.8403" lon="5.88104">
        <ele>662.7</ele>
        <time>2020-02-22T15:55:55Z</time>
      </trkpt>
      <trkpt lat="46.84027" lon="5.88109">
        <ele>662.8</ele>
        <time>2020-02-22T15:56:00Z</time>
      </trkpt>
      <trkpt lat="46.84022" lon="5.88114">
        <ele>663.1</ele>
        <time>2020-02-22T15:56:06Z</time>
      </trkpt>
      <trkpt lat="46.84018" lon="5.88118">
        <ele>663.5</ele>
        <time>2020-02-22T15:56:11Z</time>
      </trkpt>
      <trkpt lat="46.84016" lon="5.88125">
        <ele>663.6</ele>
        <time>2020-02-22T15:56:18Z</time>
      </trkpt>
      <trkpt lat="46.84013" lon="5.88131">
        <ele>663.4</ele>
        <time>2020-02-22T15:56:25Z</time>
      </trkpt>
      <trkpt lat="46.84014" lon="5.88138">
        <ele>660.9</ele>
        <time>2020-02-22T15:56:43Z</time>
      </trkpt>
      <trkpt lat="46.84011" lon="5.88144">
        <ele>659.4</ele>
        <time>2020-02-22T15:56:50Z</time>
      </trkpt>
      <trkpt lat="46.84007" lon="5.8815">
        <ele>658.5</ele>
        <time>2020-02-22T15:56:56Z</time>
      </trkpt>
      <trkpt lat="46.84003" lon="5.88154">
        <ele>658.2</ele>
        <time>2020-02-22T15:56:59Z</time>
      </trkpt>
      <trkpt lat="46.83999" lon="5.88166">
        <ele>658.2</ele>
        <time>2020-02-22T15:57:12Z</time>
      </trkpt>
      <trkpt lat="46.83995" lon="5.88172">
        <ele>658.7</ele>
        <time>2020-02-22T15:57:17Z</time>
      </trkpt>
      <trkpt lat="46.83992" lon="5.88177">
        <ele>659.5</ele>
        <time>2020-02-22T15:57:24Z</time>
      </trkpt>
      <trkpt lat="46.83989" lon="5.88183">
        <ele>660.7</ele>
        <time>2020-02-22T15:57:37Z</time>
      </trkpt>
      <trkpt lat="46.83986" lon="5.8819">
        <ele>661</ele>
        <time>2020-02-22T15:57:43Z</time>
      </trkpt>
      <trkpt lat="46.83983" lon="5.88195">
        <ele>661.1</ele>
        <time>2020-02-22T15:57:48Z</time>
      </trkpt>
      <trkpt lat="46.8398" lon="5.882">
        <ele>661.3</ele>
        <time>2020-02-22T15:57:53Z</time>
      </trkpt>
      <trkpt lat="46.83976" lon="5.88205">
        <ele>661.8</ele>
        <time>2020-02-22T15:57:58Z</time>
      </trkpt>
      <trkpt lat="46.83973" lon="5.8821">
        <ele>662.3</ele>
        <time>2020-02-22T15:58:03Z</time>
      </trkpt>
      <trkpt lat="46.83971" lon="5.88216">
        <ele>662.7</ele>
        <time>2020-02-22T15:58:09Z</time>
      </trkpt>
      <trkpt lat="46.83967" lon="5.88222">
        <ele>662.5</ele>
        <time>2020-02-22T15:58:14Z</time>
      </trkpt>
      <trkpt lat="46.83963" lon="5.88227">
        <ele>662.2</ele>
        <time>2020-02-22T15:58:18Z</time>
      </trkpt>
      <trkpt lat="46.8396" lon="5.88232">
        <ele>661.5</ele>
        <time>2020-02-22T15:58:24Z</time>
      </trkpt>
      <trkpt lat="46.83957" lon="5.88237">
        <ele>661.1</ele>
        <time>2020-02-22T15:58:29Z</time>
      </trkpt>
      <trkpt lat="46.83954" lon="5.88243">
        <ele>661.2</ele>
        <time>2020-02-22T15:58:34Z</time>
      </trkpt>
      <trkpt lat="46.8395" lon="5.88247">
        <ele>661.2</ele>
        <time>2020-02-22T15:58:38Z</time>
      </trkpt>
      <trkpt lat="46.83947" lon="5.88252">
        <ele>661.3</ele>
        <time>2020-02-22T15:58:41Z</time>
      </trkpt>
      <trkpt lat="46.83943" lon="5.88257">
        <ele>661.5</ele>
        <time>2020-02-22T15:58:45Z</time>
      </trkpt>
      <trkpt lat="46.83939" lon="5.88262">
        <ele>661.7</ele>
        <time>2020-02-22T15:58:51Z</time>
      </trkpt>
      <trkpt lat="46.83936" lon="5.88267">
        <ele>661.8</ele>
        <time>2020-02-22T15:58:57Z</time>
      </trkpt>
      <trkpt lat="46.83933" lon="5.88273">
        <ele>661.6</ele>
        <time>2020-02-22T15:59:04Z</time>
      </trkpt>
      <trkpt lat="46.83929" lon="5.88278">
        <ele>661.5</ele>
        <time>2020-02-22T15:59:09Z</time>
      </trkpt>
      <trkpt lat="46.83926" lon="5.88283">
        <ele>661.4</ele>
        <time>2020-02-22T15:59:12Z</time>
      </trkpt>
      <trkpt lat="46.83922" lon="5.88289">
        <ele>661.2</ele>
        <time>2020-02-22T15:59:17Z</time>
      </trkpt>
      <trkpt lat="46.83918" lon="5.88294">
        <ele>661.1</ele>
        <time>2020-02-22T15:59:22Z</time>
      </trkpt>
      <trkpt lat="46.83915" lon="5.88299">
        <ele>661.1</ele>
        <time>2020-02-22T15:59:26Z</time>
      </trkpt>
      <trkpt lat="46.83911" lon="5.88305">
        <ele>661</ele>
        <time>2020-02-22T15:59:32Z</time>
      </trkpt>
      <trkpt lat="46.83908" lon="5.8831">
        <ele>660.8</ele>
        <time>2020-02-22T15:59:38Z</time>
      </trkpt>
      <trkpt lat="46.83904" lon="5.88314">
        <ele>660.8</ele>
        <time>2020-02-22T15:59:43Z</time>
      </trkpt>
      <trkpt lat="46.839" lon="5.88318">
        <ele>660.9</ele>
        <time>2020-02-22T15:59:46Z</time>
      </trkpt>
      <trkpt lat="46.83896" lon="5.88322">
        <ele>661.1</ele>
        <time>2020-02-22T15:59:49Z</time>
      </trkpt>
      <trkpt lat="46.83893" lon="5.88327">
        <ele>661.3</ele>
        <time>2020-02-22T15:59:54Z</time>
      </trkpt>
      <trkpt lat="46.83888" lon="5.88332">
        <ele>661.3</ele>
        <time>2020-02-22T15:59:58Z</time>
      </trkpt>
      <trkpt lat="46.83884" lon="5.88336">
        <ele>661.2</ele>
        <time>2020-02-22T16:00:02Z</time>
      </trkpt>
      <trkpt lat="46.83879" lon="5.8834">
        <ele>661</ele>
        <time>2020-02-22T16:00:06Z</time>
      </trkpt>
      <trkpt lat="46.83876" lon="5.88346">
        <ele>660.6</ele>
        <time>2020-02-22T16:00:11Z</time>
      </trkpt>
      <trkpt lat="46.83874" lon="5.88352">
        <ele>660</ele>
        <time>2020-02-22T16:00:18Z</time>
      </trkpt>
      <trkpt lat="46.83871" lon="5.88358">
        <ele>659.6</ele>
        <time>2020-02-22T16:00:24Z</time>
      </trkpt>
      <trkpt lat="46.8387" lon="5.88365">
        <ele>659.5</ele>
        <time>2020-02-22T16:00:31Z</time>
      </trkpt>
      <trkpt lat="46.83867" lon="5.88372">
        <ele>659.7</ele>
        <time>2020-02-22T16:00:36Z</time>
      </trkpt>
      <trkpt lat="46.83865" lon="5.88378">
        <ele>659.7</ele>
        <time>2020-02-22T16:00:41Z</time>
      </trkpt>
      <trkpt lat="46.83862" lon="5.88384">
        <ele>659.7</ele>
        <time>2020-02-22T16:00:50Z</time>
      </trkpt>
      <trkpt lat="46.83858" lon="5.88388">
        <ele>659.7</ele>
        <time>2020-02-22T16:00:56Z</time>
      </trkpt>
      <trkpt lat="46.83854" lon="5.8839">
        <ele>660.6</ele>
        <time>2020-02-22T16:01:08Z</time>
      </trkpt>
      <trkpt lat="46.8385" lon="5.88395">
        <ele>661.3</ele>
        <time>2020-02-22T16:01:15Z</time>
      </trkpt>
      <trkpt lat="46.83845" lon="5.88399">
        <ele>661.4</ele>
        <time>2020-02-22T16:01:20Z</time>
      </trkpt>
      <trkpt lat="46.83842" lon="5.88404">
        <ele>661.1</ele>
        <time>2020-02-22T16:01:26Z</time>
      </trkpt>
      <trkpt lat="46.8384" lon="5.8841">
        <ele>661.1</ele>
        <time>2020-02-22T16:01:31Z</time>
      </trkpt>
      <trkpt lat="46.83836" lon="5.88414">
        <ele>660.8</ele>
        <time>2020-02-22T16:01:37Z</time>
      </trkpt>
      <trkpt lat="46.83833" lon="5.88419">
        <ele>660.4</ele>
        <time>2020-02-22T16:01:41Z</time>
      </trkpt>
      <trkpt lat="46.83829" lon="5.88424">
        <ele>660.1</ele>
        <time>2020-02-22T16:01:45Z</time>
      </trkpt>
      <trkpt lat="46.83826" lon="5.8843">
        <ele>659.6</ele>
        <time>2020-02-22T16:01:49Z</time>
      </trkpt>
      <trkpt lat="46.83822" lon="5.88435">
        <ele>658</ele>
        <time>2020-02-22T16:02:05Z</time>
      </trkpt>
      <trkpt lat="46.83819" lon="5.8844">
        <ele>656.4</ele>
        <time>2020-02-22T16:02:14Z</time>
      </trkpt>
      <trkpt lat="46.83816" lon="5.88445">
        <ele>655.6</ele>
        <time>2020-02-22T16:02:20Z</time>
      </trkpt>
      <trkpt lat="46.83811" lon="5.88447">
        <ele>655.7</ele>
        <time>2020-02-22T16:02:28Z</time>
      </trkpt>
      <trkpt lat="46.83806" lon="5.88448">
        <ele>655.1</ele>
        <time>2020-02-22T16:02:38Z</time>
      </trkpt>
      <trkpt lat="46.83803" lon="5.88453">
        <ele>653.6</ele>
        <time>2020-02-22T16:02:45Z</time>
      </trkpt>
      <trkpt lat="46.83799" lon="5.88459">
        <ele>651.9</ele>
        <time>2020-02-22T16:02:51Z</time>
      </trkpt>
      <trkpt lat="46.83795" lon="5.88465">
        <ele>650.7</ele>
        <time>2020-02-22T16:02:55Z</time>
      </trkpt>
      <trkpt lat="46.83793" lon="5.88471">
        <ele>649.5</ele>
        <time>2020-02-22T16:02:59Z</time>
      </trkpt>
      <trkpt lat="46.83789" lon="5.88476">
        <ele>647.8</ele>
        <time>2020-02-22T16:03:04Z</time>
      </trkpt>
      <trkpt lat="46.83786" lon="5.88482">
        <ele>646.2</ele>
        <time>2020-02-22T16:03:09Z</time>
      </trkpt>
      <trkpt lat="46.83782" lon="5.88486">
        <ele>645</ele>
        <time>2020-02-22T16:03:14Z</time>
      </trkpt>
      <trkpt lat="46.83778" lon="5.8849">
        <ele>644.1</ele>
        <time>2020-02-22T16:03:19Z</time>
      </trkpt>
      <trkpt lat="46.83774" lon="5.88495">
        <ele>643</ele>
        <time>2020-02-22T16:03:26Z</time>
      </trkpt>
      <trkpt lat="46.83772" lon="5.88501">
        <ele>642.7</ele>
        <time>2020-02-22T16:03:30Z</time>
      </trkpt>
      <trkpt lat="46.8377" lon="5.88507">
        <ele>642.5</ele>
        <time>2020-02-22T16:03:34Z</time>
      </trkpt>
      <trkpt lat="46.83768" lon="5.88514">
        <ele>642.4</ele>
        <time>2020-02-22T16:03:40Z</time>
      </trkpt>
      <trkpt lat="46.83763" lon="5.88514">
        <ele>642.2</ele>
        <time>2020-02-22T16:03:47Z</time>
      </trkpt>
      <trkpt lat="46.83762" lon="5.8852">
        <ele>640.3</ele>
        <time>2020-02-22T16:04:00Z</time>
      </trkpt>
      <trkpt lat="46.83758" lon="5.88524">
        <ele>640.9</ele>
        <time>2020-02-22T16:04:08Z</time>
      </trkpt>
      <trkpt lat="46.83754" lon="5.8853">
        <ele>641.3</ele>
        <time>2020-02-22T16:04:15Z</time>
      </trkpt>
      <trkpt lat="46.83752" lon="5.88536">
        <ele>641.1</ele>
        <time>2020-02-22T16:04:21Z</time>
      </trkpt>
      <trkpt lat="46.83749" lon="5.88543">
        <ele>641</ele>
        <time>2020-02-22T16:04:25Z</time>
      </trkpt>
      <trkpt lat="46.83746" lon="5.88549">
        <ele>640.8</ele>
        <time>2020-02-22T16:04:33Z</time>
      </trkpt>
      <trkpt lat="46.83743" lon="5.88554">
        <ele>641</ele>
        <time>2020-02-22T16:04:39Z</time>
      </trkpt>
      <trkpt lat="46.83739" lon="5.88558">
        <ele>641.2</ele>
        <time>2020-02-22T16:04:45Z</time>
      </trkpt>
      <trkpt lat="46.83735" lon="5.88556">
        <ele>635.2</ele>
        <time>2020-02-22T16:05:39Z</time>
      </trkpt>
      <trkpt lat="46.8374" lon="5.88559">
        <ele>632.5</ele>
        <time>2020-02-22T16:05:49Z</time>
      </trkpt>
      <trkpt lat="46.83738" lon="5.88565">
        <ele>633.6</ele>
        <time>2020-02-22T16:06:10Z</time>
      </trkpt>
      <trkpt lat="46.83735" lon="5.88571">
        <ele>635.3</ele>
        <time>2020-02-22T16:06:17Z</time>
      </trkpt>
      <trkpt lat="46.83733" lon="5.88578">
        <ele>636.9</ele>
        <time>2020-02-22T16:06:23Z</time>
      </trkpt>
      <trkpt lat="46.8373" lon="5.88584">
        <ele>637.7</ele>
        <time>2020-02-22T16:06:27Z</time>
      </trkpt>
      <trkpt lat="46.83728" lon="5.8859">
        <ele>638.3</ele>
        <time>2020-02-22T16:06:30Z</time>
      </trkpt>
      <trkpt lat="46.83725" lon="5.88595">
        <ele>638.7</ele>
        <time>2020-02-22T16:06:33Z</time>
      </trkpt>
      <trkpt lat="46.83722" lon="5.88602">
        <ele>639.8</ele>
        <time>2020-02-22T16:06:39Z</time>
      </trkpt>
      <trkpt lat="46.83718" lon="5.88608">
        <ele>640.8</ele>
        <time>2020-02-22T16:06:43Z</time>
      </trkpt>
      <trkpt lat="46.83714" lon="5.88613">
        <ele>641.5</ele>
        <time>2020-02-22T16:06:46Z</time>
      </trkpt>
      <trkpt lat="46.8371" lon="5.88617">
        <ele>642.1</ele>
        <time>2020-02-22T16:06:49Z</time>
      </trkpt>
      <trkpt lat="46.83706" lon="5.88622">
        <ele>643</ele>
        <time>2020-02-22T16:06:53Z</time>
      </trkpt>
      <trkpt lat="46.83702" lon="5.88627">
        <ele>643.7</ele>
        <time>2020-02-22T16:06:57Z</time>
      </trkpt>
      <trkpt lat="46.83699" lon="5.88631">
        <ele>644.3</ele>
        <time>2020-02-22T16:07:01Z</time>
      </trkpt>
      <trkpt lat="46.83694" lon="5.88635">
        <ele>644.7</ele>
        <time>2020-02-22T16:07:05Z</time>
      </trkpt>
      <trkpt lat="46.8369" lon="5.88639">
        <ele>644.9</ele>
        <time>2020-02-22T16:07:10Z</time>
      </trkpt>
      <trkpt lat="46.83686" lon="5.88644">
        <ele>644.9</ele>
        <time>2020-02-22T16:07:15Z</time>
      </trkpt>
      <trkpt lat="46.83682" lon="5.88649">
        <ele>644.8</ele>
        <time>2020-02-22T16:07:19Z</time>
      </trkpt>
      <trkpt lat="46.83678" lon="5.88653">
        <ele>644.8</ele>
        <time>2020-02-22T16:07:22Z</time>
      </trkpt>
      <trkpt lat="46.83674" lon="5.88659">
        <ele>645</ele>
        <time>2020-02-22T16:07:27Z</time>
      </trkpt>
      <trkpt lat="46.8367" lon="5.88663">
        <ele>645.4</ele>
        <time>2020-02-22T16:07:31Z</time>
      </trkpt>
      <trkpt lat="46.83667" lon="5.88668">
        <ele>645.7</ele>
        <time>2020-02-22T16:07:35Z</time>
      </trkpt>
      <trkpt lat="46.83664" lon="5.88674">
        <ele>645.9</ele>
        <time>2020-02-22T16:07:38Z</time>
      </trkpt>
      <trkpt lat="46.83662" lon="5.88681">
        <ele>645.8</ele>
        <time>2020-02-22T16:07:42Z</time>
      </trkpt>
      <trkpt lat="46.83659" lon="5.88687">
        <ele>645.7</ele>
        <time>2020-02-22T16:07:47Z</time>
      </trkpt>
      <trkpt lat="46.83656" lon="5.88693">
        <ele>645.5</ele>
        <time>2020-02-22T16:07:51Z</time>
      </trkpt>
      <trkpt lat="46.83652" lon="5.88698">
        <ele>645.4</ele>
        <time>2020-02-22T16:07:56Z</time>
      </trkpt>
      <trkpt lat="46.83648" lon="5.88701">
        <ele>645.3</ele>
        <time>2020-02-22T16:08:02Z</time>
      </trkpt>
      <trkpt lat="46.83644" lon="5.88707">
        <ele>644.9</ele>
        <time>2020-02-22T16:08:08Z</time>
      </trkpt>
      <trkpt lat="46.8364" lon="5.88712">
        <ele>644.6</ele>
        <time>2020-02-22T16:08:11Z</time>
      </trkpt>
      <trkpt lat="46.83636" lon="5.88717">
        <ele>644.2</ele>
        <time>2020-02-22T16:08:14Z</time>
      </trkpt>
      <trkpt lat="46.83633" lon="5.88722">
        <ele>643.3</ele>
        <time>2020-02-22T16:08:19Z</time>
      </trkpt>
      <trkpt lat="46.83629" lon="5.88728">
        <ele>642.3</ele>
        <time>2020-02-22T16:08:24Z</time>
      </trkpt>
      <trkpt lat="46.83624" lon="5.88732">
        <ele>641.5</ele>
        <time>2020-02-22T16:08:30Z</time>
      </trkpt>
      <trkpt lat="46.83621" lon="5.88738">
        <ele>641</ele>
        <time>2020-02-22T16:08:35Z</time>
      </trkpt>
      <trkpt lat="46.83617" lon="5.88743">
        <ele>640.6</ele>
        <time>2020-02-22T16:08:38Z</time>
      </trkpt>
      <trkpt lat="46.83614" lon="5.88748">
        <ele>640.2</ele>
        <time>2020-02-22T16:08:41Z</time>
      </trkpt>
      <trkpt lat="46.83611" lon="5.88753">
        <ele>639.9</ele>
        <time>2020-02-22T16:08:45Z</time>
      </trkpt>
      <trkpt lat="46.83607" lon="5.88758">
        <ele>639.5</ele>
        <time>2020-02-22T16:08:49Z</time>
      </trkpt>
      <trkpt lat="46.83603" lon="5.88764">
        <ele>639.3</ele>
        <time>2020-02-22T16:08:55Z</time>
      </trkpt>
      <trkpt lat="46.836" lon="5.88771">
        <ele>639.4</ele>
        <time>2020-02-22T16:09:03Z</time>
      </trkpt>
      <trkpt lat="46.83599" lon="5.88779">
        <ele>639.5</ele>
        <time>2020-02-22T16:09:07Z</time>
      </trkpt>
      <trkpt lat="46.83596" lon="5.88785">
        <ele>639.7</ele>
        <time>2020-02-22T16:09:12Z</time>
      </trkpt>
      <trkpt lat="46.83592" lon="5.88789">
        <ele>639.7</ele>
        <time>2020-02-22T16:09:19Z</time>
      </trkpt>
      <trkpt lat="46.83589" lon="5.88795">
        <ele>639.6</ele>
        <time>2020-02-22T16:09:25Z</time>
      </trkpt>
      <trkpt lat="46.83585" lon="5.88799">
        <ele>639.4</ele>
        <time>2020-02-22T16:09:30Z</time>
      </trkpt>
      <trkpt lat="46.83582" lon="5.88805">
        <ele>639.1</ele>
        <time>2020-02-22T16:09:35Z</time>
      </trkpt>
      <trkpt lat="46.83579" lon="5.88809">
        <ele>639</ele>
        <time>2020-02-22T16:09:39Z</time>
      </trkpt>
      <trkpt lat="46.83575" lon="5.88813">
        <ele>639</ele>
        <time>2020-02-22T16:09:42Z</time>
      </trkpt>
      <trkpt lat="46.83571" lon="5.88816">
        <ele>639.1</ele>
        <time>2020-02-22T16:09:45Z</time>
      </trkpt>
      <trkpt lat="46.83566" lon="5.88821">
        <ele>639.4</ele>
        <time>2020-02-22T16:09:50Z</time>
      </trkpt>
      <trkpt lat="46.83563" lon="5.88826">
        <ele>639.9</ele>
        <time>2020-02-22T16:09:55Z</time>
      </trkpt>
      <trkpt lat="46.83559" lon="5.8883">
        <ele>640.5</ele>
        <time>2020-02-22T16:10:02Z</time>
      </trkpt>
      <trkpt lat="46.83555" lon="5.88834">
        <ele>640.8</ele>
        <time>2020-02-22T16:10:06Z</time>
      </trkpt>
      <trkpt lat="46.83551" lon="5.88838">
        <ele>641</ele>
        <time>2020-02-22T16:10:11Z</time>
      </trkpt>
      <trkpt lat="46.83549" lon="5.88844">
        <ele>641.1</ele>
        <time>2020-02-22T16:10:16Z</time>
      </trkpt>
      <trkpt lat="46.83546" lon="5.8885">
        <ele>641</ele>
        <time>2020-02-22T16:10:21Z</time>
      </trkpt>
      <trkpt lat="46.83545" lon="5.88856">
        <ele>640.9</ele>
        <time>2020-02-22T16:10:26Z</time>
      </trkpt>
      <trkpt lat="46.83541" lon="5.88861">
        <ele>640</ele>
        <time>2020-02-22T16:10:36Z</time>
      </trkpt>
      <trkpt lat="46.83537" lon="5.88866">
        <ele>638.8</ele>
        <time>2020-02-22T16:10:44Z</time>
      </trkpt>
      <trkpt lat="46.83538" lon="5.88873">
        <ele>637.1</ele>
        <time>2020-02-22T16:11:02Z</time>
      </trkpt>
      <trkpt lat="46.83534" lon="5.8888">
        <ele>633.1</ele>
        <time>2020-02-22T16:12:21Z</time>
      </trkpt>
      <trkpt lat="46.83531" lon="5.88885">
        <ele>632.8</ele>
        <time>2020-02-22T16:12:26Z</time>
      </trkpt>
      <trkpt lat="46.83528" lon="5.88892">
        <ele>632.9</ele>
        <time>2020-02-22T16:12:31Z</time>
      </trkpt>
      <trkpt lat="46.83526" lon="5.88898">
        <ele>633.1</ele>
        <time>2020-02-22T16:12:34Z</time>
      </trkpt>
      <trkpt lat="46.83522" lon="5.88902">
        <ele>633.6</ele>
        <time>2020-02-22T16:12:39Z</time>
      </trkpt>
      <trkpt lat="46.83518" lon="5.88906">
        <ele>634</ele>
        <time>2020-02-22T16:12:43Z</time>
      </trkpt>
      <trkpt lat="46.83513" lon="5.8891">
        <ele>634.2</ele>
        <time>2020-02-22T16:12:47Z</time>
      </trkpt>
      <trkpt lat="46.8351" lon="5.88916">
        <ele>634.3</ele>
        <time>2020-02-22T16:12:52Z</time>
      </trkpt>
      <trkpt lat="46.83507" lon="5.88921">
        <ele>634.2</ele>
        <time>2020-02-22T16:12:58Z</time>
      </trkpt>
      <trkpt lat="46.83503" lon="5.88924">
        <ele>634</ele>
        <time>2020-02-22T16:13:02Z</time>
      </trkpt>
      <trkpt lat="46.83498" lon="5.88927">
        <ele>633.6</ele>
        <time>2020-02-22T16:13:06Z</time>
      </trkpt>
      <trkpt lat="46.83494" lon="5.88931">
        <ele>632.8</ele>
        <time>2020-02-22T16:13:12Z</time>
      </trkpt>
      <trkpt lat="46.83491" lon="5.88936">
        <ele>632.2</ele>
        <time>2020-02-22T16:13:17Z</time>
      </trkpt>
      <trkpt lat="46.83487" lon="5.88943">
        <ele>631.7</ele>
        <time>2020-02-22T16:13:23Z</time>
      </trkpt>
      <trkpt lat="46.83478" lon="5.88956">
        <ele>631.7</ele>
        <time>2020-02-22T16:13:38Z</time>
      </trkpt>
      <trkpt lat="46.83475" lon="5.88963">
        <ele>632</ele>
        <time>2020-02-22T16:13:40Z</time>
      </trkpt>
      <trkpt lat="46.83472" lon="5.88969">
        <ele>632.6</ele>
        <time>2020-02-22T16:13:44Z</time>
      </trkpt>
      <trkpt lat="46.83469" lon="5.88974">
        <ele>633.2</ele>
        <time>2020-02-22T16:13:48Z</time>
      </trkpt>
      <trkpt lat="46.83466" lon="5.8898">
        <ele>633.7</ele>
        <time>2020-02-22T16:13:52Z</time>
      </trkpt>
      <trkpt lat="46.83464" lon="5.88987">
        <ele>634.1</ele>
        <time>2020-02-22T16:13:56Z</time>
      </trkpt>
      <trkpt lat="46.83461" lon="5.88992">
        <ele>634.6</ele>
        <time>2020-02-22T16:14:02Z</time>
      </trkpt>
      <trkpt lat="46.83457" lon="5.88997">
        <ele>635</ele>
        <time>2020-02-22T16:14:07Z</time>
      </trkpt>
      <trkpt lat="46.83453" lon="5.89">
        <ele>635.2</ele>
        <time>2020-02-22T16:14:12Z</time>
      </trkpt>
      <trkpt lat="46.8345" lon="5.89006">
        <ele>635.6</ele>
        <time>2020-02-22T16:14:22Z</time>
      </trkpt>
      <trkpt lat="46.83448" lon="5.89013">
        <ele>636.1</ele>
        <time>2020-02-22T16:14:27Z</time>
      </trkpt>
      <trkpt lat="46.83437" lon="5.89037">
        <ele>639.6</ele>
        <time>2020-02-22T16:14:42Z</time>
      </trkpt>
      <trkpt lat="46.83433" lon="5.89041">
        <ele>639.7</ele>
        <time>2020-02-22T16:14:45Z</time>
      </trkpt>
      <trkpt lat="46.83428" lon="5.89044">
        <ele>639.8</ele>
        <time>2020-02-22T16:14:48Z</time>
      </trkpt>
      <trkpt lat="46.83424" lon="5.89046">
        <ele>639.8</ele>
        <time>2020-02-22T16:14:51Z</time>
      </trkpt>
      <trkpt lat="46.83419" lon="5.89047">
        <ele>639.7</ele>
        <time>2020-02-22T16:14:54Z</time>
      </trkpt>
      <trkpt lat="46.83414" lon="5.89046">
        <ele>639.3</ele>
        <time>2020-02-22T16:14:58Z</time>
      </trkpt>
      <trkpt lat="46.83409" lon="5.89047">
        <ele>639</ele>
        <time>2020-02-22T16:15:02Z</time>
      </trkpt>
      <trkpt lat="46.83404" lon="5.89045">
        <ele>638.3</ele>
        <time>2020-02-22T16:15:10Z</time>
      </trkpt>
      <trkpt lat="46.83399" lon="5.89042">
        <ele>637.8</ele>
        <time>2020-02-22T16:15:15Z</time>
      </trkpt>
      <trkpt lat="46.83395" lon="5.89039">
        <ele>637.4</ele>
        <time>2020-02-22T16:15:19Z</time>
      </trkpt>
      <trkpt lat="46.83389" lon="5.89037">
        <ele>637.1</ele>
        <time>2020-02-22T16:15:23Z</time>
      </trkpt>
      <trkpt lat="46.83384" lon="5.89035">
        <ele>636.8</ele>
        <time>2020-02-22T16:15:27Z</time>
      </trkpt>
      <trkpt lat="46.83379" lon="5.89032">
        <ele>636.6</ele>
        <time>2020-02-22T16:15:31Z</time>
      </trkpt>
      <trkpt lat="46.83374" lon="5.89028">
        <ele>636.5</ele>
        <time>2020-02-22T16:15:35Z</time>
      </trkpt>
      <trkpt lat="46.8337" lon="5.89026">
        <ele>636.2</ele>
        <time>2020-02-22T16:15:39Z</time>
      </trkpt>
      <trkpt lat="46.83364" lon="5.89025">
        <ele>635.8</ele>
        <time>2020-02-22T16:15:42Z</time>
      </trkpt>
      <trkpt lat="46.83359" lon="5.89023">
        <ele>635</ele>
        <time>2020-02-22T16:15:46Z</time>
      </trkpt>
      <trkpt lat="46.83355" lon="5.89019">
        <ele>634.1</ele>
        <time>2020-02-22T16:15:50Z</time>
      </trkpt>
      <trkpt lat="46.8335" lon="5.89015">
        <ele>633.2</ele>
        <time>2020-02-22T16:15:54Z</time>
      </trkpt>
      <trkpt lat="46.83346" lon="5.89011">
        <ele>632.4</ele>
        <time>2020-02-22T16:15:58Z</time>
      </trkpt>
      <trkpt lat="46.83342" lon="5.89007">
        <ele>631.8</ele>
        <time>2020-02-22T16:16:02Z</time>
      </trkpt>
      <trkpt lat="46.83337" lon="5.89002">
        <ele>631</ele>
        <time>2020-02-22T16:16:07Z</time>
      </trkpt>
      <trkpt lat="46.83334" lon="5.88997">
        <ele>630.3</ele>
        <time>2020-02-22T16:16:11Z</time>
      </trkpt>
      <trkpt lat="46.83331" lon="5.8899">
        <ele>629.3</ele>
        <time>2020-02-22T16:16:16Z</time>
      </trkpt>
      <trkpt lat="46.83328" lon="5.88986">
        <ele>628.6</ele>
        <time>2020-02-22T16:16:20Z</time>
      </trkpt>
      <trkpt lat="46.83325" lon="5.88981">
        <ele>628</ele>
        <time>2020-02-22T16:16:24Z</time>
      </trkpt>
      <trkpt lat="46.83321" lon="5.88976">
        <ele>627.3</ele>
        <time>2020-02-22T16:16:28Z</time>
      </trkpt>
      <trkpt lat="46.83318" lon="5.88971">
        <ele>626.7</ele>
        <time>2020-02-22T16:16:33Z</time>
      </trkpt>
      <trkpt lat="46.83315" lon="5.88966">
        <ele>626</ele>
        <time>2020-02-22T16:16:38Z</time>
      </trkpt>
      <trkpt lat="46.83312" lon="5.88961">
        <ele>625.4</ele>
        <time>2020-02-22T16:16:42Z</time>
      </trkpt>
      <trkpt lat="46.83309" lon="5.88955">
        <ele>624.5</ele>
        <time>2020-02-22T16:16:51Z</time>
      </trkpt>
      <trkpt lat="46.83305" lon="5.88951">
        <ele>625</ele>
        <time>2020-02-22T16:17:07Z</time>
      </trkpt>
      <trkpt lat="46.83302" lon="5.88946">
        <ele>625</ele>
        <time>2020-02-22T16:17:13Z</time>
      </trkpt>
      <trkpt lat="46.83298" lon="5.8894">
        <ele>625</ele>
        <time>2020-02-22T16:17:17Z</time>
      </trkpt>
      <trkpt lat="46.83295" lon="5.88935">
        <ele>624.9</ele>
        <time>2020-02-22T16:17:22Z</time>
      </trkpt>
      <trkpt lat="46.83291" lon="5.88931">
        <ele>624.8</ele>
        <time>2020-02-22T16:17:26Z</time>
      </trkpt>
      <trkpt lat="46.83287" lon="5.88926">
        <ele>624.7</ele>
        <time>2020-02-22T16:17:32Z</time>
      </trkpt>
      <trkpt lat="46.83284" lon="5.8892">
        <ele>624.4</ele>
        <time>2020-02-22T16:17:37Z</time>
      </trkpt>
      <trkpt lat="46.83281" lon="5.88915">
        <ele>624.2</ele>
        <time>2020-02-22T16:17:43Z</time>
      </trkpt>
      <trkpt lat="46.83277" lon="5.88911">
        <ele>624.1</ele>
        <time>2020-02-22T16:17:49Z</time>
      </trkpt>
      <trkpt lat="46.83273" lon="5.88908">
        <ele>624.2</ele>
        <time>2020-02-22T16:17:56Z</time>
      </trkpt>
      <trkpt lat="46.83269" lon="5.88904">
        <ele>623.9</ele>
        <time>2020-02-22T16:18:02Z</time>
      </trkpt>
      <trkpt lat="46.83265" lon="5.88899">
        <ele>623.7</ele>
        <time>2020-02-22T16:18:07Z</time>
      </trkpt>
      <trkpt lat="46.83261" lon="5.88894">
        <ele>623.5</ele>
        <time>2020-02-22T16:18:12Z</time>
      </trkpt>
      <trkpt lat="46.83258" lon="5.88889">
        <ele>623.3</ele>
        <time>2020-02-22T16:18:17Z</time>
      </trkpt>
      <trkpt lat="46.83255" lon="5.88883">
        <ele>623</ele>
        <time>2020-02-22T16:18:23Z</time>
      </trkpt>
      <trkpt lat="46.8325" lon="5.88881">
        <ele>623.6</ele>
        <time>2020-02-22T16:18:45Z</time>
      </trkpt>
      <trkpt lat="46.83246" lon="5.88877">
        <ele>624</ele>
        <time>2020-02-22T16:18:54Z</time>
      </trkpt>
      <trkpt lat="46.83243" lon="5.88872">
        <ele>623.8</ele>
        <time>2020-02-22T16:19:00Z</time>
      </trkpt>
      <trkpt lat="46.8324" lon="5.88867">
        <ele>623.5</ele>
        <time>2020-02-22T16:19:04Z</time>
      </trkpt>
      <trkpt lat="46.83236" lon="5.88861">
        <ele>623</ele>
        <time>2020-02-22T16:19:09Z</time>
      </trkpt>
      <trkpt lat="46.83234" lon="5.88855">
        <ele>622.7</ele>
        <time>2020-02-22T16:19:14Z</time>
      </trkpt>
      <trkpt lat="46.8323" lon="5.8885">
        <ele>622.5</ele>
        <time>2020-02-22T16:19:19Z</time>
      </trkpt>
      <trkpt lat="46.83225" lon="5.88845">
        <ele>622.3</ele>
        <time>2020-02-22T16:19:24Z</time>
      </trkpt>
      <trkpt lat="46.83221" lon="5.88841">
        <ele>622.1</ele>
        <time>2020-02-22T16:19:28Z</time>
      </trkpt>
      <trkpt lat="46.83218" lon="5.88836">
        <ele>622</ele>
        <time>2020-02-22T16:19:32Z</time>
      </trkpt>
      <trkpt lat="46.83214" lon="5.88832">
        <ele>622</ele>
        <time>2020-02-22T16:19:36Z</time>
      </trkpt>
      <trkpt lat="46.8321" lon="5.88828">
        <ele>622</ele>
        <time>2020-02-22T16:19:41Z</time>
      </trkpt>
      <trkpt lat="46.83205" lon="5.88825">
        <ele>622</ele>
        <time>2020-02-22T16:19:46Z</time>
      </trkpt>
      <trkpt lat="46.832" lon="5.88821">
        <ele>622.1</ele>
        <time>2020-02-22T16:19:50Z</time>
      </trkpt>
      <trkpt lat="46.83196" lon="5.88818">
        <ele>622.3</ele>
        <time>2020-02-22T16:20:02Z</time>
      </trkpt>
      <trkpt lat="46.83191" lon="5.88816">
        <ele>622.4</ele>
        <time>2020-02-22T16:20:08Z</time>
      </trkpt>
      <trkpt lat="46.83187" lon="5.88813">
        <ele>622.8</ele>
        <time>2020-02-22T16:20:13Z</time>
      </trkpt>
      <trkpt lat="46.83182" lon="5.88811">
        <ele>623.2</ele>
        <time>2020-02-22T16:20:17Z</time>
      </trkpt>
      <trkpt lat="46.83177" lon="5.8881">
        <ele>623.5</ele>
        <time>2020-02-22T16:20:21Z</time>
      </trkpt>
      <trkpt lat="46.83172" lon="5.88808">
        <ele>623.7</ele>
        <time>2020-02-22T16:20:25Z</time>
      </trkpt>
      <trkpt lat="46.83168" lon="5.88806">
        <ele>624</ele>
        <time>2020-02-22T16:20:29Z</time>
      </trkpt>
      <trkpt lat="46.83163" lon="5.88803">
        <ele>624.2</ele>
        <time>2020-02-22T16:20:33Z</time>
      </trkpt>
      <trkpt lat="46.83159" lon="5.888">
        <ele>624.3</ele>
        <time>2020-02-22T16:20:37Z</time>
      </trkpt>
      <trkpt lat="46.83154" lon="5.88798">
        <ele>624.5</ele>
        <time>2020-02-22T16:20:41Z</time>
      </trkpt>
      <trkpt lat="46.8315" lon="5.88797">
        <ele>624.8</ele>
        <time>2020-02-22T16:20:45Z</time>
      </trkpt>
      <trkpt lat="46.83145" lon="5.88794">
        <ele>625</ele>
        <time>2020-02-22T16:20:49Z</time>
      </trkpt>
      <trkpt lat="46.83141" lon="5.8879">
        <ele>625.1</ele>
        <time>2020-02-22T16:20:54Z</time>
      </trkpt>
      <trkpt lat="46.83136" lon="5.88788">
        <ele>625</ele>
        <time>2020-02-22T16:20:59Z</time>
      </trkpt>
      <trkpt lat="46.83133" lon="5.88784">
        <ele>624.9</ele>
        <time>2020-02-22T16:21:03Z</time>
      </trkpt>
      <trkpt lat="46.83128" lon="5.8878">
        <ele>624.9</ele>
        <time>2020-02-22T16:21:07Z</time>
      </trkpt>
      <trkpt lat="46.83123" lon="5.88777">
        <ele>624.7</ele>
        <time>2020-02-22T16:21:12Z</time>
      </trkpt>
      <trkpt lat="46.83118" lon="5.88775">
        <ele>624.6</ele>
        <time>2020-02-22T16:21:16Z</time>
      </trkpt>
      <trkpt lat="46.83113" lon="5.88772">
        <ele>624.6</ele>
        <time>2020-02-22T16:21:21Z</time>
      </trkpt>
      <trkpt lat="46.83108" lon="5.88771">
        <ele>624.6</ele>
        <time>2020-02-22T16:21:26Z</time>
      </trkpt>
      <trkpt lat="46.83105" lon="5.88765">
        <ele>625.4</ele>
        <time>2020-02-22T16:21:49Z</time>
      </trkpt>
      <trkpt lat="46.83101" lon="5.88767">
        <ele>625.9</ele>
        <time>2020-02-22T16:21:57Z</time>
      </trkpt>
      <trkpt lat="46.83095" lon="5.88767">
        <ele>626.2</ele>
        <time>2020-02-22T16:22:01Z</time>
      </trkpt>
      <trkpt lat="46.8309" lon="5.88766">
        <ele>626.4</ele>
        <time>2020-02-22T16:22:05Z</time>
      </trkpt>
      <trkpt lat="46.83081" lon="5.88764">
        <ele>626.4</ele>
        <time>2020-02-22T16:22:17Z</time>
      </trkpt>
      <trkpt lat="46.83077" lon="5.88763">
        <ele>626.5</ele>
        <time>2020-02-22T16:22:21Z</time>
      </trkpt>
      <trkpt lat="46.83072" lon="5.88762">
        <ele>626.6</ele>
        <time>2020-02-22T16:22:28Z</time>
      </trkpt>
      <trkpt lat="46.83067" lon="5.8876">
        <ele>626.6</ele>
        <time>2020-02-22T16:22:33Z</time>
      </trkpt>
      <trkpt lat="46.83062" lon="5.88757">
        <ele>626.7</ele>
        <time>2020-02-22T16:22:39Z</time>
      </trkpt>
      <trkpt lat="46.83058" lon="5.88754">
        <ele>626.6</ele>
        <time>2020-02-22T16:22:45Z</time>
      </trkpt>
      <trkpt lat="46.83054" lon="5.8875">
        <ele>626.4</ele>
        <time>2020-02-22T16:22:50Z</time>
      </trkpt>
      <trkpt lat="46.8305" lon="5.88746">
        <ele>626.1</ele>
        <time>2020-02-22T16:22:54Z</time>
      </trkpt>
      <trkpt lat="46.83047" lon="5.88742">
        <ele>625.6</ele>
        <time>2020-02-22T16:22:59Z</time>
      </trkpt>
      <trkpt lat="46.83043" lon="5.88736">
        <ele>624.9</ele>
        <time>2020-02-22T16:23:04Z</time>
      </trkpt>
      <trkpt lat="46.83039" lon="5.88731">
        <ele>624.4</ele>
        <time>2020-02-22T16:23:08Z</time>
      </trkpt>
      <trkpt lat="46.83035" lon="5.88726">
        <ele>624.1</ele>
        <time>2020-02-22T16:23:12Z</time>
      </trkpt>
      <trkpt lat="46.83032" lon="5.88721">
        <ele>623.7</ele>
        <time>2020-02-22T16:23:17Z</time>
      </trkpt>
      <trkpt lat="46.83028" lon="5.88716">
        <ele>623.3</ele>
        <time>2020-02-22T16:23:21Z</time>
      </trkpt>
      <trkpt lat="46.83024" lon="5.88712">
        <ele>623</ele>
        <time>2020-02-22T16:23:25Z</time>
      </trkpt>
      <trkpt lat="46.83021" lon="5.88707">
        <ele>622.7</ele>
        <time>2020-02-22T16:23:30Z</time>
      </trkpt>
      <trkpt lat="46.83017" lon="5.88702">
        <ele>622.1</ele>
        <time>2020-02-22T16:23:36Z</time>
      </trkpt>
      <trkpt lat="46.83012" lon="5.88699">
        <ele>621.6</ele>
        <time>2020-02-22T16:23:40Z</time>
      </trkpt>
      <trkpt lat="46.83008" lon="5.88696">
        <ele>621.3</ele>
        <time>2020-02-22T16:23:44Z</time>
      </trkpt>
      <trkpt lat="46.83004" lon="5.88694">
        <ele>621.1</ele>
        <time>2020-02-22T16:23:49Z</time>
      </trkpt>
      <trkpt lat="46.82999" lon="5.88692">
        <ele>620.8</ele>
        <time>2020-02-22T16:23:53Z</time>
      </trkpt>
      <trkpt lat="46.82995" lon="5.88688">
        <ele>620.5</ele>
        <time>2020-02-22T16:23:57Z</time>
      </trkpt>
      <trkpt lat="46.8299" lon="5.88685">
        <ele>620.4</ele>
        <time>2020-02-22T16:24:01Z</time>
      </trkpt>
      <trkpt lat="46.82985" lon="5.88683">
        <ele>620.5</ele>
        <time>2020-02-22T16:24:05Z</time>
      </trkpt>
      <trkpt lat="46.82981" lon="5.88681">
        <ele>620.8</ele>
        <time>2020-02-22T16:24:10Z</time>
      </trkpt>
      <trkpt lat="46.82976" lon="5.88678">
        <ele>621.1</ele>
        <time>2020-02-22T16:24:14Z</time>
      </trkpt>
      <trkpt lat="46.82972" lon="5.88676">
        <ele>621.5</ele>
        <time>2020-02-22T16:24:19Z</time>
      </trkpt>
      <trkpt lat="46.82966" lon="5.88674">
        <ele>621.6</ele>
        <time>2020-02-22T16:24:24Z</time>
      </trkpt>
      <trkpt lat="46.82962" lon="5.88671">
        <ele>621.6</ele>
        <time>2020-02-22T16:24:29Z</time>
      </trkpt>
      <trkpt lat="46.82958" lon="5.88667">
        <ele>621.5</ele>
        <time>2020-02-22T16:24:33Z</time>
      </trkpt>
      <trkpt lat="46.82954" lon="5.88663">
        <ele>621.1</ele>
        <time>2020-02-22T16:24:39Z</time>
      </trkpt>
      <trkpt lat="46.82949" lon="5.88659">
        <ele>620.7</ele>
        <time>2020-02-22T16:24:44Z</time>
      </trkpt>
      <trkpt lat="46.82945" lon="5.88655">
        <ele>620.6</ele>
        <time>2020-02-22T16:24:48Z</time>
      </trkpt>
      <trkpt lat="46.82941" lon="5.88651">
        <ele>620.5</ele>
        <time>2020-02-22T16:24:51Z</time>
      </trkpt>
      <trkpt lat="46.82937" lon="5.88646">
        <ele>620.4</ele>
        <time>2020-02-22T16:24:55Z</time>
      </trkpt>
      <trkpt lat="46.82934" lon="5.88641">
        <ele>620.3</ele>
        <time>2020-02-22T16:25:00Z</time>
      </trkpt>
      <trkpt lat="46.8293" lon="5.88635">
        <ele>620.2</ele>
        <time>2020-02-22T16:25:05Z</time>
      </trkpt>
      <trkpt lat="46.82926" lon="5.8863">
        <ele>620</ele>
        <time>2020-02-22T16:25:09Z</time>
      </trkpt>
      <trkpt lat="46.82923" lon="5.88624">
        <ele>619.8</ele>
        <time>2020-02-22T16:25:13Z</time>
      </trkpt>
      <trkpt lat="46.8292" lon="5.88619">
        <ele>619.5</ele>
        <time>2020-02-22T16:25:17Z</time>
      </trkpt>
      <trkpt lat="46.82916" lon="5.88614">
        <ele>619.4</ele>
        <time>2020-02-22T16:25:21Z</time>
      </trkpt>
      <trkpt lat="46.82913" lon="5.88608">
        <ele>619.2</ele>
        <time>2020-02-22T16:25:26Z</time>
      </trkpt>
      <trkpt lat="46.82911" lon="5.88602">
        <ele>618.9</ele>
        <time>2020-02-22T16:25:31Z</time>
      </trkpt>
      <trkpt lat="46.82908" lon="5.88596">
        <ele>618.6</ele>
        <time>2020-02-22T16:25:36Z</time>
      </trkpt>
      <trkpt lat="46.82905" lon="5.88591">
        <ele>618.4</ele>
        <time>2020-02-22T16:25:40Z</time>
      </trkpt>
      <trkpt lat="46.82902" lon="5.88585">
        <ele>618.2</ele>
        <time>2020-02-22T16:25:44Z</time>
      </trkpt>
      <trkpt lat="46.82899" lon="5.88579">
        <ele>618.1</ele>
        <time>2020-02-22T16:25:48Z</time>
      </trkpt>
      <trkpt lat="46.82896" lon="5.88572">
        <ele>618</ele>
        <time>2020-02-22T16:25:53Z</time>
      </trkpt>
      <trkpt lat="46.82894" lon="5.88566">
        <ele>617.9</ele>
        <time>2020-02-22T16:25:57Z</time>
      </trkpt>
      <trkpt lat="46.82892" lon="5.8856">
        <ele>617.7</ele>
        <time>2020-02-22T16:26:03Z</time>
      </trkpt>
      <trkpt lat="46.82889" lon="5.88554">
        <ele>617.7</ele>
        <time>2020-02-22T16:26:07Z</time>
      </trkpt>
      <trkpt lat="46.82886" lon="5.88547">
        <ele>617.7</ele>
        <time>2020-02-22T16:26:11Z</time>
      </trkpt>
      <trkpt lat="46.82884" lon="5.88539">
        <ele>617.8</ele>
        <time>2020-02-22T16:26:16Z</time>
      </trkpt>
      <trkpt lat="46.82881" lon="5.88533">
        <ele>617.8</ele>
        <time>2020-02-22T16:26:20Z</time>
      </trkpt>
      <trkpt lat="46.82877" lon="5.88527">
        <ele>617.9</ele>
        <time>2020-02-22T16:26:24Z</time>
      </trkpt>
      <trkpt lat="46.82874" lon="5.88522">
        <ele>617.7</ele>
        <time>2020-02-22T16:26:28Z</time>
      </trkpt>
      <trkpt lat="46.82872" lon="5.88515">
        <ele>617.6</ele>
        <time>2020-02-22T16:26:32Z</time>
      </trkpt>
      <trkpt lat="46.82871" lon="5.88508">
        <ele>617.5</ele>
        <time>2020-02-22T16:26:36Z</time>
      </trkpt>
      <trkpt lat="46.8287" lon="5.885">
        <ele>617.7</ele>
        <time>2020-02-22T16:26:41Z</time>
      </trkpt>
      <trkpt lat="46.82869" lon="5.88493">
        <ele>617.7</ele>
        <time>2020-02-22T16:26:45Z</time>
      </trkpt>
      <trkpt lat="46.82867" lon="5.88486">
        <ele>617.7</ele>
        <time>2020-02-22T16:26:51Z</time>
      </trkpt>
      <trkpt lat="46.82864" lon="5.88479">
        <ele>618</ele>
        <time>2020-02-22T16:26:56Z</time>
      </trkpt>
      <trkpt lat="46.82862" lon="5.88472">
        <ele>618.3</ele>
        <time>2020-02-22T16:27:00Z</time>
      </trkpt>
      <trkpt lat="46.82861" lon="5.88465">
        <ele>618.4</ele>
        <time>2020-02-22T16:27:04Z</time>
      </trkpt>
      <trkpt lat="46.8286" lon="5.88459">
        <ele>618.6</ele>
        <time>2020-02-22T16:27:08Z</time>
      </trkpt>
      <trkpt lat="46.82858" lon="5.88452">
        <ele>618.6</ele>
        <time>2020-02-22T16:27:13Z</time>
      </trkpt>
      <trkpt lat="46.82856" lon="5.88445">
        <ele>618.5</ele>
        <time>2020-02-22T16:27:18Z</time>
      </trkpt>
      <trkpt lat="46.82852" lon="5.88438">
        <ele>618.3</ele>
        <time>2020-02-22T16:27:23Z</time>
      </trkpt>
      <trkpt lat="46.82848" lon="5.88432">
        <ele>618.4</ele>
        <time>2020-02-22T16:27:27Z</time>
      </trkpt>
      <trkpt lat="46.82846" lon="5.88426">
        <ele>618.6</ele>
        <time>2020-02-22T16:27:32Z</time>
      </trkpt>
      <trkpt lat="46.82844" lon="5.88419">
        <ele>619</ele>
        <time>2020-02-22T16:27:37Z</time>
      </trkpt>
      <trkpt lat="46.82844" lon="5.88412">
        <ele>619.3</ele>
        <time>2020-02-22T16:27:42Z</time>
      </trkpt>
      <trkpt lat="46.82842" lon="5.88404">
        <ele>619.6</ele>
        <time>2020-02-22T16:27:46Z</time>
      </trkpt>
      <trkpt lat="46.82841" lon="5.88397">
        <ele>619.9</ele>
        <time>2020-02-22T16:27:50Z</time>
      </trkpt>
      <trkpt lat="46.8284" lon="5.88389">
        <ele>620.4</ele>
        <time>2020-02-22T16:27:55Z</time>
      </trkpt>
      <trkpt lat="46.8284" lon="5.88381">
        <ele>620.7</ele>
        <time>2020-02-22T16:28:00Z</time>
      </trkpt>
      <trkpt lat="46.8284" lon="5.88374">
        <ele>621.1</ele>
        <time>2020-02-22T16:28:04Z</time>
      </trkpt>
      <trkpt lat="46.8284" lon="5.88367">
        <ele>621.4</ele>
        <time>2020-02-22T16:28:08Z</time>
      </trkpt>
      <trkpt lat="46.82839" lon="5.8836">
        <ele>621.8</ele>
        <time>2020-02-22T16:28:12Z</time>
      </trkpt>
      <trkpt lat="46.8284" lon="5.88353">
        <ele>622.3</ele>
        <time>2020-02-22T16:28:17Z</time>
      </trkpt>
      <trkpt lat="46.82841" lon="5.88346">
        <ele>622.5</ele>
        <time>2020-02-22T16:28:22Z</time>
      </trkpt>
      <trkpt lat="46.82843" lon="5.88338">
        <ele>622.5</ele>
        <time>2020-02-22T16:28:27Z</time>
      </trkpt>
      <trkpt lat="46.82844" lon="5.88331">
        <ele>622.7</ele>
        <time>2020-02-22T16:28:32Z</time>
      </trkpt>
      <trkpt lat="46.82846" lon="5.88324">
        <ele>623</ele>
        <time>2020-02-22T16:28:37Z</time>
      </trkpt>
      <trkpt lat="46.82848" lon="5.88316">
        <ele>623.3</ele>
        <time>2020-02-22T16:28:41Z</time>
      </trkpt>
      <trkpt lat="46.82849" lon="5.8831">
        <ele>623.6</ele>
        <time>2020-02-22T16:28:45Z</time>
      </trkpt>
      <trkpt lat="46.8285" lon="5.88304">
        <ele>624.2</ele>
        <time>2020-02-22T16:28:51Z</time>
      </trkpt>
      <trkpt lat="46.82852" lon="5.88297">
        <ele>624.6</ele>
        <time>2020-02-22T16:28:55Z</time>
      </trkpt>
      <trkpt lat="46.82852" lon="5.8829">
        <ele>625.1</ele>
        <time>2020-02-22T16:29:00Z</time>
      </trkpt>
      <trkpt lat="46.82852" lon="5.88282">
        <ele>625.6</ele>
        <time>2020-02-22T16:29:05Z</time>
      </trkpt>
      <trkpt lat="46.82852" lon="5.88275">
        <ele>625.9</ele>
        <time>2020-02-22T16:29:10Z</time>
      </trkpt>
      <trkpt lat="46.82854" lon="5.88268">
        <ele>626.1</ele>
        <time>2020-02-22T16:29:19Z</time>
      </trkpt>
      <trkpt lat="46.82854" lon="5.8826">
        <ele>626</ele>
        <time>2020-02-22T16:29:23Z</time>
      </trkpt>
      <trkpt lat="46.82853" lon="5.88253">
        <ele>626.1</ele>
        <time>2020-02-22T16:29:28Z</time>
      </trkpt>
      <trkpt lat="46.82851" lon="5.88247">
        <ele>626.3</ele>
        <time>2020-02-22T16:29:32Z</time>
      </trkpt>
      <trkpt lat="46.82848" lon="5.88242">
        <ele>626.6</ele>
        <time>2020-02-22T16:29:35Z</time>
      </trkpt>
      <trkpt lat="46.82844" lon="5.88236">
        <ele>626.9</ele>
        <time>2020-02-22T16:29:40Z</time>
      </trkpt>
      <trkpt lat="46.82842" lon="5.88229">
        <ele>627.2</ele>
        <time>2020-02-22T16:29:44Z</time>
      </trkpt>
      <trkpt lat="46.8284" lon="5.88222">
        <ele>627.4</ele>
        <time>2020-02-22T16:29:49Z</time>
      </trkpt>
      <trkpt lat="46.82839" lon="5.88215">
        <ele>627.5</ele>
        <time>2020-02-22T16:29:54Z</time>
      </trkpt>
      <trkpt lat="46.82837" lon="5.88209">
        <ele>627.6</ele>
        <time>2020-02-22T16:29:59Z</time>
      </trkpt>
      <trkpt lat="46.82834" lon="5.88202">
        <ele>627.9</ele>
        <time>2020-02-22T16:30:04Z</time>
      </trkpt>
      <trkpt lat="46.82831" lon="5.88197">
        <ele>628.2</ele>
        <time>2020-02-22T16:30:08Z</time>
      </trkpt>
      <trkpt lat="46.82829" lon="5.88191">
        <ele>628.4</ele>
        <time>2020-02-22T16:30:12Z</time>
      </trkpt>
      <trkpt lat="46.82826" lon="5.88186">
        <ele>629.7</ele>
        <time>2020-02-22T16:30:27Z</time>
      </trkpt>
      <trkpt lat="46.82824" lon="5.88179">
        <ele>630.1</ele>
        <time>2020-02-22T16:30:31Z</time>
      </trkpt>
      <trkpt lat="46.82821" lon="5.88173">
        <ele>630.2</ele>
        <time>2020-02-22T16:30:35Z</time>
      </trkpt>
      <trkpt lat="46.82819" lon="5.88166">
        <ele>630.4</ele>
        <time>2020-02-22T16:30:41Z</time>
      </trkpt>
      <trkpt lat="46.82817" lon="5.88159">
        <ele>631.2</ele>
        <time>2020-02-22T16:30:51Z</time>
      </trkpt>
      <trkpt lat="46.82815" lon="5.88151">
        <ele>631.4</ele>
        <time>2020-02-22T16:30:55Z</time>
      </trkpt>
      <trkpt lat="46.82814" lon="5.88144">
        <ele>631.4</ele>
        <time>2020-02-22T16:31:00Z</time>
      </trkpt>
      <trkpt lat="46.82814" lon="5.88136">
        <ele>631.2</ele>
        <time>2020-02-22T16:31:05Z</time>
      </trkpt>
      <trkpt lat="46.82812" lon="5.88128">
        <ele>631.1</ele>
        <time>2020-02-22T16:31:09Z</time>
      </trkpt>
      <trkpt lat="46.82811" lon="5.88122">
        <ele>631.1</ele>
        <time>2020-02-22T16:31:13Z</time>
      </trkpt>
      <trkpt lat="46.82809" lon="5.88114">
        <ele>631.1</ele>
        <time>2020-02-22T16:31:18Z</time>
      </trkpt>
      <trkpt lat="46.82808" lon="5.88107">
        <ele>631.2</ele>
        <time>2020-02-22T16:31:23Z</time>
      </trkpt>
      <trkpt lat="46.82806" lon="5.881">
        <ele>631.3</ele>
        <time>2020-02-22T16:31:28Z</time>
      </trkpt>
      <trkpt lat="46.82804" lon="5.88094">
        <ele>631.3</ele>
        <time>2020-02-22T16:31:32Z</time>
      </trkpt>
      <trkpt lat="46.82802" lon="5.88088">
        <ele>631.2</ele>
        <time>2020-02-22T16:31:37Z</time>
      </trkpt>
      <trkpt lat="46.828" lon="5.88082">
        <ele>631.3</ele>
        <time>2020-02-22T16:31:42Z</time>
      </trkpt>
      <trkpt lat="46.82798" lon="5.88074">
        <ele>631.4</ele>
        <time>2020-02-22T16:31:46Z</time>
      </trkpt>
      <trkpt lat="46.82797" lon="5.88068">
        <ele>631.7</ele>
        <time>2020-02-22T16:31:51Z</time>
      </trkpt>
      <trkpt lat="46.82797" lon="5.88061">
        <ele>632</ele>
        <time>2020-02-22T16:31:56Z</time>
      </trkpt>
      <trkpt lat="46.82797" lon="5.88054">
        <ele>632.3</ele>
        <time>2020-02-22T16:32:00Z</time>
      </trkpt>
      <trkpt lat="46.82796" lon="5.88046">
        <ele>632.6</ele>
        <time>2020-02-22T16:32:05Z</time>
      </trkpt>
      <trkpt lat="46.82796" lon="5.88039">
        <ele>632.8</ele>
        <time>2020-02-22T16:32:09Z</time>
      </trkpt>
      <trkpt lat="46.82795" lon="5.88032">
        <ele>633.1</ele>
        <time>2020-02-22T16:32:14Z</time>
      </trkpt>
      <trkpt lat="46.82793" lon="5.88025">
        <ele>633.3</ele>
        <time>2020-02-22T16:32:19Z</time>
      </trkpt>
      <trkpt lat="46.82791" lon="5.88018">
        <ele>633.6</ele>
        <time>2020-02-22T16:32:23Z</time>
      </trkpt>
      <trkpt lat="46.82789" lon="5.88012">
        <ele>633.8</ele>
        <time>2020-02-22T16:32:27Z</time>
      </trkpt>
      <trkpt lat="46.82788" lon="5.88006">
        <ele>634.1</ele>
        <time>2020-02-22T16:32:31Z</time>
      </trkpt>
      <trkpt lat="46.82787" lon="5.87998">
        <ele>634.2</ele>
        <time>2020-02-22T16:32:36Z</time>
      </trkpt>
      <trkpt lat="46.82786" lon="5.8799">
        <ele>634.2</ele>
        <time>2020-02-22T16:32:41Z</time>
      </trkpt>
      <trkpt lat="46.82784" lon="5.87983">
        <ele>634.1</ele>
        <time>2020-02-22T16:32:46Z</time>
      </trkpt>
      <trkpt lat="46.82783" lon="5.87976">
        <ele>634.1</ele>
        <time>2020-02-22T16:32:50Z</time>
      </trkpt>
      <trkpt lat="46.82781" lon="5.87969">
        <ele>634.1</ele>
        <time>2020-02-22T16:32:55Z</time>
      </trkpt>
      <trkpt lat="46.8278" lon="5.87962">
        <ele>634.3</ele>
        <time>2020-02-22T16:33:00Z</time>
      </trkpt>
      <trkpt lat="46.82779" lon="5.87955">
        <ele>634.5</ele>
        <time>2020-02-22T16:33:04Z</time>
      </trkpt>
      <trkpt lat="46.82779" lon="5.87947">
        <ele>634.7</ele>
        <time>2020-02-22T16:33:08Z</time>
      </trkpt>
      <trkpt lat="46.82779" lon="5.8794">
        <ele>635</ele>
        <time>2020-02-22T16:33:12Z</time>
      </trkpt>
      <trkpt lat="46.82779" lon="5.87932">
        <ele>635.3</ele>
        <time>2020-02-22T16:33:17Z</time>
      </trkpt>
      <trkpt lat="46.82778" lon="5.87926">
        <ele>635.8</ele>
        <time>2020-02-22T16:33:22Z</time>
      </trkpt>
      <trkpt lat="46.82777" lon="5.87919">
        <ele>636.1</ele>
        <time>2020-02-22T16:33:26Z</time>
      </trkpt>
      <trkpt lat="46.82775" lon="5.87912">
        <ele>636.3</ele>
        <time>2020-02-22T16:33:30Z</time>
      </trkpt>
      <trkpt lat="46.82775" lon="5.87904">
        <ele>636.5</ele>
        <time>2020-02-22T16:33:34Z</time>
      </trkpt>
      <trkpt lat="46.82774" lon="5.87897">
        <ele>636.8</ele>
        <time>2020-02-22T16:33:39Z</time>
      </trkpt>
      <trkpt lat="46.82774" lon="5.8789">
        <ele>637.4</ele>
        <time>2020-02-22T16:33:46Z</time>
      </trkpt>
      <trkpt lat="46.82773" lon="5.87882">
        <ele>638.3</ele>
        <time>2020-02-22T16:33:56Z</time>
      </trkpt>
      <trkpt lat="46.82771" lon="5.87875">
        <ele>639.1</ele>
        <time>2020-02-22T16:34:01Z</time>
      </trkpt>
      <trkpt lat="46.82772" lon="5.87868">
        <ele>639.8</ele>
        <time>2020-02-22T16:34:06Z</time>
      </trkpt>
      <trkpt lat="46.82773" lon="5.87861">
        <ele>640.1</ele>
        <time>2020-02-22T16:34:11Z</time>
      </trkpt>
      <trkpt lat="46.82774" lon="5.87853">
        <ele>640.4</ele>
        <time>2020-02-22T16:34:16Z</time>
      </trkpt>
      <trkpt lat="46.82774" lon="5.87846">
        <ele>640.6</ele>
        <time>2020-02-22T16:34:20Z</time>
      </trkpt>
      <trkpt lat="46.82773" lon="5.87839">
        <ele>640.9</ele>
        <time>2020-02-22T16:34:24Z</time>
      </trkpt>
      <trkpt lat="46.82772" lon="5.87831">
        <ele>641.2</ele>
        <time>2020-02-22T16:34:29Z</time>
      </trkpt>
      <trkpt lat="46.8277" lon="5.87823">
        <ele>641.3</ele>
        <time>2020-02-22T16:34:33Z</time>
      </trkpt>
      <trkpt lat="46.82768" lon="5.87816">
        <ele>641.4</ele>
        <time>2020-02-22T16:34:37Z</time>
      </trkpt>
      <trkpt lat="46.82766" lon="5.87808">
        <ele>641.6</ele>
        <time>2020-02-22T16:34:41Z</time>
      </trkpt>
      <trkpt lat="46.82764" lon="5.87802">
        <ele>641.8</ele>
        <time>2020-02-22T16:34:45Z</time>
      </trkpt>
      <trkpt lat="46.82761" lon="5.87797">
        <ele>641.9</ele>
        <time>2020-02-22T16:34:48Z</time>
      </trkpt>
      <trkpt lat="46.82759" lon="5.87789">
        <ele>642.3</ele>
        <time>2020-02-22T16:34:53Z</time>
      </trkpt>
      <trkpt lat="46.82757" lon="5.87783">
        <ele>642.8</ele>
        <time>2020-02-22T16:34:58Z</time>
      </trkpt>
      <trkpt lat="46.82755" lon="5.87776">
        <ele>643.4</ele>
        <time>2020-02-22T16:35:03Z</time>
      </trkpt>
      <trkpt lat="46.82753" lon="5.87769">
        <ele>643.8</ele>
        <time>2020-02-22T16:35:09Z</time>
      </trkpt>
      <trkpt lat="46.82751" lon="5.87762">
        <ele>643.9</ele>
        <time>2020-02-22T16:35:13Z</time>
      </trkpt>
      <trkpt lat="46.8275" lon="5.87755">
        <ele>643.9</ele>
        <time>2020-02-22T16:35:18Z</time>
      </trkpt>
      <trkpt lat="46.82748" lon="5.87748">
        <ele>643.7</ele>
        <time>2020-02-22T16:35:22Z</time>
      </trkpt>
      <trkpt lat="46.82746" lon="5.87742">
        <ele>643.6</ele>
        <time>2020-02-22T16:35:25Z</time>
      </trkpt>
      <trkpt lat="46.82744" lon="5.87734">
        <ele>643.4</ele>
        <time>2020-02-22T16:35:29Z</time>
      </trkpt>
      <trkpt lat="46.82742" lon="5.87727">
        <ele>643.2</ele>
        <time>2020-02-22T16:35:33Z</time>
      </trkpt>
      <trkpt lat="46.8274" lon="5.87721">
        <ele>642.9</ele>
        <time>2020-02-22T16:35:37Z</time>
      </trkpt>
      <trkpt lat="46.8274" lon="5.87714">
        <ele>642.9</ele>
        <time>2020-02-22T16:35:42Z</time>
      </trkpt>
      <trkpt lat="46.82739" lon="5.87706">
        <ele>642.9</ele>
        <time>2020-02-22T16:35:47Z</time>
      </trkpt>
      <trkpt lat="46.82738" lon="5.87698">
        <ele>643</ele>
        <time>2020-02-22T16:35:51Z</time>
      </trkpt>
      <trkpt lat="46.82738" lon="5.87692">
        <ele>643.1</ele>
        <time>2020-02-22T16:35:54Z</time>
      </trkpt>
      <trkpt lat="46.82738" lon="5.87684">
        <ele>643.2</ele>
        <time>2020-02-22T16:35:58Z</time>
      </trkpt>
      <trkpt lat="46.82739" lon="5.87677">
        <ele>643.5</ele>
        <time>2020-02-22T16:36:03Z</time>
      </trkpt>
      <trkpt lat="46.82739" lon="5.87669">
        <ele>643.6</ele>
        <time>2020-02-22T16:36:07Z</time>
      </trkpt>
      <trkpt lat="46.82738" lon="5.87662">
        <ele>643.6</ele>
        <time>2020-02-22T16:36:12Z</time>
      </trkpt>
      <trkpt lat="46.82739" lon="5.87655">
        <ele>643.7</ele>
        <time>2020-02-22T16:36:16Z</time>
      </trkpt>
      <trkpt lat="46.8274" lon="5.87648">
        <ele>643.7</ele>
        <time>2020-02-22T16:36:20Z</time>
      </trkpt>
      <trkpt lat="46.82741" lon="5.87641">
        <ele>643.6</ele>
        <time>2020-02-22T16:36:25Z</time>
      </trkpt>
      <trkpt lat="46.82741" lon="5.87633">
        <ele>643.6</ele>
        <time>2020-02-22T16:36:30Z</time>
      </trkpt>
      <trkpt lat="46.82742" lon="5.87625">
        <ele>643.8</ele>
        <time>2020-02-22T16:36:35Z</time>
      </trkpt>
      <trkpt lat="46.82743" lon="5.87617">
        <ele>644</ele>
        <time>2020-02-22T16:36:39Z</time>
      </trkpt>
      <trkpt lat="46.82744" lon="5.8761">
        <ele>644.2</ele>
        <time>2020-02-22T16:36:43Z</time>
      </trkpt>
      <trkpt lat="46.82745" lon="5.87603">
        <ele>644.2</ele>
        <time>2020-02-22T16:36:47Z</time>
      </trkpt>
      <trkpt lat="46.82745" lon="5.87596">
        <ele>644.2</ele>
        <time>2020-02-22T16:36:52Z</time>
      </trkpt>
      <trkpt lat="46.82745" lon="5.87589">
        <ele>644.3</ele>
        <time>2020-02-22T16:36:56Z</time>
      </trkpt>
      <trkpt lat="46.82746" lon="5.87581">
        <ele>644.6</ele>
        <time>2020-02-22T16:37:01Z</time>
      </trkpt>
      <trkpt lat="46.82747" lon="5.87575">
        <ele>644.7</ele>
        <time>2020-02-22T16:37:05Z</time>
      </trkpt>
      <trkpt lat="46.82748" lon="5.87567">
        <ele>644.7</ele>
        <time>2020-02-22T16:37:10Z</time>
      </trkpt>
      <trkpt lat="46.82749" lon="5.8756">
        <ele>644.6</ele>
        <time>2020-02-22T16:37:15Z</time>
      </trkpt>
      <trkpt lat="46.8275" lon="5.87554">
        <ele>644.8</ele>
        <time>2020-02-22T16:37:19Z</time>
      </trkpt>
      <trkpt lat="46.82749" lon="5.87547">
        <ele>644.9</ele>
        <time>2020-02-22T16:37:23Z</time>
      </trkpt>
      <trkpt lat="46.82748" lon="5.87539">
        <ele>645</ele>
        <time>2020-02-22T16:37:28Z</time>
      </trkpt>
      <trkpt lat="46.82748" lon="5.87531">
        <ele>645.1</ele>
        <time>2020-02-22T16:37:32Z</time>
      </trkpt>
      <trkpt lat="46.82747" lon="5.87523">
        <ele>645.2</ele>
        <time>2020-02-22T16:37:37Z</time>
      </trkpt>
      <trkpt lat="46.82747" lon="5.87517">
        <ele>645.4</ele>
        <time>2020-02-22T16:37:41Z</time>
      </trkpt>
      <trkpt lat="46.8275" lon="5.87511">
        <ele>645.8</ele>
        <time>2020-02-22T16:37:47Z</time>
      </trkpt>
      <trkpt lat="46.82754" lon="5.87508">
        <ele>646.2</ele>
        <time>2020-02-22T16:37:53Z</time>
      </trkpt>
      <trkpt lat="46.82758" lon="5.87507">
        <ele>646.6</ele>
        <time>2020-02-22T16:37:58Z</time>
      </trkpt>
      <trkpt lat="46.82763" lon="5.87505">
        <ele>647</ele>
        <time>2020-02-22T16:38:05Z</time>
      </trkpt>
      <trkpt lat="46.82767" lon="5.87504">
        <ele>647.2</ele>
        <time>2020-02-22T16:38:09Z</time>
      </trkpt>
      <trkpt lat="46.82773" lon="5.87502">
        <ele>647.6</ele>
        <time>2020-02-22T16:38:13Z</time>
      </trkpt>
      <trkpt lat="46.82778" lon="5.87499">
        <ele>648.2</ele>
        <time>2020-02-22T16:38:19Z</time>
      </trkpt>
      <trkpt lat="46.82782" lon="5.87498">
        <ele>648.8</ele>
        <time>2020-02-22T16:38:26Z</time>
      </trkpt>
      <trkpt lat="46.82787" lon="5.87498">
        <ele>649.2</ele>
        <time>2020-02-22T16:38:32Z</time>
      </trkpt>
      <trkpt lat="46.82792" lon="5.87499">
        <ele>649.3</ele>
        <time>2020-02-22T16:38:37Z</time>
      </trkpt>
      <trkpt lat="46.82796" lon="5.87499">
        <ele>649.2</ele>
        <time>2020-02-22T16:38:41Z</time>
      </trkpt>
      <trkpt lat="46.82801" lon="5.87499">
        <ele>649</ele>
        <time>2020-02-22T16:38:45Z</time>
      </trkpt>
      <trkpt lat="46.82806" lon="5.87498">
        <ele>648.8</ele>
        <time>2020-02-22T16:38:49Z</time>
      </trkpt>
      <trkpt lat="46.8281" lon="5.87497">
        <ele>648.7</ele>
        <time>2020-02-22T16:38:53Z</time>
      </trkpt>
      <trkpt lat="46.82815" lon="5.87496">
        <ele>649</ele>
        <time>2020-02-22T16:38:58Z</time>
      </trkpt>
      <trkpt lat="46.82821" lon="5.87496">
        <ele>649.3</ele>
        <time>2020-02-22T16:39:03Z</time>
      </trkpt>
      <trkpt lat="46.82826" lon="5.87493">
        <ele>649.4</ele>
        <time>2020-02-22T16:39:07Z</time>
      </trkpt>
      <trkpt lat="46.82831" lon="5.8749">
        <ele>649.2</ele>
        <time>2020-02-22T16:39:10Z</time>
      </trkpt>
      <trkpt lat="46.82835" lon="5.87488">
        <ele>648.9</ele>
        <time>2020-02-22T16:39:14Z</time>
      </trkpt>
      <trkpt lat="46.8284" lon="5.87486">
        <ele>648.6</ele>
        <time>2020-02-22T16:39:18Z</time>
      </trkpt>
      <trkpt lat="46.82844" lon="5.87484">
        <ele>648.4</ele>
        <time>2020-02-22T16:39:22Z</time>
      </trkpt>
      <trkpt lat="46.82849" lon="5.87482">
        <ele>648.2</ele>
        <time>2020-02-22T16:39:27Z</time>
      </trkpt>
      <trkpt lat="46.82854" lon="5.8748">
        <ele>648.1</ele>
        <time>2020-02-22T16:39:34Z</time>
      </trkpt>
      <trkpt lat="46.82859" lon="5.87478">
        <ele>648</ele>
        <time>2020-02-22T16:39:40Z</time>
      </trkpt>
      <trkpt lat="46.82864" lon="5.87476">
        <ele>647.9</ele>
        <time>2020-02-22T16:39:45Z</time>
      </trkpt>
      <trkpt lat="46.82869" lon="5.87472">
        <ele>647.8</ele>
        <time>2020-02-22T16:39:49Z</time>
      </trkpt>
      <trkpt lat="46.82873" lon="5.87469">
        <ele>647.6</ele>
        <time>2020-02-22T16:39:52Z</time>
      </trkpt>
      <trkpt lat="46.82878" lon="5.87466">
        <ele>647.4</ele>
        <time>2020-02-22T16:39:56Z</time>
      </trkpt>
      <trkpt lat="46.82882" lon="5.87464">
        <ele>647.3</ele>
        <time>2020-02-22T16:39:59Z</time>
      </trkpt>
      <trkpt lat="46.82887" lon="5.87461">
        <ele>647.2</ele>
        <time>2020-02-22T16:40:03Z</time>
      </trkpt>
      <trkpt lat="46.82891" lon="5.87458">
        <ele>647.1</ele>
        <time>2020-02-22T16:40:07Z</time>
      </trkpt>
      <trkpt lat="46.82897" lon="5.87455">
        <ele>647</ele>
        <time>2020-02-22T16:40:11Z</time>
      </trkpt>
      <trkpt lat="46.82902" lon="5.87452">
        <ele>646.8</ele>
        <time>2020-02-22T16:40:15Z</time>
      </trkpt>
      <trkpt lat="46.82907" lon="5.87452">
        <ele>646.7</ele>
        <time>2020-02-22T16:40:20Z</time>
      </trkpt>
      <trkpt lat="46.82912" lon="5.87452">
        <ele>646.7</ele>
        <time>2020-02-22T16:40:25Z</time>
      </trkpt>
      <trkpt lat="46.82917" lon="5.87453">
        <ele>646.6</ele>
        <time>2020-02-22T16:40:30Z</time>
      </trkpt>
      <trkpt lat="46.82922" lon="5.87454">
        <ele>646.8</ele>
        <time>2020-02-22T16:40:34Z</time>
      </trkpt>
      <trkpt lat="46.82927" lon="5.87457">
        <ele>647.2</ele>
        <time>2020-02-22T16:40:39Z</time>
      </trkpt>
      <trkpt lat="46.82932" lon="5.87459">
        <ele>647.5</ele>
        <time>2020-02-22T16:40:44Z</time>
      </trkpt>
      <trkpt lat="46.82936" lon="5.87462">
        <ele>647.6</ele>
        <time>2020-02-22T16:40:48Z</time>
      </trkpt>
      <trkpt lat="46.8294" lon="5.87466">
        <ele>647.7</ele>
        <time>2020-02-22T16:40:52Z</time>
      </trkpt>
      <trkpt lat="46.82944" lon="5.87471">
        <ele>647.8</ele>
        <time>2020-02-22T16:40:57Z</time>
      </trkpt>
      <trkpt lat="46.82948" lon="5.87476">
        <ele>648.1</ele>
        <time>2020-02-22T16:41:02Z</time>
      </trkpt>
      <trkpt lat="46.82952" lon="5.87481">
        <ele>648.4</ele>
        <time>2020-02-22T16:41:06Z</time>
      </trkpt>
      <trkpt lat="46.82955" lon="5.87484">
        <ele>648.6</ele>
        <time>2020-02-22T16:41:10Z</time>
      </trkpt>
      <trkpt lat="46.8296" lon="5.87487">
        <ele>648.7</ele>
        <time>2020-02-22T16:41:17Z</time>
      </trkpt>
      <trkpt lat="46.82964" lon="5.87488">
        <ele>648.5</ele>
        <time>2020-02-22T16:41:24Z</time>
      </trkpt>
      <trkpt lat="46.82969" lon="5.8749">
        <ele>648.5</ele>
        <time>2020-02-22T16:41:29Z</time>
      </trkpt>
      <trkpt lat="46.82974" lon="5.87492">
        <ele>648.7</ele>
        <time>2020-02-22T16:41:34Z</time>
      </trkpt>
      <trkpt lat="46.82979" lon="5.87494">
        <ele>648.7</ele>
        <time>2020-02-22T16:41:38Z</time>
      </trkpt>
      <trkpt lat="46.82983" lon="5.87497">
        <ele>648.7</ele>
        <time>2020-02-22T16:41:42Z</time>
      </trkpt>
      <trkpt lat="46.82989" lon="5.87498">
        <ele>648.7</ele>
        <time>2020-02-22T16:41:46Z</time>
      </trkpt>
      <trkpt lat="46.82994" lon="5.87499">
        <ele>648.6</ele>
        <time>2020-02-22T16:41:49Z</time>
      </trkpt>
      <trkpt lat="46.82999" lon="5.87499">
        <ele>648.5</ele>
        <time>2020-02-22T16:41:52Z</time>
      </trkpt>
      <trkpt lat="46.83003" lon="5.875">
        <ele>648.5</ele>
        <time>2020-02-22T16:41:55Z</time>
      </trkpt>
      <trkpt lat="46.83008" lon="5.87504">
        <ele>648.5</ele>
        <time>2020-02-22T16:41:59Z</time>
      </trkpt>
      <trkpt lat="46.83013" lon="5.87509">
        <ele>648.5</ele>
        <time>2020-02-22T16:42:03Z</time>
      </trkpt>
      <trkpt lat="46.83016" lon="5.87513">
        <ele>648.4</ele>
        <time>2020-02-22T16:42:06Z</time>
      </trkpt>
      <trkpt lat="46.83021" lon="5.87518">
        <ele>648.5</ele>
        <time>2020-02-22T16:42:10Z</time>
      </trkpt>
      <trkpt lat="46.83025" lon="5.87523">
        <ele>648.8</ele>
        <time>2020-02-22T16:42:15Z</time>
      </trkpt>
      <trkpt lat="46.83029" lon="5.87528">
        <ele>649.2</ele>
        <time>2020-02-22T16:42:20Z</time>
      </trkpt>
      <trkpt lat="46.83033" lon="5.87533">
        <ele>649.4</ele>
        <time>2020-02-22T16:42:26Z</time>
      </trkpt>
      <trkpt lat="46.83037" lon="5.87538">
        <ele>649</ele>
        <time>2020-02-22T16:42:31Z</time>
      </trkpt>
      <trkpt lat="46.83041" lon="5.87544">
        <ele>648.8</ele>
        <time>2020-02-22T16:42:36Z</time>
      </trkpt>
      <trkpt lat="46.83044" lon="5.87549">
        <ele>648.9</ele>
        <time>2020-02-22T16:42:40Z</time>
      </trkpt>
      <trkpt lat="46.83047" lon="5.87554">
        <ele>649.1</ele>
        <time>2020-02-22T16:42:45Z</time>
      </trkpt>
      <trkpt lat="46.83051" lon="5.87559">
        <ele>649.2</ele>
        <time>2020-02-22T16:42:49Z</time>
      </trkpt>
      <trkpt lat="46.83055" lon="5.87565">
        <ele>649.1</ele>
        <time>2020-02-22T16:42:54Z</time>
      </trkpt>
      <trkpt lat="46.83059" lon="5.87569">
        <ele>648.9</ele>
        <time>2020-02-22T16:42:59Z</time>
      </trkpt>
      <trkpt lat="46.83063" lon="5.87573">
        <ele>648.3</ele>
        <time>2020-02-22T16:43:05Z</time>
      </trkpt>
      <trkpt lat="46.83067" lon="5.87578">
        <ele>647.8</ele>
        <time>2020-02-22T16:43:10Z</time>
      </trkpt>
      <trkpt lat="46.8307" lon="5.87584">
        <ele>646.7</ele>
        <time>2020-02-22T16:43:16Z</time>
      </trkpt>
      <trkpt lat="46.83071" lon="5.87591">
        <ele>645.8</ele>
        <time>2020-02-22T16:43:53Z</time>
      </trkpt>
      <trkpt lat="46.83075" lon="5.87594">
        <ele>646.4</ele>
        <time>2020-02-22T16:44:04Z</time>
      </trkpt>
    </trkseg>
  </trk>
</gpx>